[[{"header":{"parameterUnit":"m.s-1","parameterCategory":1,"la1":30.6,"la2":28.766,"lo1":-90.7593,"lo2":-88.6598,"dy":0.0162,"dx":0.0183,"nx":116,"ny":114,"refTime":"2023-09-03T00:00:00:Z","depth":0,"parameterNumber":2,"parameterNumberName":"U-component_of_WINDS"},"data":[0.0,0.0,0.0,0.0,0.0,0.0,0.0,0.0,0.0,0.0,0.0,0.0,0.0,0.0,0.0,0.0,0.0,0.0,0.0,0.0,0.0,0.0,0.0,0.0,0.0,0.0,0.0,0.0,0.0,0.0,0.0,0.0,0.0,0.0,0.0,0.0,0.0,0.0,0.0,0.0,0.0,0.0,0.0,0.0,0.0,0.0,0.0,0.0,0.0,0.0,0.0,0.0,0.0,0.0,0.0,0.0,0.0,0.0,0.0,0.0,0.0,0.0,0.0,0.0,0.0,0.0,0.0,0.0,0.0,0.0,0.0,0.0,0.0,0.0,0.0,0.0,0.0,0.0,0.0,0.0,0.0,0.0,0.0,0.0,0.0,0.0,0.0,0.0,0.0,0.0,0.0,0.0,0.0,0.0,0.0,0.0,0.0,0.0,0.0,0.0,0.0,0.0,0.0,0.0,0.0,0.0,0.0,0.0,0.0,0.0,0.0,0.0,0.0,0.0,0.0,0.0,0.0,0.0,0.0,0.0,0.0,0.0,0.0,0.0,0.0,0.0,0.0,0.0,0.0,0.0,0.0,0.0,0.0,0.0,0.0,0.0,0.0,0.0,0.0,0.0,0.0,0.0,0.0,0.0,0.0,0.0,0.0,0.0,0.0,0.0,0.0,0.0,0.0,0.0,0.0,0.0,0.0,0.0,0.0,0.0,0.0,0.0,0.0,0.0,0.0,0.0,0.0,0.0,0.0,0.0,0.0,0.0,0.0,0.0,0.0,0.0,0.0,0.0,0.0,0.0,0.0,0.0,0.0,0.0,0.0,0.0,0.0,0.0,0.0,0.0,0.0,0.0,0.0,0.0,0.0,0.0,0.0,0.0,0.0,0.0,0.0,0.0,0.0,0.0,0.0,0.0,0.0,0.0,0.0,0.0,0.0,0.0,0.0,0.0,0.0,0.0,0.0,0.0,0.0,0.0,0.0,0.0,0.0,0.0,0.0,0.0,0.0,0.0,0.0,0.0,0.0,0.0,0.0,0.0,0.0,0.0,0.0,0.0,0.0,0.0,0.0,0.0,0.0,0.0,0.0,0.0,0.0,0.0,0.0,0.0,0.0,0.0,0.0,0.0,0.0,0.0,0.0,0.0,0.0,0.0,0.0,0.0,0.0,0.0,0.0,0.0,0.0,0.0,0.0,0.0,0.0,0.0,0.0,0.0,0.0,0.0,0.0,0.0,0.0,0.0,0.0,0.0,0.0,0.0,0.0,0.0,0.0,0.0,0.0,0.0,0.0,0.0,0.0,0.0,0.0,0.0,0.0,0.0,0.0,0.0,0.0,0.0,0.0,0.0,0.0,0.0,0.0,0.0,0.0,0.0,0.0,0.0,0.0,0.0,0.0,0.0,0.0,0.0,0.0,0.0,0.0,0.0,0.0,0.0,0.0,0.0,0.0,0.0,0.0,0.0,0.0,0.0,0.0,0.0,0.0,0.0,0.0,0.0,0.0,0.0,0.0,0.0,0.0,0.0,0.0,0.0,0.0,0.0,0.0,0.0,0.0,0.0,0.0,0.0,0.0,0.0,0.0,0.0,0.0,0.0,0.0,0.0,0.0,0.0,0.0,0.0,0.0,0.0,0.0,0.0,0.0,0.0,0.0,0.0,0.0,0.0,0.0,0.0,0.0,0.0,0.0,0.0,0.0,0.0,0.0,0.0,0.0,0.0,0.0,0.0,0.0,0.0,0.0,0.0,0.0,0.0,0.0,0.0,0.0,0.0,0.0,0.0,0.0,0.0,0.0,0.0,0.0,0.0,0.0,0.0,0.0,0.0,0.0,0.0,0.0,0.0,0.0,0.0,0.0,0.0,0.0,0.0,0.0,0.0,0.0,0.0,0.0,0.0,0.0,0.0,0.0,0.0,0.0,0.0,0.0,0.0,0.0,0.0,0.0,0.0,0.0,0.0,0.0,0.0,0.0,0.0,0.0,0.0,0.0,0.0,0.0,0.0,0.0,0.0,0.0,0.0,0.0,0.0,0.0,0.0,0.0,0.0,0.0,0.0,0.0,0.0,0.0,0.0,0.0,0.0,0.0,0.0,0.0,0.0,0.0,0.0,0.0,0.0,0.0,0.0,0.0,0.0,0.0,0.0,0.0,0.0,0.0,0.0,0.0,0.0,0.0,0.0,0.0,0.0,0.0,0.0,0.0,0.0,0.0,0.0,0.0,0.0,0.0,0.0,0.0,0.0,0.0,0.0,0.0,0.0,0.0,0.0,0.0,0.0,0.0,0.0,0.0,0.0,0.0,0.0,0.0,0.0,0.0,0.0,0.0,0.0,0.0,0.0,0.0,0.0,0.0,0.0,0.0,0.0,0.0,0.0,0.0,0.0,0.0,0.0,0.0,0.0,0.0,0.0,0.0,0.0,0.0,0.0,0.0,0.0,0.0,0.0,0.0,0.0,0.0,0.0,0.0,0.0,0.0,0.0,0.0,0.0,0.0,0.0,0.0,0.0,0.0,0.0,0.0,0.0,0.0,0.0,0.0,0.0,0.0,0.0,0.0,0.0,0.0,0.0,0.0,0.0,0.0,0.0,0.0,0.0,0.0,0.0,0.0,0.0,0.0,0.0,0.0,0.0,0.0,0.0,0.0,0.0,0.0,0.0,0.0,0.0,0.0,0.0,0.0,0.0,0.0,0.0,0.0,0.0,0.0,0.0,0.0,0.0,0.0,0.0,0.0,0.0,0.0,0.0,0.0,0.0,0.0,0.0,0.0,0.0,0.0,0.0,0.0,0.0,0.0,0.0,0.0,0.0,0.0,0.0,0.0,0.0,0.0,0.0,0.0,0.0,0.0,0.0,0.0,0.0,0.0,0.0,0.0,0.0,0.0,0.0,0.0,0.0,0.0,0.0,0.0,0.0,0.0,0.0,0.0,0.0,0.0,0.0,0.0,0.0,0.0,0.0,0.0,0.0,0.0,0.0,0.0,0.0,0.0,0.0,0.0,0.0,0.0,0.0,0.0,0.0,0.0,0.0,0.0,0.0,0.0,0.0,0.0,0.0,0.0,0.0,0.0,0.0,0.0,0.0,0.0,0.0,0.0,0.0,0.0,0.0,0.0,0.0,0.0,0.0,0.0,0.0,0.0,0.0,0.0,0.0,0.0,0.0,0.0,0.0,0.0,0.0,0.0,0.0,0.0,0.0,0.0,0.0,0.0,0.0,0.0,0.0,0.0,0.0,0.0,0.0,0.0,0.0,0.0,0.0,0.0,0.0,0.0,0.0,0.0,0.0,0.0,0.0,0.0,0.0,0.0,0.0,0.0,0.0,0.0,0.0,0.0,0.0,0.0,0.0,0.0,0.0,0.0,0.0,0.0,0.0,0.0,0.0,0.0,0.0,0.0,0.0,0.0,0.0,0.0,0.0,0.0,0.0,0.0,0.0,0.0,0.0,0.0,0.0,0.0,0.0,0.0,0.0,0.0,0.0,0.0,0.0,0.0,0.0,0.0,0.0,0.0,0.0,0.0,0.0,0.0,0.0,0.0,0.0,0.0,0.0,0.0,0.0,0.0,0.0,0.0,0.0,0.0,0.0,0.0,0.0,0.0,0.0,0.0,0.0,0.0,0.0,0.0,0.0,0.0,0.0,0.0,0.0,0.0,0.0,0.0,0.0,0.0,0.0,0.0,0.0,0.0,0.0,0.0,0.0,0.0,0.0,0.0,0.0,0.0,0.0,0.0,0.0,0.0,0.0,0.0,0.0,0.0,0.0,0.0,0.0,0.0,0.0,0.0,0.0,0.0,0.0,0.0,0.0,0.0,0.0,0.0,0.0,0.0,0.0,0.0,0.0,0.0,0.0,0.0,0.0,0.0,0.0,0.0,0.0,0.0,0.0,0.0,0.0,0.0,0.0,0.0,0.0,0.0,0.0,0.0,0.0,0.0,0.0,0.0,0.0,0.0,0.0,0.0,0.0,0.0,0.0,0.0,0.0,0.0,0.0,0.0,0.0,0.0,0.0,0.0,0.0,0.0,0.0,0.0,0.0,0.0,0.0,0.0,0.0,0.0,0.0,0.0,0.0,0.0,0.0,0.0,0.0,0.0,0.0,0.0,0.0,0.0,0.0,0.0,0.0,0.0,0.0,0.0,0.0,0.0,0.0,0.0,0.0,0.0,0.0,0.0,0.0,0.0,0.0,0.0,0.0,0.0,0.0,0.0,0.0,0.0,0.0,0.0,0.0,0.0,0.0,0.0,0.0,0.0,0.0,0.0,0.0,0.0,0.0,0.0,0.0,0.0,0.0,0.0,0.0,0.0,0.0,0.0,0.0,0.0,0.0,0.0,0.0,0.0,0.0,0.0,0.0,0.0,0.0,0.0,0.0,0.0,0.0,0.0,0.0,0.0,0.0,0.0,0.0,0.0,0.0,0.0,0.0,0.0,0.0,0.0,0.0,0.0,0.0,0.0,0.0,0.0,0.0,0.0,0.0,0.0,0.0,0.0,0.0,0.0,0.0,0.0,0.0,0.0,0.0,0.0,0.0,0.0,0.0,0.0,0.0,0.0,0.0,0.0,0.0,0.0,0.0,0.0,0.0,0.0,0.0,0.0,0.0,0.0,0.0,0.0,0.0,0.0,0.0,0.0,0.0,0.0,0.0,0.0,0.0,0.0,0.0,0.0,0.0,0.0,0.0,0.0,0.0,0.0,0.0,0.0,0.0,0.0,0.0,0.0,0.0,0.0,0.0,0.0,0.0,0.0,0.0,0.0,0.0,0.0,0.0,0.0,0.0,0.0,0.0,0.0,0.0,0.0,0.0,0.0,0.0,0.0,0.0,0.0,0.0,0.0,0.0,0.0,0.0,0.0,0.0,0.0,0.0,0.0,0.0,0.0,0.0,0.0,0.0,0.0,0.0,0.0,0.0,0.0,0.0,0.0,0.0,0.0,0.0,0.0,0.0,0.0,0.0,0.0,0.0,0.0,0.0,0.0,0.0,0.0,0.0,0.0,0.0,0.0,0.0,0.0,0.0,0.0,0.0,0.0,0.0,0.0,0.0,0.0,0.0,0.0,0.0,0.0,0.0,0.0,0.0,0.0,0.0,0.0,0.0,0.0,0.0,0.0,0.0,0.0,0.0,0.0,0.0,0.0,0.0,0.0,0.0,0.0,0.0,0.0,0.0,0.0,0.0,0.0,0.0,0.0,0.0,0.0,0.0,0.0,0.0,0.0,0.0,0.0,0.0,0.0,0.0,0.0,0.0,0.0,0.0,0.0,0.0,0.0,0.0,0.0,0.0,0.0,0.0,0.0,0.0,0.0,0.0,0.0,0.0,0.0,0.0,0.0,0.0,0.0,0.0,0.0,0.0,0.0,0.0,0.0,0.0,0.0,0.0,0.0,0.0,0.0,0.0,0.0,0.0,0.0,0.0,0.0,0.0,0.0,0.0,0.0,0.0,0.0,0.0,0.0,0.0,0.0,0.0,0.0,0.0,0.0,0.0,0.0,0.0,0.0,0.0,0.0,0.0,0.0,0.0,0.0,0.0,0.0,0.0,0.0,0.0,0.0,0.0,0.0,0.0,0.0,0.0,0.0,0.0,0.0,0.0,0.0,0.0,0.0,0.0,0.0,0.0,0.0,0.0,0.0,0.0,0.0,0.0,0.0,0.0,0.0,0.0,0.0,0.0,0.0,0.0,0.0,0.0,0.0,0.0,0.0,0.0,0.0,0.0,0.0,0.0,0.0,0.0,0.0,0.0,0.0,0.0,0.0,0.0,0.0,0.0,0.0,0.0,0.0,0.0,0.0,0.0,0.0,0.0,0.0,0.0,0.0,0.0,0.0,0.0,0.0,0.0,0.0,0.0,0.0,0.0,0.0,0.0,0.0,0.0,0.0,0.0,0.0,0.0,0.0,0.0,0.0,0.0,0.0,0.0,0.0,0.0,0.0,0.0,0.0,0.0,0.0,0.0,0.0,0.0,0.0,0.0,0.0,0.0,0.0,0.0,0.0,0.0,0.0,0.0,0.0,0.0,0.0,0.0,0.0,0.0,0.0,0.0,0.0,0.0,0.0,0.0,0.0,0.0,0.0,0.0,0.0,0.0,0.0,0.0,0.0,0.0,-2.2875,-2.1354,0.0,0.0,0.0,0.0,0.0,0.0,0.0,0.0,0.0,0.0,0.0,0.0,0.0,0.0,0.0,0.0,0.0,0.0,0.0,0.0,0.0,0.0,0.0,0.0,0.0,0.0,0.0,0.0,0.0,0.0,0.0,0.0,0.0,0.0,0.0,0.0,0.0,0.0,0.8282,0.82,0.8019,0.8008,0.7773,0.7344,0.0,0.0,0.0,0.0,0.0,0.0,0.0,0.0,0.0,0.0,0.0,0.0,0.0,0.0,0.0,0.0,0.0,0.0,0.0,0.0,0.0,0.0,0.0,0.0,0.0,0.0,0.0,0.0,0.0,0.0,0.0,0.0,0.0,0.0,0.0,0.0,0.0,0.0,0.0,0.0,0.0,0.0,0.0,0.0,0.0,0.0,0.0,0.0,0.0,0.0,0.0,0.0,0.0,0.0,0.0,0.0,0.0,0.0,0.0,0.0,0.0,0.0,0.0,0.0,0.0,0.0,0.0,0.0,0.0,0.0,-2.6562,-2.44,0.0,0.0,0.0,0.0,0.0,0.0,0.0,0.0,0.0,0.0,0.0,0.0,0.0,0.0,0.0,0.0,0.0,0.0,0.0,0.0,0.0,0.0,0.0,0.0,0.2214,0.2639,0.2842,0.3161,0.0,0.0,0.0,0.0,0.0,0.0,0.0,0.7869,0.7901,0.7696,0.773,0.7689,0.7581,0.7525,0.7366,0.7118,0.7236,0.0,0.0,0.0,0.0,0.0,0.0,0.0,0.0,0.0,0.0,0.0,0.0,0.0,0.0,0.0,0.0,0.0,0.0,0.0,0.0,0.0,0.0,0.0,0.0,0.0,0.0,0.0,0.0,0.0,0.0,0.0,0.0,0.0,0.0,0.0,0.0,0.0,0.0,0.0,0.0,0.0,0.0,0.0,0.0,0.0,0.0,0.0,0.0,0.0,0.0,0.0,0.0,0.0,0.0,0.0,0.0,0.0,0.0,0.0,0.0,0.0,0.0,0.0,-3.3625,-3.4183,-3.467,-3.4537,-3.4545,-3.4534,-3.0364,-2.7826,-2.6523,-2.5659,0.0,0.0,0.0,0.0,0.0,0.0,0.0,0.0,0.0,0.0,0.0,0.0,0.0,0.0,0.0,0.0,0.0,0.0,0.0,0.0,0.0,0.0807,0.1202,0.173,0.2163,0.2602,0.307,0.0,0.0,0.0,0.0,0.0,0.667,0.6998,0.7059,0.6866,0.6746,0.6725,0.6753,0.6753,0.6902,0.7207,0.774,0.7954,0.7954,0.0,0.0,0.0,0.0,0.0,0.0,0.0,0.0,0.0,0.0,0.0,0.0,0.0,0.0,0.0,0.0,0.0,0.0,0.0,0.0,0.0,0.0,0.0,0.0,0.0,0.0,0.0,0.0,0.0,0.0,0.0,0.0,0.0,0.0,0.0,0.0,0.0,0.0,0.0,0.0,0.0,-1.8702,-1.9532,0.0,0.0,0.0,0.0,0.0,0.0,0.0,0.0,0.0,0.0,0.0,0.0,0.0,-3.2428,-3.3798,-3.4875,-3.5986,-3.7107,-3.7231,-3.7615,-3.8229,-3.8192,-3.8004,-3.768,-3.6864,0.0,-3.0601,-2.9984,0.0,0.0,0.0,0.0,0.0,0.0,0.0,0.0,0.0,0.0,0.0,0.0,0.0,0.0,0.0,0.0,0.0,0.0,0.0,0.0,0.0,-0.0817,-0.0354,0.0157,0.0699,0.1273,0.1886,0.247,0.0,0.0,0.0,0.507,0.5472,0.5783,0.5743,0.5362,0.5255,0.5239,0.5301,0.5543,0.593,0.6447,0.7006,0.7472,0.7824,0.7969,0.0,0.0,0.0,0.0,0.0,0.0,0.0,0.0,0.0,0.0,0.0,0.0,0.0,0.0,0.0,0.0,0.0,0.0,0.0,0.0,0.0,0.0,0.0,0.0,0.0,0.0,0.0,0.0,0.0,0.0,0.0,0.0,0.0,0.0,0.0,0.0,0.0,0.0,0.0,-1.9655,-2.088,-2.1889,-2.2206,-2.2534,0.0,0.0,0.0,0.0,0.0,0.0,0.0,0.0,0.0,-3.3398,-3.4221,-3.5428,-3.7087,-3.8263,-3.9208,-3.9862,-4.0591,-4.1097,-4.1356,-4.1279,-4.1163,-4.0969,-4.0523,-3.9161,-3.7035,-3.4352,-3.2592,-3.1499,0.0,0.0,0.0,0.0,-2.902,-2.9049,0.0,0.0,0.0,0.0,0.0,0.0,0.0,0.0,0.0,0.0,0.0,0.0,-0.3253,-0.2846,-0.2367,-0.1799,-0.1136,-0.0392,0.0405,0.1101,0.1802,0.2527,0.3257,0.3743,0.3987,0.4165,0.4039,0.3589,0.3548,0.3621,0.3767,0.4146,0.4688,0.5375,0.5875,0.6629,0.7503,0.7775,0.7755,0.7543,0.0,0.0,0.0,0.0,0.0,0.0,0.0,0.0,0.0,0.0,0.0,0.0,0.0,0.0,0.0,0.0,0.0,0.0,0.0,0.0,0.0,0.0,0.0,0.0,0.0,0.0,0.0,0.0,0.0,0.0,0.0,0.0,0.0,0.0,0.0,0.0,0.0,-2.1894,-2.3059,-2.4444,-2.4874,-2.5298,0.0,0.0,0.0,0.0,0.0,0.0,-3.2252,-3.2778,-3.4358,-3.7274,-3.7543,-3.8488,-4.0337,-4.1394,-4.2091,-4.2387,-4.3374,-4.3798,-4.3798,-4.3732,-4.3611,-4.3545,-4.3081,-4.2653,-4.206,-3.8287,-3.6276,-3.5535,-3.4606,-3.3895,-3.3262,-3.2851,-3.2579,-3.2423,0.0,0.0,0.0,0.0,0.0,0.0,0.0,0.0,0.0,0.0,0.0,-0.5876,-0.5478,-0.5357,-0.4957,-0.4104,-0.3241,-0.2339,-0.1336,-0.0408,0.0408,0.1083,0.1569,0.1904,0.2038,0.1984,0.1851,0.1651,0.1698,0.1937,0.2314,0.2578,0.3215,0.4118,0.4587,0.5703,0.7236,0.7438,0.7487,0.7408,0.7408,0.0,0.0,0.0,0.0,0.0,0.0,0.0,0.0,0.0,0.0,0.0,0.0,0.0,0.0,0.0,0.0,0.0,0.0,0.0,0.0,0.0,0.0,0.0,0.0,0.0,0.0,0.0,0.0,0.0,0.0,0.0,0.0,0.0,0.0,0.0,0.0,0.0,0.0,-2.7369,-2.7607,0.0,0.0,0.0,0.0,-3.1006,-3.2336,-3.3769,-3.5222,-3.6454,-3.8015,-3.9935,-4.0574,-4.1778,-4.3734,-4.4001,-4.4481,-4.5095,-4.517,-4.52,-4.52,-4.52,-4.5075,-4.4882,-4.4882,-4.4488,-4.3689,-4.144,-3.9928,-3.8906,-3.8408,-3.744,-3.6343,-3.607,-3.5895,-3.5765,0.0,0.0,0.0,0.0,0.0,0.0,0.0,0.0,-0.6878,-0.713,-0.7845,-0.8183,-0.7826,-0.7687,-0.7365,-0.6702,-0.5722,-0.4754,-0.3836,-0.2701,-0.1863,-0.1397,-0.0645,-0.0219,-0.0215,-0.0382,-0.0516,-0.0635,-0.0501,-0.0286,0.0082,0.0654,0.1361,0.218,0.2952,0.3883,0.4969,0.6244,0.6779,0.6765,0.6995,0.6999,0.0,0.0,0.0,0.0,0.0,0.0,0.0,0.0,0.0,0.0,0.0,0.0,0.0,0.0,0.0,0.0,0.0,0.0,0.0,0.0,0.0,0.0,0.0,0.0,0.0,0.0,0.0,0.0,0.0,0.0,0.0,0.0,0.0,0.0,0.0,0.0,0.0,-2.9704,-3.0179,0.0,-3.1979,-3.2904,-3.3593,-3.3967,-3.5212,-3.6735,-3.8438,-3.8971,-4.0247,-4.2566,-4.2841,-4.3592,-4.4833,-4.5352,-4.5723,-4.5963,-4.6381,-4.6591,-4.6591,-4.6591,-4.6773,-4.7089,-4.6944,-4.6963,-4.7081,-4.5819,-4.3775,-4.1339,-4.0883,-4.0209,-3.9432,-3.8872,-3.8508,-3.8222,0.0,0.0,0.0,0.0,0.0,0.0,0.0,0.0,-0.8592,-0.8897,-0.9836,-1.0332,-0.9942,-0.9982,-0.978,-0.9177,-0.8179,-0.721,-0.6305,-0.5167,-0.4304,-0.3832,-0.2978,-0.2563,-0.2687,-0.2792,-0.2907,-0.3011,-0.2831,-0.2546,-0.2137,-0.1515,-0.0771,0.0088,0.0944,0.1769,0.2624,0.4166,0.5306,0.6081,0.6369,0.6478,0.6475,0.0,0.0,0.0,0.0,0.0,0.0,0.0,0.0,0.0,0.0,0.0,0.0,0.0,0.0,0.0,0.0,0.0,0.0,0.0,0.0,0.0,0.0,0.0,0.0,0.0,0.0,0.0,0.0,0.0,0.0,0.0,0.0,0.0,0.0,-2.8262,-3.0121,-3.2213,-3.2887,-3.3705,-3.4918,-3.5861,-3.658,-3.6968,-3.8231,-3.9657,-4.1193,-4.1602,-4.2707,-4.4626,-4.4727,-4.5165,-4.5963,-4.6426,-4.6651,-4.6651,-4.71,-4.7309,-4.7309,-4.7534,-4.7878,-4.8297,-4.8373,-4.8566,-4.8862,-4.8372,-4.6674,-4.4297,-4.3402,-4.2716,-4.214,-4.1178,-4.0584,-4.0024,0.0,0.0,0.0,0.0,0.0,0.0,0.0,-0.9225,-1.0213,-1.0279,-1.153,-1.2265,-1.1826,-1.2175,-1.2154,-1.145,-1.0513,-0.9583,-0.8664,-0.7712,-0.685,-0.6104,-0.5397,-0.5118,-0.5293,-0.5253,-0.5324,-0.5495,-0.5233,-0.4827,-0.4316,-0.3894,-0.3145,-0.2079,-0.1419,-0.0582,0.0369,0.123,0.3003,0.5242,0.5523,0.5672,0.5741,0.0,0.0,0.0,0.0,0.0,0.0,0.0,0.0,0.0,0.0,0.0,0.0,0.0,0.0,0.0,0.0,0.0,0.0,0.0,0.0,0.0,0.0,0.0,0.0,0.0,0.0,0.0,0.0,0.0,0.0,0.0,0.0,0.0,-2.8858,-3.0739,-3.2882,-3.4905,-3.5712,-3.6582,-3.7696,-3.8374,-3.9083,-3.9939,-4.1355,-4.2563,-4.3414,-4.448,-4.5384,-4.6038,-4.6269,-4.6726,-4.7354,-4.7369,-4.7369,-4.7369,-4.7369,-4.7369,-4.7384,-4.8027,-4.8327,-4.8386,-4.906,-4.9209,-4.8967,-4.8967,-4.8509,-4.7691,-4.6012,-4.5057,-4.4422,-4.3055,-4.2007,-4.1082,0.0,0.0,0.0,0.0,0.0,0.0,0.0,-0.9488,-1.0599,-1.1722,-1.2571,-1.3133,-1.3331,-1.3488,-1.3521,-1.3399,-1.2233,-1.1331,-1.0996,-0.9589,-0.8441,-0.769,-0.7762,-0.7716,-0.7516,-0.7782,-0.7913,-0.7878,-0.7453,-0.717,-0.7013,-0.6266,-0.5518,-0.4774,-0.388,-0.2927,-0.1918,-0.0913,0.0195,0.1423,0.3293,0.4261,0.4569,0.0,0.0,0.0,0.0,0.0,0.0,0.0,0.0,0.0,0.0,0.0,0.0,0.0,0.0,0.0,0.0,0.0,0.0,0.0,0.0,0.0,0.0,0.0,0.0,0.0,0.0,0.0,0.0,0.0,0.0,0.0,-2.851,-3.0365,-3.0508,-3.2988,-3.5189,-3.6345,-3.7965,-3.93,-4.0101,-4.1349,-4.2199,-4.2415,-4.3412,-4.4371,-4.5217,-4.6027,-4.681,-4.7626,-4.8207,-4.8536,-4.8775,-4.8775,-4.8775,-4.8775,-4.8775,-4.8775,-4.8745,-4.8955,-4.9254,-4.9718,-4.9898,-5.0196,-5.0536,-5.0366,-4.9772,-4.8867,-4.7076,-4.585,-4.4973,-4.3739,-4.2311,-4.092,0.0,0.0,0.0,0.0,0.0,0.0,0.0,-1.0254,-1.1391,-1.2705,-1.342,-1.386,-1.402,-1.4168,-1.421,-1.4083,-1.3116,-1.2485,-1.2415,-1.1256,-1.0298,-0.9672,-0.9884,-0.9941,-0.9735,-1.0113,-1.0252,-1.014,-0.9769,-0.9511,-0.9384,-0.8652,-0.8002,-0.7408,-0.6427,-0.5463,-0.4504,-0.3563,-0.2707,-0.1824,-0.0163,0.1491,0.2983,0.3043,0.3004,0.2881,0.2608,0.2236,0.179,0.133,0.0,0.0,0.0,0.0,0.0,0.0,0.0,0.0,0.0,0.0,0.0,0.0,0.0,0.0,0.0,0.0,0.0,0.0,0.0,0.0,0.0,0.0,0.0,0.0,-3.0692,-3.2674,-3.3201,-3.5085,-3.6968,-3.8409,-3.9985,-4.1334,-4.2332,-4.3272,-4.3939,-4.4288,-4.5148,-4.597,-4.6782,-4.7554,-4.8179,-4.8686,-4.912,-4.9314,-4.9314,-4.9314,-4.9314,-4.9314,-4.9314,-4.9314,-4.9329,-4.9553,-4.9883,-5.0211,-5.048,-5.0659,-5.0764,-5.0609,-5.0035,-4.9105,0.0,0.0,0.0,0.0,-4.2262,-4.0997,0.0,0.0,0.0,0.0,0.0,0.0,0.0,-1.1091,-1.2186,-1.3205,-1.3989,-1.44,-1.4243,-1.4465,-1.4458,-1.4097,-1.3535,-1.3165,-1.3138,-1.2705,-1.2271,-1.1861,-1.1907,-1.1952,-1.1966,-1.23,-1.2387,-1.2308,-1.2015,-1.1759,-1.1587,-1.1016,-1.0509,-1.0023,-0.9062,-0.8174,-0.7288,-0.6463,-0.559,-0.4709,-0.415,-0.1951,0.0968,0.0999,0.1017,0.0978,0.0662,0.0336,-0.0028,-0.0647,0.0,0.0,0.0,0.0,0.0,0.0,0.0,0.0,0.0,0.0,0.0,0.0,0.0,0.0,0.0,0.0,0.0,0.0,0.0,0.0,0.0,0.0,0.0,0.0,-3.2901,-3.5088,-3.6292,-3.7163,-3.8431,-4.0627,-4.1767,-4.2931,-4.4265,-4.4512,-4.4906,-4.5798,-4.6636,-4.7406,-4.803,-4.8925,0.0,0.0,0.0,-4.9524,-4.9524,-4.9524,-4.9524,-4.9524,-4.9524,-4.9524,-4.9554,-5.0092,-5.0255,-5.0226,-5.0808,-5.0689,-5.0091,-5.0091,-4.9565,-4.8666,-4.796,-4.6792,-4.5317,-4.3306,-4.2056,-4.1261,0.0,0.0,0.0,0.0,0.0,0.0,0.0,-1.0577,-1.1778,-1.2786,-1.3648,-1.437,-1.4931,-1.4855,-1.4848,-1.5088,-1.4269,-1.3608,-1.3273,-1.371,-1.3977,-1.4008,-1.4012,-1.4098,-1.4257,-1.4482,-1.445,-1.4192,-1.3682,-1.3614,-1.3932,-1.3229,-1.2863,-1.2802,-1.1859,-1.095,-1.0058,-0.9078,-0.8225,-0.7452,-0.6717,-0.4498,-0.1633,-0.1424,-0.1333,-0.1358,-0.1614,-0.186,-0.2179,-0.2724,-0.3117,-0.351,-0.4205,-0.4788,0.0,0.0,0.0,0.0,0.0,0.0,0.0,0.0,0.0,0.0,0.0,0.0,0.0,0.0,0.0,0.0,0.0,0.0,0.0,-3.2895,-3.438,-3.6061,-3.8358,-3.9334,-4.0154,-4.1167,-4.297,-4.4385,-4.5054,-4.5727,-4.652,-4.7377,-4.7836,-4.8342,-4.8985,-4.9643,-5.0001,-5.0001,-5.0571,-5.084,-5.084,-5.084,-5.084,-5.084,-5.084,0.0,-5.0855,-5.0975,-5.0689,-5.0196,-5.033,-5.0062,-4.9449,-4.9449,-4.8834,-4.7804,-4.7044,-4.5867,-4.4518,-4.3266,-4.2289,-4.1511,0.0,0.0,0.0,0.0,0.0,0.0,0.0,-1.0198,-1.1327,-1.2753,-1.3395,-1.3981,-1.476,-1.4706,-1.4655,-1.4786,-1.4646,-1.4384,-1.3982,-1.468,-1.5198,-1.5383,-1.5407,-1.5504,-1.5741,-1.6015,-1.5978,-1.5642,-1.5274,-1.5382,-1.5886,-1.5188,-1.4996,-1.5206,-1.4284,-1.3386,-1.2607,-1.1782,-1.0953,-1.0116,-0.9462,-0.8009,-0.6015,-0.4424,-0.3811,-0.3828,-0.4062,-0.4275,-0.4552,-0.514,-0.5544,-0.5932,-0.6621,-0.7224,-0.7724,0.0,0.0,0.0,0.0,0.0,0.0,0.0,0.0,0.0,0.0,0.0,0.0,0.0,0.0,-2.8338,-2.9983,0.0,-3.3639,-3.47,-3.6275,-3.7835,-3.9305,-4.0708,-4.187,-4.2533,-4.3801,-4.4964,-4.5845,-4.6359,-4.686,-4.7539,-4.8357,-4.897,-4.9299,-5.0197,-5.0689,-5.0689,-5.105,-5.1214,-5.1214,-5.1214,-5.1214,-5.1214,-5.1214,-5.1214,-5.1214,-5.1214,-5.0808,-5.0196,-5.0196,-4.9719,-4.8923,-4.871,-4.8175,-4.7392,-4.6797,-4.5686,-4.4317,-4.3533,-4.2666,-4.1796,0.0,0.0,0.0,0.0,0.0,0.0,0.0,-0.9857,-1.0853,-1.2424,-1.29,-1.3407,-1.4228,-1.4288,-1.4231,-1.4246,-1.4794,-1.5048,-1.4783,-1.5427,-1.6002,-1.6408,-1.6448,-1.6595,-1.687,-1.7243,-1.7265,-1.6925,-1.6723,-1.6914,-1.7421,-1.6905,-1.688,-1.7246,-1.6472,-1.5694,-1.4993,-1.4389,-1.3564,-1.2623,-1.2119,-1.1448,-1.0496,-0.7889,-0.667,-0.6367,-0.6535,-0.6742,-0.6988,-0.7564,-0.7979,-0.8397,-0.9044,-0.9639,-1.021,-1.0687,-1.1347,0.0,0.0,0.0,0.0,0.0,0.0,0.0,0.0,-2.6171,-2.7129,-2.9562,-3.0862,-3.1982,-3.3167,-3.4967,-3.6305,-3.6343,-3.8109,-3.9639,-4.0049,-4.1736,-4.3189,-4.3899,-4.4471,-4.527,-4.6491,-4.6639,-4.6903,-4.7445,-4.864,-4.9359,-4.9449,-5.0571,-5.1214,-5.1214,-5.1214,-5.1214,-5.1214,-5.1214,-5.1214,-5.1214,-5.1214,-5.1214,-5.1214,-5.1214,-5.0795,-4.9986,-4.9778,-4.9239,-4.8464,-4.8149,-4.7767,-4.7309,-4.6902,-4.5866,-4.4537,-4.3851,-4.2991,-4.2079,0.0,0.0,0.0,0.0,0.0,0.0,0.0,0.0,-1.0451,-1.0917,-1.1769,-1.268,-1.3601,-1.3687,-1.3873,-1.434,-1.477,-1.5124,-1.5377,-1.5713,-1.6266,-1.7142,-1.7343,-1.7568,-1.7838,-1.8366,-1.8461,-1.8094,-1.7914,-1.7975,-1.8284,-1.8299,-1.8404,-1.8597,-1.8415,-1.7947,-1.7213,-1.6586,-1.5858,-1.5066,-1.4325,-1.3825,-1.3326,-1.2046,-1.0526,-0.9035,-0.8817,-0.9039,-0.9431,-0.9625,-0.9982,-1.0495,-1.127,-1.2059,-1.2738,-1.2979,-1.3917,-1.5041,-1.5586,-1.7887,-2.0803,-2.3549,-2.4802,-2.6192,0.0,-3.0344,-3.1096,-3.3037,-3.4191,-3.508,-3.5783,-3.7001,-3.8107,-3.8613,-3.9606,-4.0602,-4.1446,-4.2659,-4.3758,-4.4567,-4.5084,-4.5703,-4.6535,-4.6756,-4.7213,-4.8132,-4.8895,-4.9508,-5.0046,-5.0825,-5.1214,-5.1214,-5.1214,-5.1214,-5.1214,-5.1214,-5.1214,-5.1214,-5.1214,-5.1214,-5.1214,-5.1214,-5.0541,-4.9344,-4.8352,-4.7966,-4.8071,-4.8037,-4.7837,-4.7538,-4.7294,-4.6447,-4.523,-4.4026,-4.3088,-4.2302,0.0,0.0,0.0,0.0,0.0,0.0,0.0,0.0,0.0,-1.0658,-1.1235,-1.1918,-1.2866,-1.3403,-1.3952,-1.4581,-1.5038,-1.5444,-1.5827,-1.6146,-1.6736,-1.7718,-1.7569,-1.7835,-1.8574,-1.8644,-1.8801,-1.8997,-1.8793,-1.8874,-1.9196,-1.9055,-1.9097,-1.9271,-1.9314,-1.9007,-1.8406,-1.819,-1.764,-1.6867,-1.5924,-1.5262,-1.4735,-1.3858,-1.3005,-1.2163,-1.1145,-1.0923,0.0,-1.1685,-1.2108,-1.2585,-1.3442,-1.4175,-1.4902,-1.5762,-1.6626,-1.7683,-1.9631,-2.1964,-2.4409,-2.6609,-2.835,-3.009,-3.2409,-3.3494,-3.4528,-3.6416,-3.7262,-3.7831,-3.8472,-3.9611,-4.036,-4.0037,-4.0934,-4.1908,-4.2507,-4.3229,-4.4092,-4.531,-4.573,-4.609,-4.655,-4.68,-4.7138,-4.7698,-4.8327,-4.882,-4.909,-5.0077,-5.0599,-5.0599,-5.102,-5.1214,-5.1214,-5.1214,-5.1214,-5.1214,-5.1214,-5.1214,-5.1214,-5.1214,-5.0588,-4.9404,-4.8412,-4.8133,-4.837,-4.8526,-4.8427,-4.816,-4.7779,-4.7032,-4.6001,-4.4694,-4.3471,-4.2413,0.0,0.0,0.0,0.0,0.0,0.0,0.0,0.0,0.0,0.0,-1.0609,-1.1113,-1.2091,-1.2954,-1.3742,-1.4451,-1.4773,-1.5218,-1.5865,-1.6041,-1.6587,-1.7621,-1.7426,-1.7702,-1.8622,-1.8577,-1.8759,-1.9171,-1.898,-1.9108,-1.9546,-1.9448,-1.9506,-1.9765,-1.9935,-1.9731,-1.9225,-1.912,-1.8728,-1.801,-1.7105,-1.6321,-1.5652,-1.4917,-1.4514,-1.42,-1.3061,-1.2713,-1.2912,-1.3531,-1.4066,-1.4574,-1.536,-1.6188,-1.7097,-1.8208,-1.9336,-2.0896,-2.3917,-2.5876,-2.7628,-2.9899,-3.1732,-3.3462,-3.5393,-3.6408,-3.7408,-3.8916,-3.9512,-3.9903,-4.0352,-4.125,-4.1771,-4.1205,-4.1972,-4.2793,-4.3171,-4.38,-4.4577,-4.5606,-4.6167,-4.658,-4.6771,-4.6931,-4.7062,-4.7309,-4.7923,-4.8282,-4.8282,-4.9359,-5.0001,-5.0181,-5.0659,-5.0988,-5.1214,-5.1214,-5.1214,-5.1214,-5.1214,-5.1214,-5.1214,-5.1081,-5.0546,-4.9627,-4.8938,-4.8664,-4.8718,-4.898,-4.8939,-4.8661,-4.8172,-4.7465,-4.6565,-4.5539,-4.4244,-4.2971,0.0,0.0,0.0,0.0,0.0,0.0,0.0,0.0,0.0,0.0,0.0,0.0,0.0,-1.2155,-1.2962,-1.3756,-1.3664,-1.4093,-1.5336,-1.5135,-1.5434,-1.6501,-1.686,-1.7251,-1.7727,-1.8186,-1.8377,-1.8346,-1.8127,-1.835,-1.8935,-1.9388,-1.9756,-2.0098,-2.0433,-2.0293,-1.9751,-1.9284,-1.8793,-1.8235,-1.7749,-1.7039,-1.6197,-1.5463,-1.4886,-1.4476,-1.4297,-1.4507,-1.4932,-1.5085,-1.566,-1.6413,-1.6959,-1.8133,-1.9407,-1.9963,-2.2117,-2.5019,-2.8246,-2.943,-3.0571,-3.3895,-3.5063,-3.6045,-3.8587,-3.9281,-3.9585,-4.0205,-4.0663,-4.0946,-4.0967,-4.1272,-4.1718,-4.2263,-4.2664,-4.3005,-4.3284,-4.4369,-4.5172,-4.5201,-4.6415,-4.7266,-4.7266,-4.7266,-4.7309,-4.7309,-4.7923,-4.8282,-4.8282,-4.8925,-4.9583,-5.0166,-5.0211,-5.0524,-5.1214,-5.1214,-5.1214,-5.1214,-5.1214,-5.1214,-5.1199,-5.0786,-5.0336,-4.9863,-4.9641,-4.9319,-4.8996,-4.921,-4.9169,-4.8955,-4.8469,-4.7737,-4.6859,-4.6502,-4.5539,-4.4276,0.0,0.0,0.0,0.0,0.0,0.0,0.0,0.0,0.0,0.0,0.0,0.0,0.0,0.0,0.0,0.0,-1.3395,-1.3957,-1.4691,-1.5016,-1.5455,-1.6069,-1.6474,-1.6898,-1.7358,-1.7869,-1.8319,-1.8708,-1.8589,-1.8547,-1.8577,-1.868,-1.8711,-1.8651,-1.9049,-1.9011,-1.8688,-1.8783,-1.8577,-1.812,-1.7408,-1.6834,-1.63,-1.5689,-1.5347,-1.5188,0.0,-1.5159,-1.4938,-1.5781,-1.6527,-1.7304,-1.8333,-1.9612,-2.1152,-2.3335,-2.587,-2.8339,-3.0092,-3.2215,-3.4283,-3.5608,-3.7335,-3.8942,-3.994,-4.0653,-4.1248,-4.1806,-4.1895,-4.1858,-4.1856,-4.2352,-4.2619,-4.2143,-4.285,-4.3472,-4.3688,-4.4218,-4.4971,-4.6017,-4.6544,-4.7156,-4.7876,-4.7837,-4.7752,-4.7752,-4.7963,-4.8013,-4.7841,-4.8457,-4.9089,-4.9568,-5.0017,-5.051,-5.1214,-5.1214,-5.1214,-5.1214,-5.1214,-5.1214,-5.1199,-5.097,-5.0773,-5.065,-5.0562,-5.0514,-5.0491,-5.0303,-5.0213,-5.009,-4.962,-4.8959,-4.8171,-4.7709,-4.71,-4.6238,0.0,0.0,0.0,0.0,0.0,0.0,0.0,0.0,0.0,0.0,0.0,0.0,0.0,0.0,0.0,0.0,0.0,-1.3034,-1.3585,-1.4186,-1.4695,-1.5098,-1.5554,-1.6034,-1.6561,-1.682,-1.7142,-1.7502,-1.7439,-1.7418,-1.7432,-1.7377,-1.751,-1.7762,-1.7951,-1.8056,-1.8108,-1.8273,-1.8172,-1.7819,-1.6968,-1.6327,-1.5834,-1.5204,-1.484,0.0,-1.5253,-1.5177,-1.5073,-1.6619,-1.759,-1.8396,-1.9902,-2.1757,-2.3964,-2.6893,-2.9177,-3.1125,-3.3027,-3.502,-3.6866,-3.7965,-3.9481,-4.0804,-4.1253,-4.1563,-4.1846,-4.2172,-4.1807,-4.1468,-4.1518,-4.1876,-4.2129,-4.1957,-4.2541,-4.3195,-4.3784,-4.4107,-4.4775,-4.6214,-4.6743,-4.7345,-4.8309,-4.8453,-4.8385,-4.8133,-4.8049,-4.7922,-4.7752,-4.83,-4.8832,-4.9374,-4.9943,-5.051,-5.1214,-5.1214,-5.1214,-5.1214,-5.1214,-5.1214,-5.1199,-5.1318,-5.1273,-5.1134,-5.1395,-5.1526,-5.1555,-5.1379,-5.1247,-5.1124,-5.0653,-4.9974,-4.923,-4.8753,-4.8129,-4.725,0.0,0.0,0.0,0.0,0.0,0.0,0.0,0.0,0.0,0.0,0.0,0.0,0.0,0.0,0.0,0.0,0.0,0.0,-1.2093,-1.2704,-1.323,-1.3649,-1.4169,-1.4742,-1.5352,-1.5207,-1.5086,-1.5016,-1.4946,-1.518,-1.5671,-1.5671,-1.6272,-1.7355,-1.7153,-1.7391,-1.79,-1.765,-1.7458,-1.7252,-1.6366,-1.5584,-1.4871,-1.4096,-1.3586,-1.336,-1.417,-1.4756,-1.5487,-1.762,-1.885,-1.9845,-2.173,-2.451,-2.7617,-3.04,-3.1962,-3.3507,-3.684,-3.7862,-3.8509,-4.087,-4.1465,-4.1718,-4.2515,-4.2099,-4.1483,-4.1335,-4.0533,-3.988,-3.9944,-3.9948,-4.0338,-4.1626,-4.1753,-4.2187,-4.3557,-4.4026,-4.4662,-4.593,-4.6971,-4.7835,-4.8584,-4.9072,-4.9087,-4.8458,-4.8221,-4.811,-4.8095,-4.8475,-4.9024,-4.9628,-5.0004,-5.0556,-5.1214,-5.1214,-5.1214,-5.1214,-5.1214,-5.1214,-5.1214,-5.1756,-5.1759,-5.1388,-5.2138,-5.2323,-5.2112,-5.2343,-5.2286,-5.2023,-5.1544,-5.0839,-5.0045,-4.9695,-4.874,-4.7412,0.0,0.0,0.0,0.0,0.0,0.0,0.0,0.0,0.0,0.0,0.0,0.0,0.0,0.0,0.0,0.0,0.0,0.0,-1.1292,-1.1924,-1.2499,-1.3019,-1.3601,-1.4187,-1.4777,-1.524,-1.5395,-1.5213,-1.5203,-1.5195,-1.5172,-1.5172,-1.5291,-1.5483,-1.5419,-1.5413,-1.5405,-1.5332,-1.5219,-1.5032,-1.4773,-1.4513,-1.424,-1.4036,-1.3948,-1.4065,-1.4918,-1.5489,-1.6136,-1.8035,-2.041,-2.2897,-2.4836,-2.6637,-2.8698,-3.1992,-3.4058,-3.5765,-3.7933,-3.9822,-4.1364,-4.2044,-4.2599,-4.2879,-4.2548,-4.2208,-4.1558,-4.0183,-3.9626,-3.9082,-3.8119,-3.8546,-3.9115,-3.9358,-4.0734,-4.2075,-4.295,-4.3664,-4.4796,-4.6671,-4.7019,-4.7672,-4.9191,-4.9437,-4.9736,-5.0254,-4.9957,-4.9583,-4.9205,-4.9806,-5.0218,-5.0321,-5.0457,-5.0725,-5.1214,-5.1214,-5.1214,-5.1214,-5.1214,-5.1214,-5.1214,-5.1756,-5.2018,-5.2092,-5.2805,-5.3295,-5.3518,-5.3264,-5.3099,-5.3,-5.2524,-5.1852,-5.1114,-5.0644,-4.9794,-4.8673,0.0,0.0,0.0,0.0,0.0,0.0,0.0,0.0,0.0,0.0,0.0,0.0,0.0,0.0,0.0,0.0,0.0,0.0,0.0,-1.1054,-1.1536,-1.1777,-1.2368,-1.2813,-1.3095,-1.3455,-1.3573,-1.3466,-1.3466,-1.3368,-1.3205,-1.3526,-1.3805,-1.4021,-1.4319,-1.4578,-1.4764,-1.4735,-1.464,0.0,0.0,-1.4016,-1.387,-1.3584,-1.3518,-1.3695,-1.4565,-1.6066,-1.785,-1.9321,-2.1945,-2.4905,-2.653,-2.8577,-3.0931,-3.3747,-3.6074,-3.812,-3.9868,-4.1576,-4.2973,-4.3322,-4.3387,-4.3135,-4.2279,-4.1403,-4.0273,-3.8421,-3.763,-3.699,-3.6096,-3.6747,-3.7495,-3.779,-3.9395,-4.0945,-4.1933,-4.2832,-4.4272,-4.6483,-4.7021,-4.7817,-4.9416,-5.004,-5.0548,-5.1104,-5.0715,-5.0471,-5.0516,-5.0901,-5.1107,-5.1089,-5.1061,-5.1072,-5.1214,-5.1214,-5.1214,-5.1214,-5.1214,-5.1214,-5.1214,-5.1756,-5.2155,-5.2532,-5.3113,-5.3785,-5.4386,-5.4114,-5.3997,-5.3955,-5.3518,-5.28,-5.1995,-5.1236,-5.0283,-4.9114,0.0,0.0,0.0,0.0,0.0,0.0,0.0,0.0,0.0,0.0,0.0,0.0,0.0,0.0,0.0,0.0,0.0,0.0,0.0,0.0,-1.0522,-1.0497,-1.0965,-1.1233,-1.1206,-1.1131,-1.1099,-1.108,-1.1104,-1.103,-1.0938,-1.1583,-1.2191,-1.2769,-1.3335,-1.3966,-1.4544,-1.4486,-1.4445,-1.4338,-1.3736,-1.3463,-1.3368,0.0,-1.2713,-1.2849,-1.3956,-1.6558,-1.9653,-2.0787,-2.3264,-2.6135,-2.7426,-3.022,-3.3381,-3.5437,-3.7899,-4.0317,-4.1946,-4.3054,-4.386,-4.4386,-4.3881,-4.2945,-4.1702,-4.0151,-3.8391,-3.6399,-3.5186,-3.436,-3.3905,-3.4623,-3.5577,-3.6465,-3.7901,-3.9418,-4.082,-4.1962,-4.352,-4.5825,-4.6971,-4.809,-4.9346,-5.058,-5.1383,-5.1479,-5.122,-5.1291,-5.1905,-5.1973,-5.1968,-5.1836,-5.1698,-5.1494,-5.1261,-5.1214,-5.1214,-5.1214,-5.1214,-5.1214,-5.1214,-5.1756,-5.2246,-5.2667,-5.3201,-5.3915,-5.4755,-5.4771,-5.4813,-5.4771,-5.4316,-5.3552,-5.2622,-5.1665,-5.0522,-4.9297,0.0,0.0,0.0,0.0,0.0,0.0,0.0,0.0,0.0,0.0,-0.7123,-0.7412,0.0,0.0,0.0,0.0,0.0,0.0,0.0,0.0,0.0,-1.0401,-1.0407,-1.0661,-1.1196,-1.1137,-1.1073,-1.1014,-1.1073,-1.1059,-1.0985,-1.1179,-1.1291,-1.1357,-1.1473,-1.1589,-1.1715,-1.169,-1.1683,-1.1658,-1.1486,-1.1413,-1.1463,-1.2008,0.0,0.0,-1.4847,-1.7043,-1.9126,-2.0841,-2.3674,-2.6767,-2.8524,-3.1097,-3.398,-3.6464,-3.9147,-4.1484,-4.2508,-4.3915,-4.4891,-4.4198,-4.3825,-4.2972,-4.0521,-3.9032,-3.7474,-3.4929,-3.36,-3.2579,-3.1524,-3.2355,-3.3495,-3.4327,-3.6395,-3.8593,-4.045,-4.2029,-4.3656,-4.5421,-4.678,-4.7902,-4.871,-5.0454,-5.1797,-5.2429,-5.3061,-5.3323,-5.3137,-5.3449,-5.3309,-5.2544,-5.1896,-5.1587,-5.1541,-5.1308,-5.1214,-5.1214,-5.1214,-5.1214,-5.1214,-5.1756,-5.2155,-5.2397,-5.3113,-5.3813,-5.4497,-5.4713,-5.4813,-5.4771,-5.447,-5.3754,-5.2831,-5.2079,-5.1122,-5.0061,0.0,0.0,0.0,0.0,0.0,0.0,0.0,-0.3842,-0.4529,-0.4898,-0.5245,-0.5846,-0.6885,-0.7059,-0.7271,0.0,0.0,0.0,0.0,0.0,0.0,0.0,0.0,0.0,-0.9942,-0.9858,-0.9782,-0.9746,0.0,-0.9828,-0.9805,-1.0269,-1.0484,-1.0504,-1.0877,-1.1066,-1.1095,-1.1095,-1.1102,-1.1099,-1.1116,-1.1085,-1.1104,0.0,0.0,0.0,-1.4714,-1.6631,-1.8466,-2.0353,-2.3006,-2.5912,-2.8166,-3.1128,-3.4188,-3.64,-3.8953,-4.1378,-4.2745,-4.3635,-4.4209,-4.4181,-4.3015,-4.1296,-3.9029,-3.7341,-3.5338,-3.2242,-3.1102,-3.0459,-2.9741,-3.0287,-3.1273,-3.2691,-3.4606,-3.6525,-3.8226,-4.0178,-4.2167,-4.4153,-4.588,-4.7456,-4.8969,-5.089,-5.2365,-5.3149,-5.4277,-5.4761,-5.4326,-5.4168,-5.3699,-5.2862,-5.2261,-5.1849,-5.1587,-5.1199,-5.1011,-5.1011,-5.0899,-5.0819,-5.0867,-5.1369,-5.1772,-5.2109,-5.2876,-5.3596,-5.4242,-5.4513,-5.4597,-5.4555,-5.4327,-5.3711,-5.292,-5.2155,-5.1356,-5.046,0.0,0.0,0.0,0.0,0.0,0.0,0.0,-0.2693,-0.3205,-0.3575,-0.3847,-0.4585,-0.6117,-0.6376,-0.6542,0.0,0.0,0.0,0.0,0.0,0.0,0.0,0.0,0.0,-0.8722,0.0,0.0,-0.852,-0.8585,0.0,0.0,0.0,0.0,0.0,-1.0343,-1.0629,-1.0717,-1.0723,-1.0733,0.0,0.0,-1.0805,0.0,0.0,0.0,0.0,0.0,-1.605,-1.7733,-1.9577,-2.1971,-2.4598,-2.687,-3.036,-3.4002,-3.5835,-3.8399,-4.0957,-4.2383,-4.2962,-4.3241,-4.352,-4.1895,-3.967,-3.7471,-3.5473,-3.3191,-3.0056,-2.8904,-2.8398,-2.8142,-2.8506,-2.9437,-3.1185,-3.2949,-3.4643,-3.6273,-3.8454,-4.069,-4.2808,-4.4882,-4.6951,-4.899,-5.102,-5.2647,-5.3579,-5.5037,-5.5685,-5.5262,-5.4639,-5.4001,-5.3318,-5.2742,-5.2215,-5.1757,-5.1199,-5.0822,-5.0728,-5.0519,-5.0405,-5.0453,-5.0837,-5.1293,-5.1803,-5.2517,-5.3246,-5.3872,-5.42,-5.4327,-5.4327,-5.4215,-5.3726,-5.3009,-5.2382,-5.165,-5.0855,0.0,0.0,0.0,0.0,0.0,0.0,0.0,-0.2307,-0.2825,-0.3281,-0.3565,-0.3873,-0.4234,-0.4488,-0.4966,0.0,0.0,0.0,0.0,0.0,0.0,0.0,0.0,0.0,0.0,0.0,0.0,-0.8231,-0.8299,0.0,0.0,0.0,0.0,0.0,0.0,-0.9048,-0.9123,-0.9179,0.0,0.0,0.0,0.0,0.0,0.0,0.0,0.0,0.0,-1.5682,-1.6878,-1.8636,-2.1016,-2.3425,-2.4586,-2.8575,-3.3178,-3.5056,-3.8067,-4.0827,-4.0977,-4.2188,-4.2988,-4.1359,-4.0665,-3.948,-3.6015,-3.3772,-3.1842,-2.9814,-2.8007,-2.6739,-2.6474,-2.7338,-2.8482,-2.9622,-3.1835,-3.4125,-3.6207,-3.8466,-4.042,-4.1786,-4.4322,-4.6416,-4.7679,-5.0205,-5.2219,-5.3347,-5.5077,-5.595,-5.5677,-5.5262,-5.4765,-5.4269,-5.3406,-5.2697,-5.2261,-5.1526,-5.0947,-5.0534,-5.0231,-5.0135,-5.0135,-5.0379,-5.0745,-5.1308,-5.2018,-5.2652,-5.3142,-5.3829,-5.413,-5.413,-5.4327,-5.397,-5.3334,-5.3009,-5.2336,-5.1433,0.0,0.0,0.0,0.0,0.0,0.0,-0.1244,-0.1936,-0.2529,-0.2999,-0.3331,-0.3601,-0.3796,-0.3993,-0.4298,-0.4815,0.0,0.0,0.0,0.0,0.0,0.0,0.0,0.0,0.0,0.0,-0.7888,-0.7888,-0.7966,0.0,0.0,0.0,0.0,0.0,0.0,-0.8735,-0.884,-0.8874,0.0,0.0,0.0,0.0,0.0,0.0,0.0,0.0,0.0,0.0,-1.592,-1.7722,-1.9401,-2.1199,-2.3742,-2.6437,-2.9257,-3.2275,-3.5296,-3.7901,-3.8946,-3.9737,-4.019,-3.9893,-3.8569,-3.6668,-3.4082,-3.2014,-2.9973,-2.7605,-2.6385,-2.5684,-2.54,-2.6009,-2.6908,-2.798,-2.9906,-3.1825,-3.3445,-3.5975,-3.8309,-3.9982,-4.2731,-4.5218,-4.7053,-4.9561,-5.2067,-5.4418,-5.5667,-5.6346,-5.6469,-5.5957,-5.5118,-5.4,-5.3211,-5.2275,-5.1099,-5.059,-5.0102,-4.9674,-4.9621,-4.9551,-4.9389,-4.9634,-5.0009,-5.0552,-5.1137,-5.1742,-5.2382,-5.3009,-5.3334,-5.3465,-5.3711,-5.3552,-5.3188,-5.2922,-5.2503,-5.1941,0.0,0.0,0.0,0.0,0.0,-0.0177,-0.0695,-0.1516,-0.2256,-0.2744,-0.3084,-0.3369,-0.3595,-0.3728,-0.3904,-0.4163,-0.5016,0.0,0.0,0.0,0.0,0.0,0.0,0.0,0.0,0.0,-0.7568,-0.7524,-0.7591,-0.7695,0.0,0.0,-0.8114,-0.8263,0.0,0.0,0.0,0.0,0.0,0.0,0.0,0.0,0.0,0.0,0.0,0.0,0.0,0.0,0.0,0.0,0.0,-1.9565,-2.2122,-2.3956,-2.5952,-2.9976,-3.2878,-3.5108,-3.6586,-3.7197,-3.7455,-3.7705,-3.6308,-3.4335,-3.2203,-3.0429,-2.8521,-2.607,-2.5184,-2.4782,-2.4521,-2.5036,-2.5809,-2.6692,-2.8453,-3.0211,-3.1607,-3.4096,-3.6582,-3.8754,-4.1504,-4.4108,-4.6471,-4.935,-5.2211,-5.4968,-5.5917,-5.6603,-5.7063,-5.6487,-5.5503,-5.4116,-5.3414,-5.2229,-5.0506,-5.0005,-4.9478,-4.8978,-4.885,-4.8723,-4.8695,-4.876,-4.9108,-4.9634,-5.0124,-5.0698,-5.1248,-5.1957,-5.2366,-5.2592,-5.292,-5.304,-5.2937,-5.2758,-5.2503,-5.2215,0.0,0.0,0.0,0.0,0.0,0.0,-0.0008,-0.1036,-0.1992,-0.253,-0.283,-0.3103,-0.337,-0.3518,-0.369,-0.388,-0.4823,0.0,0.0,0.0,0.0,0.0,0.0,0.0,0.0,0.0,-0.7238,-0.7107,-0.7171,-0.7274,-0.7407,-0.762,-0.7775,-0.7918,0.0,0.0,0.0,0.0,0.0,0.0,0.0,0.0,0.0,0.0,0.0,0.0,0.0,0.0,0.0,0.0,0.0,0.0,0.0,-2.1084,-2.4137,-2.8749,-3.1395,-3.3032,-3.3896,-3.4828,-3.5303,-3.4375,-3.4037,-3.3206,-3.0544,-2.9087,-2.7783,-2.5894,-2.4713,-2.3953,-2.3761,-2.4589,-2.5464,-2.5939,-2.7865,-2.9896,-3.156,-3.3535,-3.5813,-3.8504,-4.089,-4.3285,-4.5784,-4.9634,-5.2739,-5.4569,-5.5708,-5.6592,-5.7252,-5.6804,-5.6016,-5.5027,-5.4325,-5.3038,-5.0995,-5.0085,-4.9295,-4.8677,-4.7903,-4.7737,-4.8078,-4.7852,-4.8004,-4.8531,-4.9022,-4.9366,-4.9722,-5.0778,-5.1341,-5.1573,-5.2109,-5.2457,-5.2713,-5.2713,-5.2503,-5.2306,0.0,0.0,0.0,0.0,0.0,0.0,0.0,-0.0713,-0.1515,-0.2229,-0.2601,-0.2901,-0.3162,-0.3353,-0.3532,-0.3682,-0.4199,0.0,0.0,0.0,0.0,0.0,0.0,0.0,0.0,0.0,-0.6798,-0.6621,-0.6638,-0.6723,-0.686,-0.7101,-0.73,-0.7441,-0.7702,-0.7911,0.0,0.0,0.0,0.0,0.0,0.0,-0.9052,0.0,0.0,0.0,0.0,0.0,0.0,0.0,0.0,0.0,0.0,0.0,0.0,-2.4296,-2.7104,-2.9369,-3.0247,-3.1132,-3.1729,-3.1374,-3.0826,-2.9945,-2.8399,-2.6797,-2.5272,-2.3989,-2.3328,-2.29,-2.2649,-2.4048,-2.5169,-2.4933,-2.6968,-2.8891,-2.9879,-3.2133,-3.45,-3.6634,-4.0244,-4.3751,-4.6786,-4.9233,-5.1636,-5.4041,-5.5385,-5.6453,-5.7252,-5.7043,-5.6222,-5.4708,-5.3574,-5.2027,-5.0053,-4.9442,-4.8596,-4.7605,-4.7524,-4.7376,-4.72,-4.7159,-4.7353,-4.7699,-4.7838,-4.8151,-4.8574,-4.945,-4.9999,-5.0287,-5.0981,-5.1464,-5.1711,-5.2063,-5.2231,-5.2306,0.0,0.0,0.0,0.0,0.0,0.0,0.0,-0.0353,-0.0986,-0.1997,-0.2393,-0.2683,-0.2926,-0.3124,-0.3327,-0.3506,-0.3755,0.0,0.0,0.0,0.0,0.0,0.0,0.0,0.0,-0.664,-0.6472,-0.6248,-0.6224,-0.6266,-0.6376,-0.6592,-0.6802,-0.6994,-0.727,-0.7523,0.0,0.0,0.0,0.0,0.0,0.0,-0.8936,0.0,0.0,0.0,0.0,0.0,0.0,0.0,0.0,0.0,0.0,0.0,0.0,0.0,-2.306,-2.5209,-2.7169,-2.8119,-2.8619,-2.8913,-2.8531,-2.7754,-2.6474,-2.5249,-2.3979,-2.2648,-2.2437,-2.2425,-2.2154,-2.3762,-2.5057,-2.4847,-2.6658,-2.8441,-2.9441,-3.1409,-3.3834,-3.6825,-4.059,-4.408,-4.7032,-4.8776,-5.0837,-5.3522,-5.5067,-5.6204,-5.6908,-5.6782,-5.6056,-5.4768,-5.3563,-5.1967,-4.9979,-4.9306,-4.846,-4.7373,-4.717,-4.6833,-4.6409,-4.6293,-4.6202,-4.6202,-4.6487,-4.6761,0.0,-4.8038,-4.8639,-4.8923,-4.9737,-5.0379,-5.0793,-5.1354,-5.1818,-5.2185,0.0,0.0,0.0,0.0,0.0,0.0,0.0,-0.0026,-0.0503,-0.1763,-0.2191,-0.2455,-0.2668,-0.2863,-0.309,-0.3357,0.0,0.0,0.0,0.0,0.0,0.0,0.0,0.0,0.0,-0.6199,-0.6203,-0.597,-0.5891,-0.5891,-0.5952,-0.6094,-0.6286,-0.6557,-0.6764,-0.7056,0.0,0.0,0.0,0.0,0.0,0.0,0.0,0.0,0.0,0.0,0.0,0.0,0.0,0.0,0.0,0.0,0.0,0.0,0.0,0.0,0.0,0.0,0.0,-2.5557,-2.5902,-2.6731,-2.6827,-2.6294,-2.4673,-2.4153,0.0,-2.1844,-2.198,-2.2332,-2.2125,-2.3676,-2.509,-2.5442,-2.6895,-2.854,-3.0053,-3.1489,-3.4039,-3.853,-4.1532,-4.4147,-4.6519,-4.8206,-5.0273,-5.2903,-5.4576,-5.5725,-5.6247,-5.6039,-5.5639,-5.5108,-5.4205,-5.2715,-5.0631,-4.9718,-4.8809,-4.7852,-4.686,-4.6196,-4.5825,-4.5302,-4.4829,-4.4388,-4.5081,-4.5299,-4.5277,-4.6586,-4.727,-4.7615,-4.8431,-4.9227,-4.9931,-5.0508,-5.1199,-5.1926,0.0,0.0,0.0,0.0,0.0,0.0,0.0,0.0,0.0,0.0,-0.1781,-0.2262,-0.2525,-0.2726,-0.2953,0.0,0.0,0.0,0.0,0.0,0.0,0.0,0.0,0.0,0.0,-0.5659,-0.5597,-0.5697,-0.5519,-0.5454,-0.5462,-0.5601,-0.5775,-0.6002,-0.6298,-0.674,-0.7266,0.0,0.0,0.0,0.0,0.0,0.0,0.0,0.0,0.0,-1.0882,-1.1512,0.0,0.0,0.0,0.0,0.0,0.0,0.0,0.0,-1.7539,-1.8598,-2.0255,0.0,-2.2866,-2.318,-2.3143,-2.2949,0.0,-2.1839,-2.1343,-2.1414,-2.1398,-2.1473,-2.1872,-2.3576,-2.5032,-2.536,-2.7379,-2.9388,-3.0831,-3.3813,-3.6591,-3.865,-4.091,-4.3037,-4.4976,-4.6677,-4.8686,-5.1077,-5.2521,-5.3786,-5.4874,-5.5017,-5.5111,-5.5091,-5.4328,-5.3193,-5.1643,-5.049,-4.939,-4.834,-4.7496,-4.6809,-4.6158,-4.5546,-4.5089,-4.4815,-4.438,-4.4445,-4.4847,-4.545,-4.6073,-4.6728,-4.7428,-4.8142,-4.8916,-4.9625,-5.0412,-5.1078,0.0,0.0,0.0,0.0,0.0,0.0,0.0,0.0,0.0,0.0,0.0,0.0,0.0,0.0,0.0,0.0,0.0,0.0,0.0,0.0,0.0,0.0,0.0,0.0,-0.5016,-0.5175,-0.5246,-0.5241,-0.5219,-0.5175,-0.5117,-0.5224,-0.5376,-0.5593,-0.6054,-0.6514,-0.6947,-0.7237,-0.7545,0.0,-0.8109,0.0,0.0,0.0,0.0,0.0,-1.0787,-1.1371,0.0,-1.3104,-1.3614,-1.3718,0.0,0.0,0.0,0.0,-1.6254,-1.7117,-1.81,-1.9718,-2.1225,-2.174,-2.1815,-2.1654,-2.1245,-2.1023,-2.0889,-2.0814,-2.121,-2.1748,-2.2388,-2.3863,-2.5335,-2.6387,-2.8113,-3.0158,-3.253,-3.5657,-3.802,-3.8971,-4.1122,-4.308,-4.4497,-4.619,-4.8074,-5.0253,-5.17,-5.2905,-5.389,-5.4406,-5.4702,-5.4825,-5.4348,-5.355,-5.2381,-5.1463,-5.0397,-4.9215,-4.8347,-4.742,-4.6483,-4.5751,-4.5064,-4.4511,-4.4108,-4.3916,-4.3957,-4.4659,-4.5165,-4.5512,-4.6385,-4.7105,-4.7782,-4.8262,-4.903,-4.9834,0.0,0.0,0.0,0.0,0.0,0.0,0.0,0.0,0.0,0.0,0.0,0.0,0.0,0.0,0.0,0.0,0.0,0.0,0.0,0.0,0.0,0.0,0.0,-0.4289,-0.4123,-0.4735,-0.4969,-0.4786,-0.4968,-0.4991,-0.4863,-0.4902,-0.5049,-0.5301,-0.5845,-0.626,-0.657,-0.6881,-0.7221,-0.7568,-0.7862,0.0,0.0,0.0,0.0,0.0,0.0,0.0,0.0,-1.2951,-1.3506,-1.3603,-1.3595,0.0,0.0,0.0,0.0,0.0,-1.7047,-1.8564,-2.009,-2.1059,-2.1286,-2.1131,-2.0522,-2.0862,-2.1141,-2.0585,-2.1493,-2.2597,-2.3259,-2.4545,-2.607,-2.7845,-2.942,-3.154,-3.4701,-3.7266,-3.902,-3.9604,-4.1796,-4.3616,-4.4484,-4.6047,-4.7822,-4.9759,-5.1179,-5.2257,-5.3036,-5.3827,-5.4329,-5.4434,-5.4335,-5.3881,-5.3009,-5.24,-5.1537,-5.0358,-4.9296,-4.8247,-4.7116,-4.6211,-4.5278,-4.4322,-4.4215,-4.371,-4.3175,-4.4037,-4.4347,-4.4309,-4.5234,-4.5948,-4.6452,-4.6729,-4.7411,-4.8244,0.0,0.0,0.0,0.0,0.0,0.0,0.0,0.0,0.0,0.0,0.0,0.0,0.0,0.0,0.0,0.0,0.0,0.0,0.0,0.0,0.0,0.0,-0.3735,-0.3885,-0.4179,-0.4346,-0.4527,-0.4715,-0.481,-0.4802,-0.4722,-0.4624,-0.4774,-0.5146,-0.5471,-0.5852,-0.6281,-0.6561,-0.6896,-0.7295,-0.768,0.0,0.0,0.0,0.0,0.0,0.0,0.0,0.0,-1.2307,-1.3037,-1.3595,-1.3528,0.0,0.0,0.0,0.0,0.0,-1.6133,-1.7153,-1.8164,-1.9163,-1.9405,-1.9567,-2.0189,-2.0355,-2.0732,-2.1888,-2.2751,-2.3501,-2.4175,-2.591,-2.7656,-2.8973,-3.2311,-3.5337,-3.7007,-3.8995,-4.0451,-4.0935,-4.2522,-4.3765,-4.4296,-4.5401,-4.6773,-4.8489,-4.9622,-5.0765,-5.1876,-5.2829,-5.3551,-5.4063,-5.448,-5.448,-5.3996,-5.3111,-5.2364,-5.1716,-5.0675,-4.9702,-4.8774,-4.7689,-4.6696,-4.5705,-4.4723,-4.411,-4.3868,-4.3396,-4.3453,-4.3854,-4.3883,-4.4233,-4.4719,-4.5217,-4.5809,-4.6334,0.0,0.0,0.0,0.0,0.0,0.0,0.0,0.0,0.0,0.0,0.0,0.0,0.0,0.0,0.0,0.0,0.0,0.0,0.0,0.0,0.0,-0.3693,-0.3666,-0.3687,-0.3773,-0.3938,-0.4144,-0.4378,-0.4475,-0.4574,-0.4642,-0.4504,-0.4605,-0.4903,-0.5165,-0.5528,-0.595,-0.6257,-0.6626,-0.7029,0.0,0.0,0.0,0.0,0.0,0.0,0.0,0.0,0.0,0.0,-1.2614,-1.2967,-1.3335,0.0,0.0,0.0,0.0,0.0,-1.5732,-1.6449,-1.7126,-1.8547,-1.9273,-1.9741,-2.0147,-2.0896,-2.1814,-2.2975,-2.3741,-2.4688,-2.6269,-2.7242,-2.8726,-3.1529,-3.4406,-3.6929,-3.8786,-4.0447,-4.1646,-4.2165,-4.3436,-4.4295,-4.4433,-4.5209,-4.6354,-4.7948,-4.9001,-5.0047,-5.1211,-5.2357,-5.3163,-5.3494,-5.4224,-5.4637,-5.4634,-5.4044,-5.3365,-5.2626,-5.1753,-5.0881,-5.0049,-4.8938,-4.7943,-4.7001,-4.5795,-4.4933,-4.4377,-4.3803,-4.3456,-4.3333,-4.3268,-4.3373,-4.3617,-4.3993,-4.4264,-4.4484,0.0,0.0,0.0,0.0,0.0,0.0,0.0,0.0,0.0,0.0,0.0,0.0,0.0,0.0,0.0,0.0,0.0,0.0,0.0,0.0,-0.3606,-0.3682,-0.3693,-0.3612,-0.3427,-0.3683,-0.3866,-0.3956,-0.4205,-0.4402,-0.4524,-0.4421,-0.4473,-0.4656,-0.4912,-0.5253,-0.5653,-0.6007,-0.6388,-0.6791,0.0,0.0,0.0,0.0,0.0,0.0,0.0,0.0,0.0,0.0,0.0,0.0,0.0,0.0,0.0,-1.3404,-1.3479,-1.3929,-1.5557,-1.6107,-1.6615,-1.836,-1.9488,-2.0228,-2.0445,-2.1755,-2.3128,-2.3945,-2.4962,-2.6261,-2.8038,-2.8937,-3.0612,-3.4289,-3.622,-3.8007,-4.0137,-4.1508,-4.2543,-4.3302,-4.4217,-4.4886,-4.5002,-4.5489,-4.6389,-4.7824,-4.8742,-4.9644,-5.065,-5.186,-5.2572,-5.2786,-5.3618,-5.4281,-5.4652,-5.4485,-5.4083,-5.3433,-5.2644,-5.1878,-5.114,-5.0128,-4.9157,-4.821,-4.7073,-4.6018,-4.4989,-4.4433,-4.3672,-4.2885,-4.2793,-4.2708,-4.2629,-4.2714,-4.2771,-4.2771,0.0,0.0,0.0,0.0,0.0,0.0,0.0,0.0,0.0,0.0,0.0,0.0,0.0,0.0,0.0,0.0,0.0,0.0,0.0,0.0,-0.3532,-0.3605,-0.3664,-0.3632,-0.3497,-0.3759,-0.3771,-0.354,-0.4108,-0.4365,-0.4323,-0.4317,-0.438,-0.4517,-0.4734,-0.5049,-0.5442,-0.5843,-0.6251,-0.6659,-0.7064,0.0,0.0,0.0,0.0,0.0,0.0,0.0,0.0,0.0,0.0,0.0,0.0,0.0,-1.3405,-1.3396,-1.3454,-1.387,-1.5548,-1.6107,-1.6606,-1.8288,-1.9415,-2.0344,-2.1215,-2.2651,-2.4031,-2.4849,-2.6817,-2.8457,-2.857,-3.1355,-3.4385,-3.6545,-3.7871,-3.9238,-4.0892,-4.191,-4.2996,-4.4333,-4.4708,-4.5266,-4.6188,-4.6473,-4.6991,-4.7912,-4.8739,-4.9491,-5.0117,-5.091,-5.1481,-5.1794,-5.2477,-5.3098,-5.3701,-5.3977,-5.4127,-5.4124,-5.3433,-5.2782,-5.2148,-5.1327,-5.0384,-4.9327,-4.8444,-4.7261,-4.5929,-4.5049,-4.3926,-4.2755,-4.2333,-4.1865,-4.1378,-4.1162,-4.1211,-4.1458,0.0,0.0,0.0,0.0,0.0,0.0,0.0,0.0,0.0,0.0,0.0,0.0,0.0,0.0,0.0,0.0,0.0,0.0,0.0,0.0,-0.3498,-0.3656,-0.3681,-0.3681,-0.3628,-0.3598,-0.3625,-0.3686,-0.4124,-0.4265,-0.4123,-0.4291,-0.4403,-0.4507,-0.4665,-0.4932,-0.5309,-0.5706,-0.6099,-0.6514,-0.6963,-0.7346,0.0,0.0,0.0,0.0,0.0,0.0,0.0,0.0,-1.0687,-1.1635,-1.2135,-1.2812,-1.3396,-1.3405,-1.3455,-1.3862,-1.5478,-1.6072,-1.6729,-1.8948,-2.0206,-2.114,-2.204,-2.3565,-2.5278,-2.7086,-2.8223,-2.9454,-3.1346,-3.3669,-3.5945,-3.7953,-3.8953,-4.0225,-4.2386,-4.3082,-4.3755,-4.4726,-4.5472,-4.5953,-4.6108,-4.6644,-4.7384,-4.8378,-4.8931,-4.9492,-5.0006,-5.085,-5.1284,-5.1213,-5.2049,-5.2669,-5.3058,-5.3247,-5.3328,-5.3264,-5.3631,-5.3483,-5.2852,-5.2164,-5.1348,-5.0422,-4.9463,-4.8388,-4.7304,-4.6063,-4.4854,-4.3573,-4.2164,-4.1248,-4.0808,-4.0707,-4.0744,-4.0795,0.0,0.0,0.0,0.0,0.0,0.0,0.0,0.0,0.0,0.0,0.0,0.0,0.0,0.0,0.0,0.0,0.0,0.0,-0.3053,-0.3272,-0.3482,-0.3658,-0.3711,-0.3731,-0.3731,-0.3579,-0.3545,-0.3641,-0.3983,-0.4107,-0.4061,-0.4341,-0.4483,-0.4535,-0.4675,-0.4903,-0.5223,-0.5603,-0.6,-0.6409,-0.6861,-0.7235,0.0,0.0,0.0,0.0,0.0,0.0,0.0,0.0,-1.0279,-1.1207,-1.1756,-1.2592,-1.3396,-1.3405,-1.3455,-1.3862,-1.5495,-1.6063,-1.6809,-1.935,-2.0721,-2.1803,-2.3188,-2.485,-2.6646,-2.8587,-2.9865,-3.1489,-3.4348,-3.5956,-3.7458,-3.9263,-4.0056,-4.1248,-4.3603,-4.3899,-4.4267,-4.5388,-4.5989,-4.6258,-4.6204,-4.665,-4.7259,-4.7983,-4.8669,-4.9184,-4.9511,-5.0489,-5.0922,-5.0681,-5.1424,-5.2039,-5.2405,-5.2531,-5.2653,-5.277,-5.3406,-5.3462,-5.2994,-5.2466,-5.1881,-5.1327,-5.0422,-4.9463,-4.8486,-4.7203,-4.5705,-4.4045,-4.2346,-4.1298,-4.0757,-4.0656,-4.0555,-4.0504,0.0,0.0,0.0,0.0,0.0,0.0,0.0,0.0,0.0,0.0,0.0,0.0,0.0,0.0,0.0,0.0,0.0,0.0,-0.298,-0.3243,-0.3457,-0.359,-0.3725,-0.3808,-0.3808,-0.3729,-0.3564,-0.3306,-0.3641,-0.3942,-0.4202,-0.4477,-0.4603,-0.4613,-0.4743,-0.4952,-0.5223,-0.5565,-0.5934,-0.6331,-0.6736,-0.7099,-0.743,0.0,0.0,0.0,0.0,0.0,0.0,0.0,-0.9826,-1.1095,-1.1106,-1.2152,-1.3405,-1.3396,-1.3454,-1.387,-1.5548,-1.6107,-1.68,-1.9377,-2.0767,-2.2188,-2.4724,-2.6602,-2.8073,-2.9049,-3.1831,-3.4834,-3.7168,-3.8198,-3.9158,-4.0569,-4.1234,-4.2289,-4.431,-4.4145,-4.4519,-4.6473,-4.6165,-4.6004,-4.6541,-4.6625,-4.6625,-4.6625,-4.779,-4.8495,-4.8495,-4.9551,-5.0183,-5.02,-5.0446,-5.0969,-5.1773,-5.1913,-5.2299,-5.2892,-5.2736,-5.2645,-5.2563,-5.2167,-5.1996,-5.1971,-5.1364,-5.0499,-4.9432,-4.8335,-4.6344,-4.3932,-4.2854,-4.1954,-4.1261,-4.0997,-4.0744,-4.0453,0.0,0.0,0.0,0.0,0.0,0.0,0.0,0.0,0.0,0.0,0.0,0.0,0.0,0.0,0.0,0.0,0.0,0.0,-0.291,-0.3182,-0.3407,-0.359,-0.3687,-0.3776,-0.3873,-0.3752,-0.3544,-0.3229,-0.3852,-0.4099,-0.4007,-0.4649,-0.4882,-0.4753,-0.4932,-0.5108,-0.5291,-0.5633,-0.5973,-0.6331,-0.6685,-0.7023,-0.7357,0.0,0.0,0.0,0.0,0.0,0.0,0.0,0.0,0.0,-1.1711,-1.2585,-1.3396,-1.3405,-1.3455,-1.3862,-1.5495,-1.6063,-1.695,-2.0073,-2.1598,-2.3008,-2.5617,-2.7109,-2.8846,-3.2059,-3.3981,-3.5625,-3.7415,-3.8327,-3.9311,-4.0771,-4.1448,-4.2356,-4.3888,-4.4185,-4.4581,-4.5547,-4.6178,-4.6596,-4.6667,-4.7137,-4.7503,-4.7648,-4.8058,-4.8305,-4.8367,-4.8675,-4.9085,-4.9542,-4.9724,-5.0183,-5.0934,-5.1152,-5.123,-5.1284,-5.1133,-5.1511,-5.2317,-5.186,-5.1411,-5.1008,-5.098,-5.0468,-4.956,-4.8162,-4.6594,-4.4915,-4.3904,-4.2916,-4.2052,-4.1819,-4.1435,-4.1021,0.0,0.0,0.0,0.0,0.0,0.0,0.0,0.0,0.0,0.0,0.0,0.0,0.0,0.0,0.0,0.0,0.0,0.0,0.0,-0.3094,-0.3336,-0.3516,-0.3628,-0.3758,-0.3855,-0.3756,-0.369,-0.368,-0.4152,-0.4261,-0.4041,-0.4843,-0.5127,-0.4961,-0.5078,-0.5214,-0.5358,-0.567,-0.5993,-0.6322,-0.6672,-0.7003,-0.7324,0.0,0.0,0.0,0.0,0.0,0.0,0.0,0.0,0.0,-1.195,-1.273,-1.3371,-1.3388,-1.3642,-1.4238,-1.5564,-1.6272,-1.7365,-2.043,-2.1958,-2.3656,-2.7279,-2.8838,-3.0583,-3.442,-3.5609,-3.645,-3.803,-3.9153,-4.0139,-4.1025,-4.1912,-4.285,-4.3876,-4.4132,-4.4385,-4.4901,-4.5774,-4.624,-4.6131,-4.6786,-4.7291,-4.7403,-4.7812,-4.8039,-4.8022,-4.8303,-4.861,-4.8878,-4.8976,-4.9369,-5.0066,-5.0183,-5.034,-5.0519,-5.0369,-5.0685,-5.1381,-5.1206,-5.1026,-5.0826,-5.0516,-5.0046,-4.9371,-4.8121,-4.6978,-4.5913,-4.5035,-4.4045,-4.2999,-4.2784,-4.236,-4.1868,0.0,0.0,0.0,0.0,0.0,0.0,0.0,0.0,0.0,0.0,0.0,0.0,0.0,0.0,0.0,0.0,0.0,0.0,0.0,0.0,-0.3381,-0.3529,-0.375,-0.3892,-0.3951,-0.39,-0.4083,-0.4497,-0.4516,-0.4457,-0.4319,-0.5088,-0.5359,-0.5234,-0.5234,-0.5291,-0.5433,-0.5698,-0.6002,-0.6313,-0.6664,-0.6995,-0.7308,-0.7513,0.0,0.0,0.0,0.0,0.0,0.0,0.0,0.0,-1.2012,-1.2748,-1.3303,-1.3371,-1.3965,-1.4803,-1.5729,-1.663,-1.7919,-2.0517,-2.2121,-2.4306,-2.916,-3.1061,-3.273,-3.6017,-3.6699,-3.7188,-3.8804,-4.0311,-4.1298,-4.1298,-4.2485,-4.356,-4.405,-4.4002,-4.4068,-4.4493,-4.4996,-4.5275,-4.5158,-4.5811,-4.6235,-4.6235,-4.7097,-4.7557,-4.741,-4.8091,-4.8397,-4.8207,-4.8181,-4.8512,-4.9179,-4.9179,-4.9527,-5.0189,-5.0135,-5.0085,-5.0074,-5.0382,-5.0706,-5.1019,-5.0004,-4.9377,-4.9038,-4.8169,-4.7465,-4.687,-4.6137,-4.513,-4.412,-4.3837,-4.3423,-4.2935,0.0,0.0,0.0,0.0,0.0,0.0,0.0,0.0,0.0,0.0,0.0,0.0,0.0,0.0,0.0,0.0,0.0,0.0,0.0,0.0,-0.4278,-0.4558,-0.4924,-0.512,-0.5137,-0.5164,-0.5185,-0.5193,-0.4934,-0.4899,-0.5074,-0.5507,-0.5615,-0.5435,-0.5435,-0.5473,-0.5575,-0.5839,-0.6059,-0.6254,-0.6586,-0.6891,-0.7177,-0.7422,-0.7702,0.0,0.0,0.0,0.0,0.0,0.0,0.0,-1.2664,-1.3091,-1.3295,-1.3312,-1.3922,-1.4777,-1.5622,-1.6557,-1.7906,-2.0423,-2.3339,-2.6257,-2.8739,-3.0528,-3.2593,-3.6005,-3.6699,-3.7175,-3.8739,-4.0266,-4.1283,-4.1235,-4.2451,-4.3395,-4.3415,-4.3792,-4.405,-4.4054,-4.4482,-4.4747,-4.4725,-4.4854,-4.491,-4.491,-4.5716,-4.6138,-4.5888,-4.6517,-4.7051,-4.7429,-4.7317,-4.7631,-4.8344,-4.8361,-4.8431,-4.8605,-4.9094,-4.9249,-4.9125,-4.9534,-4.9875,-5.0065,-4.941,-4.9159,-4.9119,-4.8338,-4.7754,-4.7307,-4.6456,-4.583,-4.537,-4.4926,-4.4336,-4.3737,0.0,0.0,0.0,0.0,0.0,0.0,0.0,0.0,0.0,0.0,0.0,0.0,0.0,0.0,0.0,0.0,0.0,0.0,0.0,0.0,0.0,-0.4927,-0.5205,-0.5389,-0.5455,-0.5522,-0.5652,-0.584,-0.5594,-0.5458,-0.545,-0.5751,-0.581,-0.5644,-0.5606,-0.5634,-0.5708,-0.5885,-0.6059,-0.6278,-0.6547,-0.6816,-0.7083,-0.7353,-0.78,-0.8363,-0.8988,0.0,0.0,0.0,0.0,0.0,0.0,0.0,-1.3208,-1.3244,-1.4115,-1.5191,-1.567,-1.677,-1.8413,-2.1059,-2.4028,-2.6774,-2.859,-3.0287,-3.2269,-3.4901,-3.6075,-3.6956,-3.8155,-3.9652,-4.0664,-4.0633,-4.1899,-4.2808,-4.2649,-4.3233,-4.3591,-4.3399,-4.3904,-4.4244,-4.4139,-4.445,-4.4617,-4.4533,-4.4929,-4.5094,-4.489,-4.5446,-4.5852,-4.6,-4.6213,-4.6682,-4.7365,-4.7365,-4.7528,-4.781,-4.8169,-4.8363,-4.8494,-4.9099,-4.9359,-4.9293,-4.8826,-4.8761,-4.8922,-4.8156,-4.7757,-4.7589,-4.7027,-4.6484,-4.5977,-4.5735,-4.5261,-4.4676,0.0,0.0,0.0,0.0,0.0,0.0,0.0,0.0,0.0,0.0,0.0,0.0,0.0,0.0,0.0,0.0,0.0,0.0,0.0,0.0,0.0,-0.52,-0.539,-0.5529,-0.5651,-0.5749,-0.6009,-0.6438,-0.6309,-0.6111,-0.5828,-0.5985,-0.5991,-0.5848,-0.5785,-0.5776,-0.583,-0.5902,-0.6077,-0.6317,-0.6525,-0.6748,-0.7023,-0.7399,-0.8001,-0.8724,-0.9218,-0.9843,-1.057,-1.1441,0.0,0.0,0.0,0.0,-1.3102,-1.3166,-1.4228,-1.5445,-1.5689,-1.7119,-1.9121,-2.1616,-2.4024,-2.6238,-2.81,-2.977,-3.1415,-3.3067,-3.4945,-3.657,-3.7497,-3.8855,-3.9826,-3.9958,-4.1162,-4.2017,-4.1827,-4.2485,-4.2887,-4.2624,-4.3272,-4.3642,-4.3458,-4.4026,-4.4339,-4.4214,-4.427,-4.4228,-4.4067,-4.456,-4.4743,-4.4491,-4.5043,-4.5623,-4.6173,-4.6284,-4.6581,-4.7088,-4.718,-4.7455,-4.792,-4.8536,-4.8778,-4.8801,-4.8468,-4.843,-4.8561,-4.7874,-4.7617,-4.7703,-4.7386,-4.6869,-4.6294,-4.624,-4.5944,-4.5504,0.0,0.0,0.0,0.0,0.0,0.0,0.0,0.0,0.0,0.0,0.0,0.0,0.0,0.0,0.0,0.0,0.0,0.0,-0.4321,0.0,0.0,-0.6109,-0.6419,-0.6615,-0.6695,-0.6877,-0.698,-0.6999,-0.6919,-0.683,-0.6724,-0.6468,-0.6242,-0.605,-0.5988,-0.5931,-0.5902,-0.6023,-0.6161,-0.6317,-0.6525,-0.6723,-0.7002,-0.7789,-0.8273,-0.8706,-1.0079,-1.0752,-1.1134,-1.1997,-1.2412,0.0,0.0,0.0,-1.3031,-1.3085,-1.3801,-1.471,-1.5419,-1.7446,-1.9647,-2.0891,-2.2622,-2.4479,-2.6191,-2.7917,-2.943,-3.0436,-3.3213,-3.5887,-3.7348,-3.8346,-3.9163,-3.9803,-4.0671,-4.1192,-4.0989,-4.1646,-4.2086,-4.1886,-4.2498,-4.2889,-4.2751,-4.2777,-4.2749,-4.2629,-4.3148,-4.335,-4.3107,-4.3617,-4.3777,-4.3593,-4.4044,-4.4336,-4.4439,-4.4959,-4.5237,-4.5357,-4.5857,-4.647,-4.7155,-4.7128,-4.7784,-4.897,-4.8801,-4.855,-4.8231,-4.7653,-4.741,-4.7303,-4.6557,-4.6517,-4.6754,-4.6411,-4.6108,-4.5835,0.0,0.0,0.0,0.0,0.0,0.0,0.0,0.0,0.0,0.0,0.0,0.0,0.0,0.0,0.0,-0.2676,-0.3272,-0.3919,-0.4615,-0.5262,-0.5771,-0.6113,-0.6387,-0.6612,-0.6782,-0.6944,-0.7034,-0.7042,-0.7009,-0.6985,-0.6944,-0.6727,-0.647,-0.6201,-0.6095,-0.6032,-0.6023,-0.6039,-0.6165,-0.6372,-0.6486,-0.6668,-0.694,-0.7762,-0.842,-0.9043,-1.02,-1.0996,-1.1566,-1.2066,-1.2368,-1.2546,-1.2646,0.0,0.0,0.0,-1.358,-1.4527,-1.5853,-1.7761,-1.9532,-2.0118,-2.19,-2.3759,-2.4646,-2.6848,-2.8822,-2.9278,-3.1316,-3.3495,-3.5128,-3.645,-3.7539,-3.8272,-3.9061,-3.9688,-4.0029,-4.0775,-4.1214,-4.1053,-4.1704,-4.2117,-4.1926,-4.2298,-4.245,-4.2205,-4.2438,-4.2461,-4.2203,-4.2672,-4.2856,-4.2614,-4.3192,-4.3452,-4.3374,-4.404,-4.4541,-4.4886,-4.5077,-4.5563,-4.6264,-4.6206,-4.6769,-4.7784,-4.8006,-4.7975,-4.7756,-4.7622,-4.7364,-4.7062,-4.6666,-4.6563,-4.6676,-4.6508,-4.6453,-4.6403,0.0,0.0,0.0,0.0,0.0,0.0,0.0,0.0,0.0,0.0,0.0,0.0,0.0,0.0,0.0,0.0,-0.3184,-0.3834,-0.4694,-0.5108,-0.5491,-0.5887,-0.612,-0.6369,-0.6621,-0.6774,-0.6899,-0.6969,-0.6985,-0.7081,-0.7258,-0.7109,-0.6987,-0.6859,-0.6412,-0.6188,-0.6152,-0.6108,-0.6213,-0.6409,-0.6495,-0.6642,-0.6902,-0.7841,-0.862,-0.9339,-1.0341,-1.1157,-1.1783,-1.1982,-1.2174,-1.2347,-1.25,-1.2642,0.0,0.0,0.0,-1.441,-1.5943,-1.7484,-1.8797,-1.9433,-2.1046,-2.268,-2.3509,-2.5581,-2.7477,-2.8027,-2.9416,-3.0886,-3.2146,-3.4081,-3.5795,-3.6739,-3.7398,-3.8041,-3.8779,-3.9579,-4.0126,-4.0202,-4.0908,-4.1323,-4.1099,-4.1779,-4.2125,-4.184,-4.1864,-4.1815,-4.156,-4.187,-4.1908,-4.1692,-4.2276,-4.2561,-4.2458,-4.3327,-4.3997,-4.4432,-4.4541,-4.4902,-4.5415,-4.5415,-4.572,-4.6278,-4.7042,-4.7295,-4.7147,-4.742,-4.7176,-4.6613,-4.6614,-4.6495,-4.6339,-4.6379,-4.6541,-4.6708,0.0,0.0,0.0,0.0,0.0,0.0,0.0,0.0,0.0,0.0,0.0,0.0,-0.1759,-0.2147,-0.2496,-0.2772,-0.3164,-0.3748,-0.4554,-0.4922,-0.5262,-0.5614,-0.5929,0.0,-0.6418,-0.6612,-0.6774,-0.6908,-0.696,-0.7334,-0.7941,-0.7805,-0.8014,-0.842,-0.7075,-0.6402,-0.629,-0.6351,-0.6392,-0.6418,-0.6535,-0.6685,-0.6941,-0.8259,-0.8947,-0.9383,-1.0766,-1.1415,-1.1634,-1.1837,-1.1992,-1.2149,-1.2353,-1.2499,-1.2623,0.0,0.0,0.0,-1.5201,-1.6143,-1.7231,-1.889,-1.9614,-2.0516,-2.2883,-2.3656,-2.4332,-2.5996,-2.7567,-2.867,-2.8753,-3.1497,-3.4243,-3.5811,-3.6085,-3.6383,-3.7124,-3.7925,-3.8673,-3.9368,-4.0111,-4.0474,-4.0272,-4.0876,-4.1223,-4.1055,-4.1396,-4.156,-4.1426,-4.114,-4.0916,-4.0772,-4.1221,-4.1469,-4.1469,-4.2773,-4.3436,-4.3487,-4.4231,-4.4632,-4.4666,-4.4666,-4.4682,-4.4801,-4.621,-4.6658,-4.6407,-4.691,-4.6618,-4.5853,-4.5991,-4.5997,-4.5951,-4.594,-4.6117,-4.6371,0.0,0.0,0.0,0.0,0.0,0.0,0.0,0.0,0.0,0.0,0.0,0.0,0.0,-0.2285,-0.2616,-0.2837,-0.3349,-0.3893,-0.4441,-0.4744,-0.5069,-0.5462,-0.5715,-0.6002,-0.6331,-0.6491,-0.6685,-0.6908,-0.7012,-0.7398,-0.8055,-0.8018,-0.8306,-0.8826,-0.8059,-0.7671,-0.7581,-0.7608,-0.7428,-0.7112,-0.7149,-0.7029,-0.6932,-0.825,-0.8873,-0.9243,-1.0616,-1.1262,-1.15,-1.1648,-1.1822,-1.2008,-1.2216,-1.2338,-1.2439,-1.2587,-1.3189,-1.3907,-1.4373,-1.5479,-1.6695,-1.7435,-1.8545,-1.9726,-2.0777,-2.2294,-2.3659,-2.4335,-2.5733,-2.7133,-2.8129,-3.0261,-3.2375,-3.3942,-3.4199,-3.4635,-3.5905,-3.6773,-3.7387,-3.7692,-3.8832,-3.9572,-3.9499,-4.005,-4.0321,-4.0055,-4.0517,-4.0679,-4.0319,-4.0689,-4.0769,-4.0453,-4.061,-4.0866,-4.1264,-4.1659,-4.2338,-4.3271,-4.3485,-4.3816,-4.4286,-4.4355,-4.4412,-4.4429,-4.5099,-4.552,-4.5757,-4.6205,-4.63,-4.6075,-4.5637,-4.5703,-4.6004,-4.5629,-4.594,-4.6479,0.0,0.0,0.0,0.0,0.0,0.0,0.0,0.0,0.0,0.0,0.0,0.0,0.0,0.0,-0.2932,-0.3336,-0.3736,-0.4131,-0.4502,-0.4725,-0.4991,-0.5348,-0.5603,-0.5902,-0.6251,-0.6418,-0.6731,-0.721,-0.7335,-0.7869,-0.8741,-0.876,-0.9091,-0.9666,-0.9392,-0.8963,-0.8431,-0.8431,-0.8214,-0.7852,-0.7672,-0.7526,-0.7537,-0.8409,-0.8988,-0.9477,-1.0595,-1.1155,-1.1387,-1.1519,-1.1696,-1.1859,-1.2033,-1.2179,-1.2313,-1.2514,-1.2905,-1.3396,-1.3852,-1.4761,-1.5772,-1.6492,-1.7591,-1.8691,-1.9426,-2.0903,-2.2286,-2.2868,-2.4029,-2.5356,-2.6659,-2.8094,-2.9793,-3.1975,-3.2532,-3.3145,-3.4455,-3.5332,-3.5976,-3.6294,-3.7502,-3.8259,-3.8187,-3.8989,-3.9402,-3.9062,-3.9582,-3.9848,-3.9704,-4.0128,-4.035,-4.0238,-4.0238,-4.04,-4.0754,-4.0912,-4.1456,-4.241,-4.2814,-4.3272,-4.3729,-4.4095,-4.4224,-4.4253,-4.4412,-4.4682,-4.5072,-4.5544,-4.58,-4.5881,-4.5474,-4.5556,-4.5875,-4.5511,-4.5793,-4.6343,0.0,0.0,0.0,0.0,0.0,0.0,0.0,0.0,0.0,-0.1404,0.0,0.0,0.0,0.0,0.0,-0.4238,-0.4319,-0.446,-0.4803,-0.4886,-0.5039,-0.5311,-0.5634,-0.5931,-0.6215,-0.6434,-0.6964,-0.7827,-0.7967,-0.8713,-1.001,-1.0075,-1.0428,-1.1003,-1.1003,-1.018,-0.878,-0.8769,-0.8712,-0.8588,-0.8073,-0.8204,-0.8718,-0.8812,-0.9321,-1.0093,-1.0771,-1.112,-1.1319,-1.1455,-1.1586,-1.1714,-1.1859,-1.2039,-1.2236,-1.2439,-1.2479,-1.2697,0.0,0.0,0.0,-1.6134,-1.6733,-1.736,-1.8988,-1.9488,-2.0029,-2.1598,-2.2534,-2.332,-2.4115,-2.4932,-2.6555,-2.9908,-3.1082,-3.1867,-3.2688,-3.3589,-3.4442,-3.523,-3.6122,-3.6573,-3.6381,-3.7663,-3.836,-3.8061,-3.8569,-3.9138,-3.9595,-3.9465,-3.962,-4.0079,-4.0096,-4.0037,-3.9901,-4.0617,-4.0908,-4.0799,-4.2239,-4.2942,-4.3009,-4.3729,-4.4051,-4.4097,-4.4224,-4.4293,-4.4332,-4.4943,-4.5164,-4.5211,-4.5417,-4.547,-4.5478,-4.5572,-4.5703,-4.5955,0.0,0.0,0.0,0.0,0.0,0.0,-0.1156,-0.155,-0.1892,0.0,0.0,0.0,-0.3199,-0.363,-0.4063,-0.4481,-0.4739,-0.5039,-0.5422,-0.5382,-0.5499,-0.5858,-0.5882,-0.6201,-0.6914,-0.7166,-0.77,-0.8518,-0.8707,-0.9249,-1.015,-1.025,-1.0656,-1.1296,-1.1296,-1.1051,-1.0649,-1.0388,-1.0037,-0.9596,-0.9446,-0.9257,-0.9109,-0.9574,-0.9914,-1.0235,-1.0895,-1.125,-1.1387,-1.1537,-1.1612,-1.167,-1.1891,-1.2044,-1.2159,-1.2313,-1.2353,-1.2435,-1.285,0.0,0.0,0.0,0.0,0.0,-1.8254,-1.8912,-1.9512,-2.0019,-2.1214,-2.2389,-2.3152,-2.3933,-2.4956,-2.6455,-2.7924,-2.9372,-3.0763,-3.2107,-3.3095,-3.3492,-3.4672,-3.5474,-3.5473,-3.565,-3.594,-3.6328,-3.6797,-3.7267,-3.7797,-3.8635,-3.9425,-4.0079,-4.0096,-4.0037,-3.9901,-4.0008,-4.0194,-4.0441,-4.0746,-4.1423,-4.2376,-4.2775,-4.3244,-4.3747,-4.4039,-4.4155,-4.4172,-4.4332,-4.4567,-4.4838,-4.4903,-4.4907,-4.4937,-4.5055,-4.5179,-4.5298,0.0,0.0,0.0,0.0,0.0,-0.1746,-0.2023,-0.235,-0.2647,0.0,0.0,0.0,-0.3908,-0.4429,-0.4842,-0.5076,-0.5284,-0.5561,-0.597,-0.5978,-0.6125,-0.6507,-0.6634,-0.697,-0.7567,-0.7894,-0.8461,-0.9255,-0.9464,-0.9972,-1.0738,-1.0854,-1.114,-1.1564,-1.1612,-1.1612,-1.1612,-1.1429,-1.1042,-1.052,-1.0278,-1.0134,-1.0084,-1.0197,-1.0427,-1.0752,-1.113,-1.1376,-1.1489,-1.1571,-1.1623,-1.1681,-1.1912,-1.2023,-1.2086,-1.2262,-1.2323,-1.2383,-1.2552,-1.3573,-1.469,-1.5147,0.0,0.0,-1.781,-1.8352,-1.8863,-1.9195,-2.0016,-2.1001,-2.2085,-2.2656,-2.3313,-2.4372,-2.5389,-2.6754,-2.8792,-3.0437,-3.1486,-3.165,-3.3031,-3.3969,-3.4003,-3.4429,-3.4825,-3.5128,-3.5584,-3.6191,-3.6984,-3.7984,-3.887,-3.9622,-3.9656,-3.9708,-3.9807,-3.9729,-3.9721,-3.9759,-3.999,-4.0487,-4.1225,-4.1976,-4.2574,-4.302,-4.3584,-4.3805,-4.3805,-4.3805,-4.4102,-4.4587,-4.4675,-4.4755,-4.4832,-4.496,-4.5056,-4.5184,0.0,0.0,-0.1727,-0.2072,-0.2346,-0.2668,-0.3086,-0.3325,-0.3562,0.0,-0.4053,-0.4341,-0.4756,-0.5248,-0.5632,0.0,-0.5887,-0.609,-0.6496,-0.6617,-0.6848,-0.7204,-0.7622,-0.7968,-0.8246,-0.8649,-0.925,-1.0051,-1.0249,-1.0749,-1.1534,0.0,0.0,0.0,0.0,-1.1933,-1.1944,-1.2023,-1.1794,-1.1375,-1.08,-1.0904,-1.1315,-1.0774,-1.0951,-1.1466,-1.1466,-1.1534,-1.1638,-1.1638,-1.1689,-1.1772,-1.1959,-1.2012,-1.207,-1.2329,-1.2462,-1.2575,-1.2788,-1.3513,-1.4411,-1.517,-1.6025,0.0,-1.7636,-1.7906,-1.8182,-1.883,-1.9035,-1.9525,-2.09,-2.1225,-2.1725,-2.313,-2.342,-2.4356,-2.6861,-2.8605,-2.9645,-2.9792,-3.1242,-3.2191,-3.2209,-3.3442,-3.4226,-3.4126,-3.4743,-3.5629,-3.6718,-3.7394,-3.8125,-3.8853,-3.8954,-3.9185,-3.9569,-3.967,-3.9451,-3.8985,-3.9627,-3.9933,-3.9895,-4.1216,-4.1884,-4.1999,-4.2802,-4.3191,-4.3257,-4.3257,-4.3668,-4.4268,-4.448,-4.4677,-4.4897,-4.5013,-4.5101,-4.5275,0.0,-0.2123,-0.2506,-0.2895,-0.3496,-0.3963,-0.4106,-0.4657,-0.503,-0.4984,-0.5114,-0.5285,-0.5486,-0.5698,-0.5921,0.0,-0.6448,-0.6795,-0.7265,-0.7249,-0.7466,-0.7966,-0.8014,-0.8415,-0.9206,-0.9567,-1.0178,-1.1031,0.0,0.0,0.0,0.0,0.0,0.0,-1.2107,-1.2174,-1.2241,-1.2292,-1.2272,-1.2164,-1.1818,-1.1753,-1.1859,-1.1723,-1.1764,-1.1884,-1.1884,-1.1874,-1.1837,-1.1837,-1.1895,-1.1959,-1.2044,-1.2122,-1.2292,-1.2983,-1.323,-1.3436,-1.417,-1.5026,-1.5779,-1.6143,-1.6825,0.0,-1.7743,-1.7867,-1.7956,-1.8092,-1.8654,-1.9201,-1.9491,-2.0084,-2.0797,-2.1687,-2.2337,-2.3364,-2.5236,-2.6838,-2.787,-2.7995,-2.9385,-3.0327,-3.0345,-3.1081,-3.1775,-3.2271,-3.3839,-3.5108,-3.5814,-3.6592,-3.7347,-3.8091,-3.8684,-3.8932,-3.8807,-3.9419,-3.9398,-3.8832,-3.8963,-3.9245,-3.9592,-3.9997,-4.0482,-4.1069,-4.136,-4.1812,-4.2337,-4.2337,-4.2747,-4.3375,-4.3589,-4.3839,-4.4132,-4.4261,-4.4375,-4.4572,-0.2374,-0.3115,-0.3796,-0.4265,-0.4984,-0.558,-0.5807,-0.6074,-0.6254,-0.6252,-0.6315,-0.6449,-0.6711,-0.669,-0.6737,-0.6936,0.0,0.0,0.0,-0.7938,-0.8273,-0.8771,-0.9022,-0.9449,-1.0092,-1.0464,-1.0911,-1.1452,0.0,0.0,0.0,0.0,0.0,-1.2356,-1.2451,-1.2526,-1.2546,-1.2623,-1.2652,-1.2633,-1.2357,-1.2246,-1.2246,-1.221,-1.22,-1.22,-1.2169,-1.2338,-1.2643,-1.298,-1.3069,-1.3058,-1.3175,-1.3208,-1.3303,-1.3848,-1.4065,-1.4243,-1.4723,-1.5505,-1.6236,-1.6409,-1.702,0.0,0.0,-1.7794,-1.7856,-1.7856,-1.8167,-1.8563,-1.8937,-1.9323,-1.9833,-2.0569,-2.1024,-2.1693,-2.2973,-2.4846,-2.6156,-2.6288,-2.7344,-2.8211,-2.8608,-2.9258,-3.0214,-3.1548,-3.2485,-3.3447,-3.4455,-3.5233,-3.5994,-3.6715,-3.7499,-3.8123,-3.8606,-3.8957,-3.9075,-3.8914,-3.8832,-3.8907,-3.9072,-3.9442,-3.9742,-4.004,-4.0456,-4.1008,-4.1596,-4.1596,-4.2017,-4.2635,-4.3186,-4.358,-4.3804,-4.4038,-4.4174,-4.4388,-0.3205,-0.4199,-0.5147,-0.5756,-0.654,-0.7203,-0.7521,-0.748,-0.7416,-0.748,-0.7555,-0.7702,-0.7983,-0.7832,-0.7762,-0.791,-0.7932,0.0,-0.827,-0.8737,-0.915,-0.9489,-1.0021,-1.0459,-1.0801,-1.1201,-1.1508,-1.1725,0.0,0.0,0.0,0.0,-1.261,-1.2703,-1.2804,-1.2867,-1.286,-1.2926,-1.2953,-1.2942,-1.2722,-1.2607,-1.2565,-1.2512,-1.2483,-1.2479,-1.256,-1.3,-1.3662,-1.4167,-1.4275,-1.419,-1.4283,-1.4291,-1.4331,-1.4683,-1.4909,-1.5082,-1.5297,-1.5922,-1.6541,-1.6614,-1.7137,-1.7647,0.0,0.0,0.0,-1.78,-1.78,-1.7969,-1.8572,-1.8691,-1.8927,-1.9676,-1.9782,-2.009,-2.0973,-2.2764,-2.4193,-2.4766,-2.5553,-2.6311,-2.6963,-2.7738,-2.8938,-3.0714,-3.1113,-3.1797,-3.2916,-3.3812,-3.4624,-3.5346,-3.6163,-3.7077,-3.8179,-3.8455,-3.8685,-3.8826,-3.8821,-3.8738,-3.8621,-3.9093,-3.9192,-3.9046,-3.9629,-4.0182,-4.0717,-4.0829,-4.1246,-4.1901,-4.2767,-4.3335,-4.3715,-4.3845,-4.405,-4.4358,-0.4437,-0.5233,-0.6136,-0.7024,-0.79,-0.849,-0.8537,-0.8713,-0.8778,-0.8552,-0.884,-0.899,-0.8804,-0.8807,-0.8896,-0.9084,-0.9316,-0.942,-0.9336,-0.977,-0.9996,-0.9944,-1.0385,-1.0837,-1.1227,-1.1575,-1.1865,-1.2128,-1.2333,0.0,0.0,0.0,-1.2867,-1.3048,-1.3057,-1.3067,-1.3077,-1.314,-1.3173,-1.3163,-1.3139,-1.2998,-1.2839,-1.2855,-1.2801,-1.2825,-1.3343,-1.4004,-1.4607,-1.4514,-1.448,-1.4441,-1.4405,-1.446,-1.4675,-1.5292,-1.5675,-1.6017,-1.6735,-1.7092,-1.7304,-1.7421,-1.758,-1.7715,-1.776,0.0,-1.78,-1.78,0.0,-1.7834,-1.7901,0.0,0.0,-1.891,-1.9012,-1.9336,-2.0195,-2.0559,-2.1511,-2.3615,-2.4615,-2.5175,-2.5276,-2.6433,-2.7536,-2.8425,-3.017,-3.1278,-3.1427,-3.2763,-3.3863,-3.459,-3.5351,-3.6055,-3.674,-3.7986,-3.847,-3.8226,-3.8602,-3.8738,-3.8604,-3.8545,-3.8436,-3.8321,-3.8402,-3.875,-3.9278,-3.987,-4.0371,-4.0847,-4.1739,-4.2736,-4.3652,-4.3314,-4.3648,-4.4297,-0.5412,-0.6471,-0.7542,-0.8354,-0.9259,-1.0,-1.0426,-1.0621,-1.0656,-1.0466,-1.0415,-1.0403,-1.041,-1.0165,-1.006,-1.0204,-1.0256,-1.0337,-1.0485,-1.089,-1.1059,-1.0887,-1.1284,-1.1546,-1.1586,-1.1876,-1.2159,-1.2426,-1.2626,0.0,0.0,0.0,0.0,-1.3286,-1.3303,-1.3329,-1.332,-1.3354,-1.3354,-1.3312,-1.332,-1.3495,-1.3778,-1.3731,-1.3903,-1.4277,-1.4962,-1.533,-1.554,-1.5855,-1.5848,-1.5704,-1.5694,-1.5716,-1.5854,-1.6285,-1.6556,-1.6792,-1.7203,-1.7391,-1.7484,-1.7577,-1.7641,-1.771,-1.7789,-1.78,-1.78,-1.78,0.0,0.0,0.0,0.0,0.0,0.0,-1.8268,-1.8533,-1.9331,-1.9476,-2.0226,-2.2194,-2.2775,-2.3353,-2.4215,-2.5118,-2.6154,-2.7366,-2.8167,-2.9161,-3.0497,-3.1546,-3.2459,-3.3207,-3.4353,-3.5251,-3.5872,-3.6829,-3.7653,-3.8266,-3.8319,-3.8482,-3.8711,-3.8588,-3.8335,-3.802,-3.802,-3.8275,-3.8753,-3.9343,-3.9913,-4.0479,-4.117,-4.1899,-4.2618,-4.2725,-4.3082,-4.3571,-0.648,-0.7582,-0.8621,-0.9467,-1.0445,-1.1377,-1.2103,-1.232,-1.2309,-1.2089,-1.1912,-1.1838,-1.1888,-1.1545,-1.1353,-1.1463,-1.1442,-1.1491,-1.1656,-1.2049,-1.2171,-1.1978,-1.2353,-1.246,-1.2221,-1.2489,-1.2661,-1.2722,-1.2898,0.0,0.0,0.0,0.0,0.0,-1.3536,-1.3536,-1.3528,-1.3528,-1.3495,-1.3438,-1.3633,-1.4243,-1.5004,-1.4725,-1.5011,-1.5625,-1.6144,-1.6338,-1.6434,-1.6871,-1.6892,-1.6704,-1.6691,-1.6691,-1.6743,-1.6956,-1.7124,-1.7248,-1.7375,-1.7451,-1.7512,-1.7554,-1.7607,-1.7692,-1.7726,-1.7749,-1.776,-1.776,-1.776,0.0,0.0,0.0,-1.7755,-1.776,0.0,-1.7974,-1.8521,-1.8659,-1.9314,-2.0945,-2.1214,-2.1785,-2.3078,-2.373,-2.465,-2.5967,-2.6469,-2.7418,-2.9093,-3.0277,-3.1241,-3.1989,-3.3423,-3.4513,-3.515,-3.6004,-3.7008,-3.8153,-3.807,-3.8294,-3.8805,-3.8672,-3.8335,-3.7905,-3.7905,-3.7987,-3.8195,-3.8968,-3.9532,-3.9952,-4.0658,-4.1124,-4.1476,-4.2232,-4.2692,-4.2978,-0.777,-0.8433,-0.9119,-1.0179,-1.1414,-1.2487,-1.3159,-1.3459,-1.3476,-1.3006,-1.3171,-1.323,-1.2973,-1.2886,-1.2857,-1.2926,-1.3102,-1.3106,-1.2868,-1.3216,-1.3358,-1.3152,-1.3524,-1.3597,-1.3266,-1.3584,-1.3501,-1.2995,-1.3123,-1.3278,0.0,0.0,0.0,0.0,-1.3694,-1.3653,-1.3597,-1.3597,-1.3559,-1.3547,-1.4195,-1.5322,-1.6553,-1.5752,-1.5877,-1.6453,-1.6398,-1.6776,-1.7236,-1.7129,-1.7048,-1.6972,-1.6905,-1.6934,-1.6998,-1.7086,-1.7195,-1.7306,-1.7371,-1.7451,-1.75,-1.75,-1.7542,-1.7601,-1.7612,-1.767,-1.7698,-1.7698,-1.7698,-1.7698,-1.7698,-1.7641,0.0,0.0,0.0,0.0,0.0,-1.7884,-1.8512,-2.0072,-2.0369,-2.0768,-2.1578,-2.2219,-2.2894,-2.3645,-2.5569,-2.6725,-2.681,-2.8924,-3.048,-3.1207,-3.2662,-3.3795,-3.4523,-3.5834,-3.6836,-3.7519,-3.7908,-3.8342,-3.8805,-3.8672,-3.8335,-3.7905,-3.7905,-3.7642,-3.7365,-3.8733,-3.9106,-3.8938,-4.0084,-4.0451,-4.053,-4.1955,-4.258,-4.2801,-0.8434,-0.9504,-1.0484,-1.1199,-1.227,-1.3341,-1.4279,-1.4767,-1.5022,-1.5056,-1.4941,-1.4931,-1.51,-1.4976,-1.4747,-1.4418,-1.4495,-1.4406,-1.4051,-1.4367,-1.4457,-1.4195,-1.4576,-1.4657,-1.4377,-1.4594,-1.4466,-1.3935,-1.4099,-1.3982,0.0,0.0,0.0,0.0,-1.3826,-1.3818,-1.3796,-1.3692,-1.3924,-1.4469,-1.5568,-1.6289,-1.6671,-1.6397,-1.6705,-1.7294,-1.7226,-1.7273,-1.7345,-1.7207,-1.7124,-1.7113,-1.746,-1.7604,-1.7783,-1.8386,-1.8623,-1.8716,-1.8838,-1.8895,-1.8843,-1.8356,-1.8288,-1.8191,-1.7718,-1.7624,-1.7618,-1.7618,-1.7618,-1.7618,-1.7618,-1.7624,0.0,0.0,0.0,0.0,0.0,-1.7828,-1.8092,-1.8626,-1.9698,-2.0508,-2.0783,-2.1387,-2.2047,-2.2756,-2.3875,-2.5152,-2.6607,-2.7435,-2.8653,-3.0429,-3.1427,-3.2527,-3.3761,-3.4572,-3.5582,-3.6774,-3.7144,-3.758,-3.8073,-3.836,-3.825,-3.7905,-3.7669,-3.7433,-3.7304,-3.8481,-3.8832,-3.8727,-3.9914,-4.0191,-4.0061,-4.1462,-4.1987,-4.216,-0.914,-1.042,-1.1489,-1.1899,-1.308,-1.4305,-1.5318,-1.5905,-1.6278,-1.6391,-1.6385,-1.641,-1.6568,-1.6434,-1.618,-1.5806,-1.5833,-1.5786,-1.5618,-1.5643,-1.5669,-1.5666,-1.5772,-1.5701,-1.5401,-1.5582,-1.5432,-1.4858,-1.5034,-1.4753,0.0,0.0,0.0,0.0,-1.3908,-1.3893,-1.3906,-1.4052,-1.4387,-1.4926,-1.6289,-1.6948,-1.7127,-1.7105,-1.7338,-1.7687,-1.7607,-1.7502,-1.7372,-1.7269,-1.7199,-1.7237,-1.7783,-1.8022,-1.8235,-1.9088,-1.938,-1.9463,-1.9574,-1.9624,-1.9548,-1.9066,-1.8992,-1.8901,-1.8431,-1.8326,-1.8351,-1.8351,-1.8133,-1.7962,-1.7962,-1.7738,0.0,0.0,0.0,0.0,0.0,-1.7794,-1.7861,-1.7911,-1.887,-1.9659,-1.9916,-2.0311,-2.0947,-2.1929,-2.2623,-2.3849,-2.5811,-2.642,-2.7621,-2.9651,-3.0666,-3.1901,-3.3389,-3.3972,-3.494,-3.6317,-3.6738,-3.714,-3.7595,-3.8135,-3.8148,-3.7714,-3.7476,-3.738,-3.7435,-3.8319,-3.8727,-3.8836,-3.973,-3.9945,-3.9847,-4.1219,-4.1927,-4.2361,-0.9956,-1.1188,-1.22,-1.2417,-1.3891,-1.5362,-1.6225,-1.6847,-1.7192,-1.7151,-1.7513,-1.7677,-1.7453,-1.7323,-1.7192,-1.709,-1.7146,-1.7253,-1.7421,-1.7008,-1.6985,-1.7442,-1.7087,-1.6725,-1.6423,-1.6575,-1.6369,-1.5763,-1.5897,-1.5618,0.0,0.0,0.0,0.0,-1.4012,-1.4025,-1.4054,-1.4693,-1.4941,-1.5038,-1.6397,-1.7331,-1.7883,-1.7833,-1.776,-1.7698,-1.7635,-1.7531,-1.7401,-1.7326,-1.7277,-1.7378,-1.7967,-1.8234,-1.8476,-1.9282,-1.9548,-1.9629,-1.9687,-1.9714,-1.97,-1.965,-1.965,-1.9634,-1.9601,-1.9651,-1.9704,-1.9704,-1.9138,-1.8639,-1.8602,-1.802,-1.7548,0.0,0.0,0.0,-1.7692,-1.7749,-1.7811,-1.7872,-1.7933,-1.8256,-1.8967,-1.9028,-1.9622,-2.1126,-2.1861,-2.2885,-2.4372,-2.5811,-2.73,-2.884,-3.033,-3.1799,-3.3267,-3.392,-3.4851,-3.608,-3.6671,-3.7081,-3.7263,-3.8023,-3.8004,-3.7417,-3.7358,-3.748,-3.7729,-3.8263,-3.876,-3.9215,-3.9567,-3.9727,-3.9938,-4.1196,-4.2376,-4.329,-1.109,-1.2587,-1.3947,-1.4437,-1.5238,-1.6148,-1.7124,-1.7429,-1.79,-1.8812,-1.895,-1.9047,-1.9291,-1.9184,-1.8887,-1.8322,-1.8278,-1.8157,-1.7859,-1.7914,-1.8128,-1.8501,-1.8135,-1.7978,-1.8085,-1.7738,-1.7258,-1.6593,-1.6784,-1.6461,-1.5723,0.0,0.0,0.0,-1.5741,-1.5725,-1.5679,-1.5799,-1.6089,-1.6511,-1.737,-1.7802,-1.7883,-1.7833,-1.7789,-1.7777,-1.7704,-1.7607,-1.7531,-1.7413,-1.7691,-1.8204,-1.886,-1.9451,-2.0066,-2.0876,-2.1134,-2.1147,-2.122,-2.1234,-2.1102,-2.0539,-2.0423,-2.0274,-1.9717,-1.9598,-1.9641,-1.9641,-1.9475,-1.9177,-1.863,-1.8369,-1.8087,0.0,0.0,0.0,-1.7612,-1.7647,-1.7658,-1.767,-1.7681,-1.7845,-1.8177,-1.8699,-1.9377,-2.0259,-2.1055,-2.2138,-2.3596,-2.4558,-2.5743,-2.7232,-2.8773,-3.0222,-3.1591,-3.2765,-3.3695,-3.4432,-3.5867,-3.6548,-3.6508,-3.7313,-3.7565,-3.7387,-3.6922,-3.7049,-3.7586,-3.7984,-3.8405,-3.8901,-3.9461,-4.0227,-4.1033,-4.134,-4.2246,-4.329,-1.2271,-1.3559,-1.4799,-1.5359,-1.608,-1.6818,-1.752,-1.7978,-1.8608,-1.964,-1.9909,-2.0058,-2.0156,-2.0083,-1.9808,-1.9321,-1.9273,-1.9193,-1.9031,-1.8934,-1.9044,-1.9409,-1.9044,-1.893,-1.9177,-1.8668,-1.8239,-1.7849,-1.7737,-1.7288,-1.6541,0.0,0.0,0.0,-1.6369,-1.6377,-1.6354,-1.658,-1.7013,-1.7593,-1.792,-1.8005,0.0,-1.7833,-1.78,-1.78,-1.776,-1.7704,-1.7657,-1.7825,-1.8133,-1.8607,-1.9569,-2.0193,-2.0695,-2.1508,-2.1768,-2.1812,-2.1869,-2.1869,-2.174,-2.134,-2.1211,-2.1083,-2.0671,-2.0558,-2.0558,-2.0558,-2.0309,-1.9959,-1.9545,-1.92,-1.8754,-1.8054,-1.7693,-1.7512,-1.7542,-1.7566,-1.7561,-1.7561,-1.7561,-1.7595,-1.771,-1.8143,-1.8865,-1.9921,-2.042,-2.1465,-2.3291,-2.4101,-2.5185,-2.664,-2.8144,-2.9574,-3.0978,-3.2226,-3.3128,-3.3644,-3.5459,-3.6142,-3.5822,-3.6914,-3.7268,-3.6983,-3.6631,-3.6951,-3.7724,-3.784,-3.8383,-3.9169,-3.9439,-4.0327,-4.1422,-4.1422,-4.2207,-4.329,-1.3612,-1.4454,-1.5281,-1.5786,-1.6708,-1.7507,-1.7918,-1.8588,-1.9314,-2.0047,-2.056,-2.0745,-2.0478,-2.0375,-2.0252,-2.0076,-2.0025,-2.0113,-2.0304,-1.9899,-1.983,-2.022,-1.9833,-1.973,-1.9943,-1.9471,-1.9189,-1.9115,-1.8661,-1.8071,0.0,0.0,0.0,-1.6604,-1.6671,-1.6722,-1.6741,-1.724,-1.7792,-1.8298,-1.8183,-1.807,-1.7983,-1.7856,-1.7879,-1.7935,-1.7935,-1.7901,-1.7916,-1.8389,-1.8676,-1.9031,-2.0198,-2.0673,-2.0926,-2.1628,-2.1869,-2.1943,-2.1984,-2.1955,-2.1897,-2.1913,-2.1855,-2.1796,-2.1812,-2.1812,-2.1812,-2.1812,-2.1298,-2.0801,-2.0718,-2.0108,-1.9353,-1.8608,-1.8,-1.7593,-1.7493,-1.7484,-1.7479,-1.7479,-1.7479,0.0,-1.7479,-1.7607,-1.8326,-1.9854,-1.9993,-2.0948,-2.3124,-2.4051,-2.5083,-2.637,-2.7971,-2.9414,-3.0673,-3.2031,-3.2869,-3.3261,-3.5205,-3.5828,-3.5351,-3.6697,-3.7013,-3.6492,-3.6429,-3.6974,-3.794,-3.7756,-3.8456,-3.9661,-3.9445,-4.0232,-4.1422,-4.1422,-4.2207,-4.329,-1.5513,-1.5978,-1.6412,-1.6801,-1.7636,-1.856,-1.94,-1.9681,-2.0094,-2.0894,-2.1023,-2.0973,-2.0761,-2.0578,-2.0441,-2.0337,-2.0285,-2.0302,-2.0388,-2.0451,-2.062,-2.0911,-2.0494,-2.0393,-2.0699,-2.0183,-1.9682,-1.9178,-1.921,-1.8839,0.0,0.0,-1.8327,-1.8188,-1.8324,-1.8342,-1.8306,-1.8289,-1.834,-1.8373,-1.8236,-1.8108,-1.7994,-1.7911,-1.8229,-1.8707,-1.8707,-1.866,-1.8617,-1.8716,-1.9554,-2.0602,-2.0838,-2.1306,-2.1788,-2.1919,-2.1969,-2.1984,-2.1998,-2.1998,-2.1969,-2.1911,-2.1899,-2.1869,-2.1811,-2.1812,-2.1812,-2.1812,-2.1696,-2.1431,-2.0801,-2.0108,-1.9353,-1.8608,-1.8364,-1.8058,-1.7502,-1.7366,-1.7338,-1.7338,-1.7338,-1.7338,-1.7338,-1.7512,-1.8227,-1.9731,-1.9942,-2.0722,-2.2329,-2.3735,-2.4609,-2.488,-2.7432,-2.8873,-2.9011,-3.1473,-3.256,-3.2346,-3.4671,-3.5621,-3.5322,-3.6239,-3.6616,-3.6492,-3.6022,-3.6569,-3.7756,-3.7522,-3.8232,-3.9445,-3.9409,-4.0232,-4.1422,-4.1422,-4.2207,-4.329,-1.7111,-1.7378,-1.7624,-1.7924,-1.8653,-1.9357,-1.9874,-2.0241,-2.0639,-2.1135,-2.1071,-2.0941,-2.076,-2.0595,-2.0426,-2.0254,-2.0202,-2.0252,-2.0339,-2.0475,-2.0678,-2.0974,-2.0907,-2.1002,-2.1311,-2.0827,-2.0471,-2.0245,-2.0015,-1.9577,-1.8937,-1.9089,-1.8978,-1.8612,-1.8733,-1.8788,-1.8778,-1.9053,-1.9109,-1.9004,-1.9282,-1.9326,-1.9241,-1.9166,-1.9341,-1.9612,-1.9593,-1.9806,-2.0078,-1.9972,-2.0407,-2.1065,-2.141,-2.1745,-2.2013,-2.2075,-2.2106,-2.212,-2.2163,-2.2135,-2.2106,-2.2063,-2.1986,-2.1926,-2.1869,-2.1855,-2.184,-2.1812,-2.1812,-2.1696,-2.1332,-2.0671,-2.0045,-1.9657,-1.9237,-1.8822,-1.8431,-1.8003,-1.7691,-1.7669,-1.736,-1.7149,-1.7149,-1.7277,-1.8025,-1.9584,-1.9822,-2.0572,-2.2115,-2.3622,-2.4446,-2.4447,-2.721,-2.8624,-2.8453,-3.1067,-3.218,-3.1814,-3.4308,-3.5259,-3.4852,-3.5997,-3.6352,-3.6085,-3.5816,-3.6391,-3.7582,-3.8202,-3.8805,-3.9388,-3.9388,-4.0232,-4.1422,-4.1422,-4.2207,-4.329,-1.8485,-1.8641,-1.8794,-1.902,-1.9607,-2.0083,-2.0223,-2.0591,-2.0926,-2.1151,-2.1006,-2.0828,-2.0727,-2.0577,-2.0392,-2.0168,-2.0133,-2.0133,-2.0235,-2.0323,-2.0512,-2.0795,-2.1103,-2.1371,-2.1632,-2.1347,-2.117,-2.117,-2.078,-2.0304,-1.9717,-1.9857,-1.9648,-1.9148,-1.926,-1.9315,-1.9341,-1.9868,-1.9984,-1.985,-2.035,-2.0494,-2.0405,-2.035,-2.0416,-2.0528,-2.0466,-2.093,-2.1534,-2.138,-2.1295,-2.1372,-2.1902,-2.2073,-2.2073,-2.2197,-2.2228,-2.2225,-2.2282,-2.2254,-2.2228,-2.2214,-2.212,-2.203,-2.1926,-2.1897,-2.1899,-2.1825,-2.1796,-2.1812,-2.1812,-2.1317,-2.0841,-2.0621,-2.0073,-1.9579,-1.9318,-1.8688,-1.8221,-1.8182,-1.769,-1.7305,-1.7187,-1.7404,-1.8108,-1.9431,-1.9674,-2.0445,-2.2056,-2.3547,-2.4369,-2.4354,-2.7086,-2.8455,-2.8298,-3.0811,-3.1876,-3.1526,-3.4058,-3.4964,-3.446,-3.5784,-3.6132,-3.5688,-3.5671,-3.6325,-3.7509,-3.8871,-3.9388,-3.9388,-3.9388,-4.0232,-4.1422,-4.1422,-4.2207,-4.329,-1.9625,-1.9703,-1.9795,-1.9872,-2.04,-2.083,-2.0991,-2.0844,-2.0809,-2.107,-2.0925,-2.0811,-2.0794,-2.056,-2.0356,-2.0287,-2.0168,-2.008,-2.0041,-2.02,-2.039,-2.0544,-2.0909,-2.1214,-2.1417,-2.1668,-2.1551,-2.1019,-2.1198,-2.0992,-2.0408,-2.0613,-2.0788,-2.0964,-2.0964,-2.0974,-2.0982,-2.1039,-2.0961,-2.0756,-2.0705,-2.061,-2.0476,-2.0422,-2.0774,-2.1293,-2.128,-2.1763,-2.2368,-2.2371,-2.2289,-2.2181,-2.2248,-2.2265,-2.2265,-2.2282,-2.2282,-2.2282,-2.2296,-2.2296,-2.2268,-2.2228,-2.2183,-2.2137,-2.2013,-2.194,-2.1913,-2.1899,-2.184,-2.1812,-2.1812,-2.1687,-2.138,-2.072,-2.0384,-1.9996,-1.9317,-1.894,-1.8732,-1.8732,-1.8627,-1.8342,-1.7777,-1.8341,-1.8885,-1.9211,-1.9457,-2.0293,-2.1845,-2.3391,-2.4225,-2.4209,-2.6889,-2.8318,-2.8298,-3.0772,-3.1838,-3.1526,-3.3954,-3.488,-3.4431,-3.5538,-3.5926,-3.5688,-3.5572,-3.6222,-3.7509,-3.8871,-3.9388,-3.9388,-3.9388,-4.0232,-4.1422,-4.1422,-4.2207,-4.329,-2.0623,-2.0623,-2.0655,-2.0764,-2.0974,-2.1087,-2.0941,-2.076,-2.0661,-2.0727,-2.0662,-2.0595,-2.056,-2.0424,-2.0285,-2.0131,-1.9993,-1.9904,-1.9884,-1.9955,-2.0098,-2.0357,-2.0611,-2.0893,-2.1214,-2.1556,-2.1678,-2.1605,-2.1878,-2.173,-2.1222,-2.1377,-2.1383,-2.1267,-2.1209,-2.1219,-2.1293,-2.1695,-2.1736,-2.1595,-2.1978,-2.2033,-2.1878,-2.1853,-2.1975,-2.2168,-2.2133,-2.2308,-2.2538,-2.2515,-2.246,-2.2405,-2.2363,-2.2366,-2.2352,-2.231,-2.2296,-2.2296,-2.2296,-2.2296,-2.2296,-2.2285,-2.2254,-2.224,-2.2152,-2.2046,-2.1955,-2.1897,-2.1811,-2.1738,-2.1738,-2.1694,-2.152,-2.1133,-2.098,-2.0745,-2.0286,-1.9749,-1.9372,-1.9233,-1.8841,-1.8481,-1.8244,-1.855,-1.9031,-1.964,-1.9978,-2.0633,-2.1776,-2.3298,-2.4146,-2.4146,-2.6834,-2.8204,-2.799,-3.0471,-3.1534,-3.1239,-3.3556,-3.4488,-3.4119,-3.5305,-3.5735,-3.5617,-3.633,-3.6941,-3.7509,-3.8871,-3.9388,-3.9388,-3.9388,-4.0232,-4.1422,-4.1422,-4.2207,-4.329,-2.1199,-2.1183,-2.1183,-2.1277,-2.1262,-2.1151,-2.0925,-2.0694,-2.0527,-2.0494,-2.046,-2.0441,-2.0405,-2.0304,-2.0183,-2.0023,-1.9884,-1.978,-1.9762,-1.978,-1.9919,-2.02,-2.0375,-2.0628,-2.0974,-2.1309,-2.1602,-2.1884,-2.2147,-2.2157,-2.1948,-2.2169,-2.2162,-2.1947,-2.1947,-2.1967,-2.2034,-2.2507,-2.2609,-2.2475,-2.2934,-2.3033,-2.2838,-2.2816,-2.2764,-2.2699,-2.2646,-2.2619,-2.2619,-2.2565,-2.2569,-2.2538,-2.246,-2.2422,-2.2377,-2.2352,-2.2324,-2.2296,-2.2296,-2.2296,-2.2296,-2.2296,-2.2282,-2.2254,-2.2214,-2.2092,-2.194,-2.1855,-2.1768,-2.1694,-2.1679,-2.1573,-2.1481,-2.1402,-2.1261,-2.1103,-2.0909,-2.0367,-1.9955,-1.9777,-1.9324,-1.8967,-1.8781,-1.903,-1.9405,-1.9891,-2.0405,-2.1002,-2.1735,-2.3205,-2.4033,-2.4,-2.6706,-2.8125,-2.8058,-3.0293,-3.1446,-3.1539,-3.3491,-3.4315,-3.4152,-3.519,-3.5709,-3.5848,-3.6941,-3.7524,-3.7778,-3.8945,-3.9388,-3.9388,-3.9388,-4.0232,-4.1422,-4.1422,-4.2207,-4.329,-2.1293,-2.1293,-2.1293,-2.1293,-2.1183,-2.1103,-2.1103,-2.0711,-2.041,-2.041,-2.034,-2.0321,-2.0388,-2.022,-2.008,-2.0005,-1.9884,-1.9762,-1.9708,-1.9762,-1.9866,-2.0005,-2.0272,-2.051,-2.0693,-2.1038,-2.1341,-2.1604,-2.1869,-2.2172,-2.2497,-2.2977,-2.3283,-2.347,-2.3616,-2.3664,-2.3664,-2.3682,-2.3611,-2.3464,-2.3277,-2.3132,-2.2977,-2.2855,-2.2764,-2.2699,-2.2699,-2.2699,-2.2699,-2.2699,-2.2699,-2.2672,-2.2542,-2.2446,-2.2391,-2.2391,-2.2352,-2.2296,-2.2296,-2.2296,-2.2296,-2.2296,-2.224,-2.22,-2.22,-2.2049,-2.1869,-2.1723,-2.1709,-2.1679,-2.1603,-2.1434,-2.1293,-2.1293,-2.1071,-2.0893,-2.0811,-2.0613,-2.0477,-2.0407,-2.0323,-2.0028,-1.9446,-1.9987,-2.0229,-1.983,-2.0607,-2.1277,-2.1679,-2.311,-2.3869,-2.3803,-2.6409,-2.809,-2.8677,-3.0362,-3.1724,-3.28,-3.3882,-3.4515,-3.4691,-3.5254,-3.5863,-3.6507,-3.7135,-3.7778,-3.8437,-3.9125,-3.9388,-3.9388,-3.9388,-4.0232,-4.1422,-4.1422,-4.2207,-4.329,-2.1293,-2.1293,-2.1293,-2.1293,-2.1087,-2.0892,-2.0892,-2.0561,-2.0323,-2.0323,-2.0321,-2.0304,-2.0321,-2.0148,-2.0025,-2.0005,-1.9848,-1.9726,-1.9708,-1.9726,-1.9762,-1.9866,-2.008,-2.0291,-2.0494,-2.0828,-2.1135,-2.1403,-2.1706,-2.213,-2.2646,-2.2932,-2.3205,-2.3448,-2.351,-2.3596,-2.3629,-2.3629,-2.3544,-2.3407,-2.3313,-2.3193,-2.304,-2.2932,-2.2829,-2.2764,-2.2712,-2.2699,-2.2699,-2.2699,-2.2699,-2.2699,-2.2646,-2.2579,-2.2528,-2.2419,-2.2377,-2.2366,-2.231,-2.2285,-2.2242,-2.2242,-2.2152,-2.2058,-2.2058,-2.1943,-2.1781,-2.1664,-2.1527,-2.1418,-2.1403,-2.1278,-2.1151,-2.1151,-2.1023,-2.086,-2.0744,-2.061,-2.046,-2.0354,-2.0304,-2.0212,-2.0028,-2.0248,-2.0584,-2.1057,-2.1396,-2.1758,-2.2151,-2.3194,-2.4195,-2.5196,-2.6854,-2.8188,-2.9163,-3.0425,-3.156,-3.2542,-3.358,-3.4485,-3.5254,-3.54,-3.5863,-3.6522,-3.715,-3.7778,-3.8437,-3.9125,-3.9388,-3.9388,-3.9388,-4.0232,-4.1422,-4.1422,-4.2207,-4.329,-2.1293,-2.1293,-2.1246,-2.1135,-2.0942,-2.0761,-2.0628,-2.0426,-2.0304,-2.0304,-2.0304,-2.0304,-2.0304,-2.0113,-2.0005,-2.0005,-1.9815,-1.9708,-1.9708,-1.9708,-1.9726,-1.9762,-1.9904,-2.0083,-2.0273,-2.0596,-2.0909,-2.1214,-2.1661,-2.213,-2.2619,-2.2829,-2.304,-2.3289,-2.3407,-2.3505,-2.3562,-2.3585,-2.3551,-2.3453,-2.3348,-2.3241,-2.3132,-2.297,-2.2868,-2.279,-2.2725,-2.2699,-2.2699,-2.2699,-2.2699,-2.2699,-2.2699,-2.2672,-2.2605,-2.2474,-2.2419,-2.2394,-2.2324,-2.224,-2.22,-2.22,-2.2063,-2.1897,-2.1855,-2.1751,-2.1617,-2.1511,-2.1372,-2.1246,-2.1151,-2.1055,-2.0973,-2.0957,-2.0843,-2.0712,-2.0594,-2.0509,-2.0424,-2.0304,-2.0468,-2.0604,-2.0604,-2.087,-2.1283,-2.1882,-2.2037,-2.2469,-2.3332,-2.3997,-2.4769,-2.568,-2.7417,-2.8768,-2.9648,-3.0744,-3.1891,-3.3087,-3.4046,-3.4856,-3.5504,-3.5504,-3.5983,-3.6851,-3.724,-3.7928,-3.8811,-3.9245,-3.9388,-3.9454,-3.9694,-4.0442,-4.1452,-4.1692,-4.2417,-4.325,-2.1293,-2.1277,-2.1167,-2.086,-2.0778,-2.0662,-2.0356,-2.0304,-2.0304,-2.0304,-2.0304,-2.0304,-2.0304,-2.0113,-2.0005,-2.0005,-1.9815,-1.9708,-1.9708,-1.9708,-1.9708,-1.9708,-1.9762,-1.9887,-2.0098,-2.0357,-2.0695,-2.1103,-2.169,-2.2144,-2.2457,-2.2685,-2.2893,-2.3095,-2.3289,-2.3424,-2.3494,-2.3551,-2.3573,-2.3562,-2.336,-2.3253,-2.318,-2.2965,-2.2868,-2.279,-2.2725,-2.2699,-2.2699,-2.2699,-2.2699,-2.2699,-2.2699,-2.2699,-2.2672,-2.2538,-2.246,-2.2377,-2.2324,-2.2254,-2.2183,-2.2168,-2.1976,-2.1738,-2.1603,-2.1481,-2.1355,-2.1293,-2.1215,-2.1103,-2.0926,-2.0828,-2.0745,-2.071,-2.0594,-2.0492,-2.0467,-2.0467,-2.0448,-2.0443,-2.0875,-2.1167,-2.1167,-2.1732,-2.2202,-2.2424,-2.2607,-2.3424,-2.5025,-2.5412,-2.5564,-2.5612,-2.8057,-2.9616,-3.0155,-3.1289,-3.2643,-3.4241,-3.5082,-3.5504,-3.5504,-3.5549,-3.6252,-3.7404,-3.7415,-3.8177,-3.9388,-3.9337,-3.9337,-3.9412,-4.0106,-4.0763,-4.1459,-4.2117,-4.2737,-4.321,-2.1293,-2.1087,-2.0893,-2.0811,-2.0578,-2.039,-2.0304,-2.0304,-2.0304,-2.0304,-2.0304,-2.0304,-2.0304,-2.0113,-2.0005,-2.0005,-1.9815,-1.9708,-1.9708,-1.9708,-1.9708,-1.9708,-1.9762,-1.9884,-2.0008,-2.0235,-2.0595,-2.1103,-2.1495,-2.1842,-2.2113,-2.2426,-2.2672,-2.2881,-2.3082,-2.3217,-2.3277,-2.3336,-2.336,-2.336,-2.3265,-2.3193,-2.3107,-2.2957,-2.2868,-2.279,-2.2659,-2.2659,-2.2685,-2.2632,-2.2659,-2.2699,-2.2699,-2.2699,-2.2685,-2.2592,-2.2542,-2.246,-2.2391,-2.222,-2.203,-2.1972,-2.1721,-2.1463,-2.1403,-2.1278,-2.1135,-2.1023,-2.0893,-2.0809,-2.076,-2.0645,-2.0561,-2.0544,-2.0527,-2.0663,-2.1107,-2.1151,-2.1332,-2.1766,-2.1838,-2.1854,-2.1854,-2.1965,-2.2522,-2.3728,-2.3881,-2.4606,-2.6217,-2.6835,-2.7336,-2.7678,-2.8647,-2.9682,-3.0797,-3.1761,-3.3043,-3.4589,-3.5212,-3.5504,-3.5519,-3.6028,-3.6671,-3.7434,-3.7784,-3.8383,-3.9141,-3.9017,-3.8943,-3.9017,-3.9683,-4.0349,-4.1,-4.1651,-4.2287,-4.2809,-2.1293,-2.1023,-2.0794,-2.0794,-2.051,-2.0304,-2.0304,-2.0304,-2.0304,-2.0304,-2.0304,-2.0304,-2.0304,-2.0113,-2.0005,-2.0005,-1.9815,-1.9708,-1.9708,-1.9708,-1.9708,-1.9708,-1.9762,-1.9866,-2.0005,-2.02,-2.0561,-2.1103,-2.145,-2.1708,-2.1955,-2.2276,-2.2515,-2.2712,-2.2893,-2.302,-2.3102,-2.3217,-2.3241,-2.3205,-2.318,-2.3102,-2.3045,-2.2906,-2.2816,-2.2738,-2.2632,-2.2592,-2.2605,-2.2592,-2.2619,-2.2659,-2.2685,-2.2699,-2.2699,-2.2659,-2.2582,-2.2487,-2.2419,-2.2203,-2.1955,-2.172,-2.1509,-2.1308,-2.1151,-2.1039,-2.0925,-2.0827,-2.0677,-2.0559,-2.0509,-2.0458,-2.0392,-2.034,-2.0638,-2.0978,-2.1299,-2.1623,-2.1929,-2.2259,-2.2428,-2.2635,-2.2935,-2.3172,-2.3758,-2.4904,-2.5024,-2.5652,-2.6954,-2.7659,-2.8163,-2.8537,-2.9415,-3.0322,-3.1275,-3.2478,-3.362,-3.4691,-3.5239,-3.5504,-3.5534,-3.6193,-3.6787,-3.7277,-3.7842,-3.8424,-3.8943,-3.876,-3.8649,-3.8752,-3.9578,-4.0217,-4.0773,-4.1674,-4.2313,-4.2648,-2.1293,-2.1023,-2.0794,-2.0794,-2.051,-2.0304,-2.0304,-2.0304,-2.0304,-2.0304,-2.0304,-2.0287,-2.027,-2.0129,-2.0005,-1.997,-1.9797,-1.9708,-1.9708,-1.9708,-1.9726,-1.9726,-1.978,-1.9884,-2.0008,-2.0218,-2.0577,-2.1039,-2.1372,-2.1648,-2.1884,-2.2135,-2.2363,-2.2569,-2.2712,-2.2842,-2.2952,-2.3095,-2.3102,-2.3082,-2.307,-2.3003,-2.2944,-2.2816,-2.2725,-2.2659,-2.2592,-2.2542,-2.2515,-2.2538,-2.2579,-2.2605,-2.2659,-2.2685,-2.2699,-2.2699,-2.2605,-2.2501,-2.2432,-2.2203,-2.1882,-2.1509,-2.1324,-2.1183,-2.0942,-2.0795,-2.0711,-2.0644,-2.0491,-2.032,-2.027,-2.0345,-2.0371,-2.0251,-2.0906,-2.147,-2.1563,-2.2086,-2.2517,-2.2697,-2.3076,-2.3572,-2.4212,-2.4678,-2.5198,-2.5898,-2.6052,-2.6572,-2.7586,-2.817,-2.8667,-2.9031,-3.0264,-3.1254,-3.1925,-3.3342,-3.4288,-3.4841,-3.5299,-3.5504,-3.5534,-3.6249,-3.679,-3.7134,-3.7804,-3.8332,-3.8671,-3.8478,-3.8366,-3.846,-3.9571,-4.0157,-4.0504,-4.1802,-4.2377,-4.2526,-2.1293,-2.1023,-2.0794,-2.0794,-2.051,-2.0304,-2.0304,-2.0304,-2.0304,-2.0304,-2.0304,-2.0252,-2.0146,-2.0093,-2.0023,-1.9848,-1.9744,-1.9708,-1.9708,-1.9744,-1.978,-1.978,-1.9902,-2.0008,-2.008,-2.034,-2.0595,-2.0844,-2.1119,-2.1419,-2.1738,-2.1943,-2.2161,-2.2349,-2.2555,-2.2672,-2.2751,-2.2829,-2.2893,-2.2932,-2.2881,-2.2803,-2.2738,-2.2659,-2.2579,-2.2528,-2.246,-2.246,-2.2501,-2.2446,-2.2515,-2.2592,-2.2605,-2.2646,-2.2699,-2.2699,-2.2646,-2.2582,-2.2501,-2.2161,-2.1766,-2.1479,-2.1166,-2.0942,-2.0844,-2.0595,-2.0373,-2.0356,-2.02,-2.0058,-2.0058,-2.0515,-2.0877,-2.0859,-2.15,-2.2168,-2.2749,-2.3012,-2.3523,-2.4539,-2.4676,-2.4916,-2.5477,-2.5498,-2.5805,-2.66,-2.6645,-2.7285,-2.8677,-2.8845,-2.9448,-3.0601,-3.1162,-3.2133,-3.3527,-3.4227,-3.484,-3.5387,-3.5459,-3.5504,-3.5549,-3.6544,-3.702,-3.7149,-3.7879,-3.8227,-3.8277,-3.7877,-3.7725,-3.7854,-3.9115,-3.9602,-3.98,-4.109,-4.1675,-4.1868,-2.134,-2.1183,-2.1006,-2.0827,-2.051,-2.0304,-2.0304,-2.0304,-2.0304,-2.0304,-2.0304,-2.0285,-2.0216,-2.0076,-1.9937,-1.9866,-1.9762,-1.9726,-1.9744,-1.978,-1.983,-1.9902,-1.9993,-2.0115,-2.027,-2.0492,-2.0677,-2.0794,-2.1071,-2.1309,-2.1541,-2.1781,-2.2017,-2.2251,-2.2377,-2.2501,-2.2609,-2.2659,-2.2685,-2.2685,-2.2685,-2.2646,-2.2579,-2.2569,-2.2501,-2.2432,-2.2405,-2.2408,-2.2391,-2.2391,-2.246,-2.2555,-2.2579,-2.2672,-2.2751,-2.2751,-2.2659,-2.2528,-2.2374,-2.2061,-2.1738,-2.1433,-2.1119,-2.0845,-2.0695,-2.046,-2.0379,-2.0678,-2.0576,-2.0551,-2.0899,-2.1216,-2.1428,-2.1428,-2.2085,-2.2696,-2.3,-2.3712,-2.442,-2.4981,-2.5265,-2.5674,-2.6283,-2.621,-2.6581,-2.768,-2.778,-2.8267,-2.9376,-2.9781,-3.0303,-3.098,-3.1888,-3.2808,-3.3774,-3.4391,-3.4958,-3.5504,-3.5504,-3.5504,-3.5534,-3.6276,-3.6714,-3.696,-3.7485,-3.7837,-3.7991,-3.7495,-3.7264,-3.7392,-3.8396,-3.8874,-3.9137,-4.0491,-4.1156,-4.1339,-2.1595,-2.1356,-2.1183,-2.086,-2.051,-2.0304,-2.0304,-2.0304,-2.027,-2.0183,-2.015,-2.015,-2.015,-1.999,-1.9848,-1.9848,-1.9762,-1.9744,-1.9848,-1.9848,-1.9919,-2.0061,-2.015,-2.0272,-2.0423,-2.0609,-2.0727,-2.0794,-2.1038,-2.1246,-2.1371,-2.1646,-2.1886,-2.212,-2.2192,-2.229,-2.2415,-2.2501,-2.2501,-2.246,-2.2484,-2.247,-2.2432,-2.2402,-2.2346,-2.2304,-2.2335,-2.2324,-2.2282,-2.2349,-2.2432,-2.2515,-2.2569,-2.2672,-2.2803,-2.2803,-2.2672,-2.2501,-2.2276,-2.2017,-2.1736,-2.1387,-2.1103,-2.0843,-2.073,-2.0588,-2.0597,-2.1145,-2.1129,-2.1162,-2.1693,-2.1904,-2.2009,-2.2009,-2.2803,-2.3409,-2.3409,-2.4483,-2.5272,-2.5402,-2.5772,-2.6275,-2.6913,-2.7035,-2.7485,-2.8517,-2.8742,-2.9169,-2.991,-3.0461,-3.0923,-3.1339,-3.2517,-3.3411,-3.3939,-3.457,-3.5091,-3.5504,-3.5504,-3.5504,-3.5487,-3.593,-3.6399,-3.6825,-3.7048,-3.7391,-3.7739,-3.7148,-3.6999,-3.7158,-3.7896,-3.8394,-3.8797,-4.0081,-4.0716,-4.0972,-2.2297,-2.151,-2.1183,-2.086,-2.051,-2.0304,-2.0304,-2.0304,-2.0166,-1.9797,-1.9744,-1.9744,-1.9744,-1.9726,-1.9708,-1.9708,-1.9708,-1.978,-1.997,-1.9988,-2.0061,-2.027,-2.0392,-2.0477,-2.0494,-2.0627,-2.0727,-2.0794,-2.1006,-2.1183,-2.1309,-2.1572,-2.1753,-2.1842,-2.1955,-2.2087,-2.222,-2.222,-2.2265,-2.231,-2.2251,-2.222,-2.2206,-2.207,-2.2041,-2.2058,-2.2166,-2.2214,-2.2228,-2.2282,-2.2391,-2.2501,-2.2515,-2.2632,-2.2803,-2.2803,-2.2751,-2.2619,-2.2349,-2.2106,-2.1811,-2.1402,-2.1055,-2.0901,-2.1248,-2.1118,-2.1113,-2.165,-2.1684,-2.1655,-2.1699,-2.2209,-2.2628,-2.2628,-2.3777,-2.4664,-2.4664,-2.5395,-2.6122,-2.6609,-2.6705,-2.6943,-2.749,-2.8094,-2.8487,-2.8592,-2.916,-2.9816,-3.0402,-3.0505,-3.1104,-3.2362,-3.3216,-3.3969,-3.4632,-3.5164,-3.5459,-3.5504,-3.5504,-3.5504,-3.5487,-3.5781,-3.6247,-3.679,-3.6764,-3.6964,-3.7303,-3.6889,-3.6922,-3.7329,-3.7952,-3.8546,-3.9154,-3.9804,-4.0343,-4.073,-2.4762,-2.2785,-2.1183,-2.086,-2.0695,-2.0544,-2.0321,-2.0304,-2.0166,-1.9762,-1.9708,-1.9708,-1.9708,-1.9708,-1.9708,-1.9708,-1.9708,-1.978,-1.9988,-2.0005,-2.0111,-2.0354,-2.0526,-2.0627,-2.0627,-2.0711,-2.0761,-2.0794,-2.0909,-2.1039,-2.1183,-2.1372,-2.1542,-2.1679,-2.1783,-2.1871,-2.1945,-2.1945,-2.1976,-2.1991,-2.1959,-2.1945,-2.1945,-2.1943,-2.194,-2.194,-2.203,-2.2137,-2.2214,-2.2242,-2.2324,-2.2446,-2.2487,-2.2605,-2.2751,-2.279,-2.3119,-2.3388,-2.3071,-2.2794,-2.2491,-2.2133,-2.2064,-2.2083,-2.2027,-2.1807,-2.1758,-2.231,-2.2374,-2.2433,-2.2802,-2.3086,-2.3385,-2.3819,-2.4335,-2.4822,-2.5227,-2.5918,-2.6438,-2.6645,-2.7035,-2.7545,-2.8169,-2.8442,-2.8936,-2.9714,-3.0013,-3.0447,-3.1077,-3.1496,-3.2168,-3.3095,-3.3815,-3.4311,-3.4566,-3.5192,-3.5504,-3.5504,-3.5504,-3.5504,-3.5472,-3.5333,-3.5829,-3.6761,-3.6288,-3.6607,-3.7433,-3.6786,-3.683,-3.7317,-3.7633,-3.815,-3.8751,-3.9541,-4.0023,-4.0314,-2.6221,-2.4275,-2.2295,-2.1166,-2.0876,-2.0678,-2.0356,-2.0304,-2.0166,-1.9762,-1.9708,-1.9708,-1.9708,-1.9708,-1.9872,-2.0292,-2.0337,-2.0321,-2.0306,-2.02,-2.0233,-2.0424,-2.0627,-2.0727,-2.0727,-2.0777,-2.0794,-2.0777,-2.086,-2.0942,-2.1006,-2.1199,-2.1341,-2.1481,-2.1542,-2.1602,-2.1631,-2.1631,-2.1631,-2.1631,-2.1631,-2.1631,-2.1663,-2.1721,-2.1735,-2.1749,-2.1882,-2.2003,-2.2097,-2.2168,-2.2268,-2.2377,-2.2474,-2.2623,-2.279,-2.3067,-2.3486,-2.3853,-2.3796,-2.3716,-2.3535,-2.2932,-2.2851,-2.2854,-2.2742,-2.2516,-2.2475,-2.3004,-2.3035,-2.3182,-2.3804,-2.3924,-2.4126,-2.4814,-2.5083,-2.5382,-2.5854,-2.6482,-2.6926,-2.6926,-2.751,-2.8083,-2.8562,-2.8966,-2.9564,-3.0432,-3.0717,-3.1092,-3.178,-3.2243,-3.2901,-3.3784,-3.4279,-3.4608,-3.4801,-3.5265,-3.5504,-3.5504,-3.5504,-3.5504,-3.5504,-3.5082,-3.5608,-3.6746,-3.6086,-3.6453,-3.7471,-3.685,-3.6981,-3.7579,-3.7604,-3.8088,-3.8894,-3.939,-3.9747,-4.0053,-2.6274,-2.5877,-2.4691,-2.1827,-2.1038,-2.0678,-2.0356,-2.0304,-2.0166,-1.9762,-1.9708,-1.9708,-1.9708,-1.9723,-2.0277,-2.159,-2.171,-2.1503,-2.1034,-2.0635,-2.044,-2.0494,-2.0695,-2.0794,-2.0794,-2.0794,-2.0777,-2.0693,-2.0828,-2.086,-2.0794,-2.1071,-2.1199,-2.1199,-2.1262,-2.1309,-2.1309,-2.1309,-2.1309,-2.1309,-2.1309,-2.1293,-2.1293,-2.1371,-2.1402,-2.1433,-2.1691,-2.1812,-2.1842,-2.2111,-2.224,-2.2324,-2.246,-2.2632,-2.2959,-2.3673,-2.3874,-2.3935,-2.4454,-2.489,-2.4928,-2.3696,-2.3151,-2.2996,-2.3332,-2.3202,-2.3157,-2.3704,-2.3696,-2.3819,-2.4485,-2.4605,-2.4829,-2.551,-2.6168,-2.6587,-2.6602,-2.718,-2.76,-2.76,-2.8188,-2.8607,-2.8607,-2.9759,-3.0507,-3.0507,-3.1122,-3.1795,-3.2452,-3.2497,-3.3125,-3.4474,-3.4518,-3.4848,-3.5489,-3.5504,-3.5504,-3.5504,-3.5504,-3.5504,-3.5504,-3.5082,-3.5608,-3.6781,-3.6215,-3.6513,-3.7303,-3.7109,-3.7484,-3.8186,-3.7908,-3.8591,-3.9642,-3.9394,-3.9601,-3.9996,-2.6274,-2.5877,-2.5322,-2.4464,-2.2366,-2.0678,-2.0356,-2.0304,-2.0252,-2.0148,-1.9869,-1.9708,-1.9708,-2.1335,-2.2592,-2.2996,-2.3026,-2.2645,-2.1766,-2.1237,-2.1016,-2.1124,-2.0878,-2.0744,-2.0794,-2.076,-2.0726,-2.0693,-2.0645,-2.0596,-2.0595,-2.076,-2.0859,-2.0859,-2.0909,-2.0958,-2.0958,-2.0958,-2.0958,-2.0958,-2.0958,-2.0974,-2.1039,-2.1151,-2.1246,-2.1356,-2.1463,-2.1631,-2.1796,-2.1886,-2.2065,-2.2254,-2.2377,-2.2884,-2.3471,-2.3638,-2.4459,-2.5307,-2.5186,-2.5564,-2.5692,-2.4531,-2.4308,-2.4339,-2.4206,-2.3928,-2.3718,-2.3794,-2.4137,-2.4491,-2.4702,-2.5191,-2.5757,-2.6341,-2.6603,-2.6874,-2.724,-2.7465,-2.7779,-2.8233,-2.8472,-2.8951,-2.9849,-3.0283,-3.0717,-3.1167,-3.1809,-3.2273,-3.2497,-3.338,-3.4099,-3.4503,-3.4951,-3.5295,-3.5504,-3.5504,-3.5504,-3.5504,-3.5504,-3.5504,-3.5504,-3.5213,-3.571,-3.6781,-3.6372,-3.6785,-3.7701,-3.7341,-3.751,-3.8014,-3.8186,-3.8684,-3.93,-3.9669,-4.0009,-4.0298,-2.6239,-2.5877,-2.5597,-2.5597,-2.3852,-2.1969,-2.0526,-2.0304,-2.069,-2.1735,-2.1667,-2.1515,-2.1515,-2.2755,-2.3595,-2.3595,-2.3413,-2.3038,-2.2434,-2.1885,-2.1636,-2.1802,-2.1521,-2.1175,-2.076,-2.0726,-2.0676,-2.0627,-2.0544,-2.0477,-2.0458,-2.0577,-2.0627,-2.0627,-2.0662,-2.0678,-2.0678,-2.0678,-2.0678,-2.0678,-2.0678,-2.0712,-2.0762,-2.0876,-2.1022,-2.1119,-2.1277,-2.1449,-2.1616,-2.1768,-2.1991,-2.2304,-2.2677,-2.3193,-2.377,-2.4342,-2.5147,-2.5836,-2.5799,-2.5946,-2.5995,-2.5408,-2.5128,-2.4906,-2.4605,-2.4512,-2.4441,-2.4377,-2.4827,-2.5349,-2.5606,-2.6069,-2.6593,-2.7194,-2.7227,-2.7389,-2.8001,-2.803,-2.8233,-2.8906,-2.9205,-2.9654,-3.0432,-3.0746,-3.1167,-3.1839,-3.2258,-3.2736,-3.326,-3.4038,-3.4638,-3.4876,-3.5295,-3.5504,-3.5504,-3.5504,-3.5504,-3.5504,-3.5504,-3.5504,-3.5504,-3.5294,-3.5826,-3.6901,-3.6549,-3.7041,-3.7991,-3.7649,-3.7763,-3.815,-3.8486,-3.8922,-3.9409,-3.9818,-4.0154,-4.0399,-2.6202,-2.5877,-2.5597,-2.5597,-2.5275,-2.4036,-2.1151,-2.0727,-2.1571,-2.3994,-2.4302,-2.4302,-2.4302,-2.3909,-2.3653,-2.3595,-2.314,-2.2934,-2.3051,-2.2513,-2.2252,-2.2461,-2.2418,-2.1906,-2.0863,-2.0786,-2.0704,-2.0587,-2.0509,-2.0458,-2.0388,-2.0443,-2.0477,-2.0477,-2.0477,-2.0461,-2.046,-2.046,-2.046,-2.046,-2.046,-2.046,-2.0494,-2.061,-2.0711,-2.0811,-2.1071,-2.1215,-2.134,-2.1676,-2.2039,-2.2487,-2.3175,-2.3566,-2.4057,-2.5458,-2.5789,-2.5813,-2.6335,-2.6235,-2.6066,-2.6334,-2.5771,-2.5095,-2.4837,-2.5043,-2.5288,-2.5288,-2.5741,-2.6313,-2.6922,-2.7089,-2.7333,-2.7938,-2.7976,-2.8142,-2.8721,-2.8741,-2.8963,-2.9579,-3.0163,-3.0522,-3.0597,-3.1197,-3.1869,-3.2557,-3.2632,-3.3215,-3.4444,-3.4563,-3.4861,-3.5489,-3.5504,-3.5504,-3.5504,-3.5504,-3.5504,-3.5504,-3.5504,-3.5504,-3.5504,-3.5326,-3.5926,-3.7089,-3.679,-3.7259,-3.824,-3.8081,-3.8184,-3.8485,-3.8738,-3.9155,-3.969,-3.9908,-4.0199,-4.0442,-2.6202,-2.5877,-2.5597,-2.5597,-2.5275,-2.476,-2.4083,-2.3989,-2.4073,-2.4266,-2.4302,-2.4302,-2.4302,-2.4219,-2.3994,-2.3638,-2.3496,-2.3486,-2.3628,-2.3112,-2.2853,-2.2937,-2.2605,-2.2285,-2.2043,-2.1532,-2.1235,-2.1202,-2.062,-2.0339,-2.0321,-2.0339,-2.034,-2.0339,-2.0237,-2.0187,-2.017,-2.0131,-2.0113,-2.0113,-2.0113,-2.02,-2.0356,-2.0373,-2.0526,-2.0727,-2.0859,-2.1038,-2.1278,-2.1678,-2.2224,-2.283,-2.321,-2.4157,-2.5217,-2.5492,-2.5998,-2.6539,-2.6927,-2.6867,-2.6743,-2.702,-2.6788,-2.6418,-2.6144,-2.6026,-2.5992,-2.5992,-2.6581,-2.7142,-2.7295,-2.7819,-2.8259,-2.8308,-2.8629,-2.8875,-2.8807,-2.9237,-2.9714,-3.025,-3.0417,-3.0717,-3.1227,-3.1884,-3.2572,-3.323,-3.3769,-3.4204,-3.4488,-3.4996,-3.5355,-3.5504,-3.5504,-3.5504,-3.5504,-3.5504,-3.5504,-3.5504,-3.5504,-3.5504,-3.5504,-3.5439,-3.6041,-3.7089,-3.702,-3.7638,-3.8686,-3.8598,-3.8477,-3.8326,-3.8832,-3.9124,-3.9389,-3.9886,-4.0323,-4.0616,-2.6202,-2.5877,-2.5597,-2.5597,-2.5275,-2.5005,-2.5005,-2.5005,-2.4906,-2.4666,-2.463,-2.463,-2.463,-2.4426,-2.4114,-2.3638,-2.3674,-2.3739,-2.3797,-2.3543,-2.343,-2.3534,-2.336,-2.3275,-2.3275,-2.2636,-2.2183,-2.1879,-2.1142,-2.0782,-2.0764,-2.0458,-2.0304,-2.0304,-2.022,-2.0168,-2.01,-2.0063,-2.0025,-2.0005,-2.0005,-2.0058,-2.0148,-2.0148,-2.0304,-2.0509,-2.0595,-2.1066,-2.1714,-2.2033,-2.2714,-2.3535,-2.4124,-2.4873,-2.5611,-2.5933,-2.6539,-2.7091,-2.7147,-2.7227,-2.7336,-2.7578,-2.746,-2.7154,-2.6627,-2.6701,-2.6864,-2.6864,-2.7496,-2.807,-2.807,-2.8412,-2.866,-2.8517,-2.8941,-2.9302,-2.9379,-2.9905,-3.0461,-3.0911,-3.0972,-3.1227,-3.1914,-3.2572,-3.326,-3.3918,-3.4309,-3.4653,-3.4951,-3.531,-3.5504,-3.5504,-3.5504,-3.5504,-3.5504,-3.5504,-3.5504,-3.5504,-3.5504,-3.5504,-3.5504,-3.5504,-3.6141,-3.7248,-3.7144,-3.778,-3.8943,-3.8819,-3.8671,-3.8522,-3.8937,-3.9318,-3.9676,-4.0087,-4.0491,-4.0845,-2.6203,-2.5932,-2.5672,-2.5616,-2.5314,-2.5103,-2.5103,-2.5103,-2.5103,-2.5103,-2.5103,-2.508,-2.5005,-2.4569,-2.4135,-2.3717,-2.3739,-2.3797,-2.376,-2.3797,-2.3861,-2.3961,-2.4103,-2.4166,-2.4202,-2.3718,-2.3152,-2.2539,-2.1834,-2.1411,-2.1288,-2.0736,-2.0412,-2.0304,-2.0287,-2.0202,-2.01,-2.0048,-2.001,-1.9955,-1.9937,-1.9955,-1.997,-2.0091,-2.0264,-2.0454,-2.0651,-2.142,-2.2338,-2.2572,-2.3309,-2.4265,-2.5096,-2.5497,-2.5815,-2.6521,-2.7089,-2.7499,-2.7448,-2.7649,-2.792,-2.8136,-2.8034,-2.7704,-2.7008,-2.7318,-2.7783,-2.7783,-2.8366,-2.8865,-2.8889,-2.8865,-2.8849,-2.8872,-2.9283,-2.9751,-3.0148,-3.0682,-3.1136,-3.1465,-3.16,-3.1974,-3.2781,-3.3335,-3.3933,-3.4638,-3.4683,-3.4906,-3.5474,-3.5504,-3.5504,-3.5504,-3.5504,-3.5504,-3.5504,-3.5504,-3.5504,-3.5504,-3.5504,-3.5504,-3.5504,-3.5504,-3.6207,-3.737,-3.7213,-3.7901,-3.9141,-3.898,-3.887,-3.8878,-3.9048,-3.9504,-4.0155,-4.0433,-4.0785,-4.1057,-2.6257,-2.6166,-2.6005,-2.5654,-2.5559,-2.5521,-2.5521,-2.5521,-2.5521,-2.5521,-2.5521,-2.5391,-2.5025,-2.4569,-2.4198,-2.3982,-2.3861,-2.3739,-2.3616,-2.3739,-2.3818,-2.3839,-2.3961,-2.4082,-2.4202,-2.4131,-2.3774,-2.3183,-2.2505,-2.1874,-2.1304,-2.1211,-2.0875,-2.0287,-2.0185,-2.0133,-2.0098,-1.9904,-1.9848,-1.9815,-1.9762,-1.978,-1.9891,-2.0481,-2.0822,-2.1084,-2.1793,-2.2365,-2.2859,-2.3178,-2.3873,-2.4668,-2.5026,-2.5696,-2.6502,-2.7099,-2.7401,-2.7698,-2.8589,-2.8697,-2.863,-2.8881,-2.8787,-2.8599,-2.8372,-2.8395,-2.8481,-2.8537,-2.8826,-2.9075,-2.9213,-2.9137,-2.9257,-2.9896,-3.0254,-3.0582,-3.0995,-3.1518,-3.1749,-3.1524,-3.2004,-3.2856,-3.4129,-3.4324,-3.4622,-3.531,-3.537,-3.54,-3.5504,-3.5504,-3.5504,-3.5504,-3.5504,-3.5504,-3.5504,-3.5504,-3.5504,-3.5504,-3.5504,-3.5504,-3.5504,-3.5504,-3.6207,-3.7404,-3.737,-3.8112,-3.9337,-3.9337,-3.9228,-3.9068,-3.9084,-3.9492,-4.0173,-4.1004,-4.1324,-4.1354,-2.6274,-2.6202,-2.6132,-2.5968,-2.5932,-2.5932,-2.5932,-2.5932,-2.5932,-2.5932,-2.4347,-2.3118,-2.2962,-2.3428,-2.3663,-2.3422,-2.37,-2.3861,-2.3717,-2.3696,-2.3696,-2.3696,-2.3818,-2.3903,-2.3982,-2.4124,-2.407,-2.3805,-2.3174,-2.2755,-2.2504,-2.2152,-2.1812,-2.1518,-2.1481,-2.139,-2.1262,-2.1169,-2.1057,-2.0911,-2.0877,-2.0873,-2.0899,-2.1199,-2.1424,-2.1683,-2.2254,-2.287,-2.3459,-2.3831,-2.4533,-2.5299,-2.5635,-2.6309,-2.7065,-2.7329,-2.8013,-2.8738,-2.903,-2.9202,-2.9274,-2.9134,-2.8944,-2.8771,-2.8636,-2.894,-2.9192,-2.8967,-2.9075,-2.9259,-2.9389,-2.9632,-2.9903,-3.0157,-3.0808,-3.1243,-3.1205,-3.1668,-3.2019,-3.2062,-3.2662,-3.344,-3.4414,-3.4848,-3.5175,-3.5489,-3.5504,-3.5504,-3.5504,-3.5504,-3.5504,-3.5504,-3.5504,-3.5504,-3.5504,-3.5504,-3.5504,-3.5504,-3.5504,-3.5504,-3.5519,-3.5893,-3.6552,-3.7434,-3.7808,-3.8512,-3.9388,-3.9388,-3.9337,-3.9265,-3.9141,-3.957,-4.0367,-4.0975,-4.1373,-4.1591]},{"header":{"parameterUnit":"m.s-1","parameterCategory":1,"la1":30.6,"la2":28.766,"lo1":-90.7593,"lo2":-88.6598,"dy":0.0162,"dx":0.0183,"nx":116,"ny":114,"refTime":"2023-09-03T00:00:00:Z","depth":0,"parameterNumber":3,"parameterNumberName":"V-component_of_WINDS"},"data":[0.0,0.0,0.0,0.0,0.0,0.0,0.0,0.0,0.0,0.0,0.0,0.0,0.0,0.0,0.0,0.0,0.0,0.0,0.0,0.0,0.0,0.0,0.0,0.0,0.0,0.0,0.0,0.0,0.0,0.0,0.0,0.0,0.0,0.0,0.0,0.0,0.0,0.0,0.0,0.0,0.0,0.0,0.0,0.0,0.0,0.0,0.0,0.0,0.0,0.0,0.0,0.0,0.0,0.0,0.0,0.0,0.0,0.0,0.0,0.0,0.0,0.0,0.0,0.0,0.0,0.0,0.0,0.0,0.0,0.0,0.0,0.0,0.0,0.0,0.0,0.0,0.0,0.0,0.0,0.0,0.0,0.0,0.0,0.0,0.0,0.0,0.0,0.0,0.0,0.0,0.0,0.0,0.0,0.0,0.0,0.0,0.0,0.0,0.0,0.0,0.0,0.0,0.0,0.0,0.0,0.0,0.0,0.0,0.0,0.0,0.0,0.0,0.0,0.0,0.0,0.0,0.0,0.0,0.0,0.0,0.0,0.0,0.0,0.0,0.0,0.0,0.0,0.0,0.0,0.0,0.0,0.0,0.0,0.0,0.0,0.0,0.0,0.0,0.0,0.0,0.0,0.0,0.0,0.0,0.0,0.0,0.0,0.0,0.0,0.0,0.0,0.0,0.0,0.0,0.0,0.0,0.0,0.0,0.0,0.0,0.0,0.0,0.0,0.0,0.0,0.0,0.0,0.0,0.0,0.0,0.0,0.0,0.0,0.0,0.0,0.0,0.0,0.0,0.0,0.0,0.0,0.0,0.0,0.0,0.0,0.0,0.0,0.0,0.0,0.0,0.0,0.0,0.0,0.0,0.0,0.0,0.0,0.0,0.0,0.0,0.0,0.0,0.0,0.0,0.0,0.0,0.0,0.0,0.0,0.0,0.0,0.0,0.0,0.0,0.0,0.0,0.0,0.0,0.0,0.0,0.0,0.0,0.0,0.0,0.0,0.0,0.0,0.0,0.0,0.0,0.0,0.0,0.0,0.0,0.0,0.0,0.0,0.0,0.0,0.0,0.0,0.0,0.0,0.0,0.0,0.0,0.0,0.0,0.0,0.0,0.0,0.0,0.0,0.0,0.0,0.0,0.0,0.0,0.0,0.0,0.0,0.0,0.0,0.0,0.0,0.0,0.0,0.0,0.0,0.0,0.0,0.0,0.0,0.0,0.0,0.0,0.0,0.0,0.0,0.0,0.0,0.0,0.0,0.0,0.0,0.0,0.0,0.0,0.0,0.0,0.0,0.0,0.0,0.0,0.0,0.0,0.0,0.0,0.0,0.0,0.0,0.0,0.0,0.0,0.0,0.0,0.0,0.0,0.0,0.0,0.0,0.0,0.0,0.0,0.0,0.0,0.0,0.0,0.0,0.0,0.0,0.0,0.0,0.0,0.0,0.0,0.0,0.0,0.0,0.0,0.0,0.0,0.0,0.0,0.0,0.0,0.0,0.0,0.0,0.0,0.0,0.0,0.0,0.0,0.0,0.0,0.0,0.0,0.0,0.0,0.0,0.0,0.0,0.0,0.0,0.0,0.0,0.0,0.0,0.0,0.0,0.0,0.0,0.0,0.0,0.0,0.0,0.0,0.0,0.0,0.0,0.0,0.0,0.0,0.0,0.0,0.0,0.0,0.0,0.0,0.0,0.0,0.0,0.0,0.0,0.0,0.0,0.0,0.0,0.0,0.0,0.0,0.0,0.0,0.0,0.0,0.0,0.0,0.0,0.0,0.0,0.0,0.0,0.0,0.0,0.0,0.0,0.0,0.0,0.0,0.0,0.0,0.0,0.0,0.0,0.0,0.0,0.0,0.0,0.0,0.0,0.0,0.0,0.0,0.0,0.0,0.0,0.0,0.0,0.0,0.0,0.0,0.0,0.0,0.0,0.0,0.0,0.0,0.0,0.0,0.0,0.0,0.0,0.0,0.0,0.0,0.0,0.0,0.0,0.0,0.0,0.0,0.0,0.0,0.0,0.0,0.0,0.0,0.0,0.0,0.0,0.0,0.0,0.0,0.0,0.0,0.0,0.0,0.0,0.0,0.0,0.0,0.0,0.0,0.0,0.0,0.0,0.0,0.0,0.0,0.0,0.0,0.0,0.0,0.0,0.0,0.0,0.0,0.0,0.0,0.0,0.0,0.0,0.0,0.0,0.0,0.0,0.0,0.0,0.0,0.0,0.0,0.0,0.0,0.0,0.0,0.0,0.0,0.0,0.0,0.0,0.0,0.0,0.0,0.0,0.0,0.0,0.0,0.0,0.0,0.0,0.0,0.0,0.0,0.0,0.0,0.0,0.0,0.0,0.0,0.0,0.0,0.0,0.0,0.0,0.0,0.0,0.0,0.0,0.0,0.0,0.0,0.0,0.0,0.0,0.0,0.0,0.0,0.0,0.0,0.0,0.0,0.0,0.0,0.0,0.0,0.0,0.0,0.0,0.0,0.0,0.0,0.0,0.0,0.0,0.0,0.0,0.0,0.0,0.0,0.0,0.0,0.0,0.0,0.0,0.0,0.0,0.0,0.0,0.0,0.0,0.0,0.0,0.0,0.0,0.0,0.0,0.0,0.0,0.0,0.0,0.0,0.0,0.0,0.0,0.0,0.0,0.0,0.0,0.0,0.0,0.0,0.0,0.0,0.0,0.0,0.0,0.0,0.0,0.0,0.0,0.0,0.0,0.0,0.0,0.0,0.0,0.0,0.0,0.0,0.0,0.0,0.0,0.0,0.0,0.0,0.0,0.0,0.0,0.0,0.0,0.0,0.0,0.0,0.0,0.0,0.0,0.0,0.0,0.0,0.0,0.0,0.0,0.0,0.0,0.0,0.0,0.0,0.0,0.0,0.0,0.0,0.0,0.0,0.0,0.0,0.0,0.0,0.0,0.0,0.0,0.0,0.0,0.0,0.0,0.0,0.0,0.0,0.0,0.0,0.0,0.0,0.0,0.0,0.0,0.0,0.0,0.0,0.0,0.0,0.0,0.0,0.0,0.0,0.0,0.0,0.0,0.0,0.0,0.0,0.0,0.0,0.0,0.0,0.0,0.0,0.0,0.0,0.0,0.0,0.0,0.0,0.0,0.0,0.0,0.0,0.0,0.0,0.0,0.0,0.0,0.0,0.0,0.0,0.0,0.0,0.0,0.0,0.0,0.0,0.0,0.0,0.0,0.0,0.0,0.0,0.0,0.0,0.0,0.0,0.0,0.0,0.0,0.0,0.0,0.0,0.0,0.0,0.0,0.0,0.0,0.0,0.0,0.0,0.0,0.0,0.0,0.0,0.0,0.0,0.0,0.0,0.0,0.0,0.0,0.0,0.0,0.0,0.0,0.0,0.0,0.0,0.0,0.0,0.0,0.0,0.0,0.0,0.0,0.0,0.0,0.0,0.0,0.0,0.0,0.0,0.0,0.0,0.0,0.0,0.0,0.0,0.0,0.0,0.0,0.0,0.0,0.0,0.0,0.0,0.0,0.0,0.0,0.0,0.0,0.0,0.0,0.0,0.0,0.0,0.0,0.0,0.0,0.0,0.0,0.0,0.0,0.0,0.0,0.0,0.0,0.0,0.0,0.0,0.0,0.0,0.0,0.0,0.0,0.0,0.0,0.0,0.0,0.0,0.0,0.0,0.0,0.0,0.0,0.0,0.0,0.0,0.0,0.0,0.0,0.0,0.0,0.0,0.0,0.0,0.0,0.0,0.0,0.0,0.0,0.0,0.0,0.0,0.0,0.0,0.0,0.0,0.0,0.0,0.0,0.0,0.0,0.0,0.0,0.0,0.0,0.0,0.0,0.0,0.0,0.0,0.0,0.0,0.0,0.0,0.0,0.0,0.0,0.0,0.0,0.0,0.0,0.0,0.0,0.0,0.0,0.0,0.0,0.0,0.0,0.0,0.0,0.0,0.0,0.0,0.0,0.0,0.0,0.0,0.0,0.0,0.0,0.0,0.0,0.0,0.0,0.0,0.0,0.0,0.0,0.0,0.0,0.0,0.0,0.0,0.0,0.0,0.0,0.0,0.0,0.0,0.0,0.0,0.0,0.0,0.0,0.0,0.0,0.0,0.0,0.0,0.0,0.0,0.0,0.0,0.0,0.0,0.0,0.0,0.0,0.0,0.0,0.0,0.0,0.0,0.0,0.0,0.0,0.0,0.0,0.0,0.0,0.0,0.0,0.0,0.0,0.0,0.0,0.0,0.0,0.0,0.0,0.0,0.0,0.0,0.0,0.0,0.0,0.0,0.0,0.0,0.0,0.0,0.0,0.0,0.0,0.0,0.0,0.0,0.0,0.0,0.0,0.0,0.0,0.0,0.0,0.0,0.0,0.0,0.0,0.0,0.0,0.0,0.0,0.0,0.0,0.0,0.0,0.0,0.0,0.0,0.0,0.0,0.0,0.0,0.0,0.0,0.0,0.0,0.0,0.0,0.0,0.0,0.0,0.0,0.0,0.0,0.0,0.0,0.0,0.0,0.0,0.0,0.0,0.0,0.0,0.0,0.0,0.0,0.0,0.0,0.0,0.0,0.0,0.0,0.0,0.0,0.0,0.0,0.0,0.0,0.0,0.0,0.0,0.0,0.0,0.0,0.0,0.0,0.0,0.0,0.0,0.0,0.0,0.0,0.0,0.0,0.0,0.0,0.0,0.0,0.0,0.0,0.0,0.0,0.0,0.0,0.0,0.0,0.0,0.0,0.0,0.0,0.0,0.0,0.0,0.0,0.0,0.0,0.0,0.0,0.0,0.0,0.0,0.0,0.0,0.0,0.0,0.0,0.0,0.0,0.0,0.0,0.0,0.0,0.0,0.0,0.0,0.0,0.0,0.0,0.0,0.0,0.0,0.0,0.0,0.0,0.0,0.0,0.0,0.0,0.0,0.0,0.0,0.0,0.0,0.0,0.0,0.0,0.0,0.0,0.0,0.0,0.0,0.0,0.0,0.0,0.0,0.0,0.0,0.0,0.0,0.0,0.0,0.0,0.0,0.0,0.0,0.0,0.0,0.0,0.0,0.0,0.0,0.0,0.0,0.0,0.0,0.0,0.0,0.0,0.0,0.0,0.0,0.0,0.0,0.0,0.0,0.0,0.0,0.0,0.0,0.0,0.0,0.0,0.0,0.0,0.0,0.0,0.0,0.0,0.0,0.0,0.0,0.0,0.0,0.0,0.0,0.0,0.0,0.0,0.0,0.0,0.0,0.0,0.0,0.0,0.0,0.0,0.0,0.0,0.0,0.0,0.0,0.0,0.0,0.0,0.0,0.0,0.0,0.0,0.0,0.0,0.0,0.0,0.0,0.0,0.0,0.0,0.0,0.0,0.0,0.0,0.0,0.0,0.0,0.0,0.0,0.0,0.0,0.0,0.0,0.0,0.0,0.0,0.0,0.0,0.0,0.0,0.0,0.0,0.0,0.0,0.0,0.0,0.0,0.0,0.0,0.0,0.0,0.0,0.0,0.0,0.0,0.0,0.0,0.0,0.0,0.0,0.0,0.0,0.0,0.0,0.0,0.0,0.0,0.0,0.0,0.0,0.0,0.0,0.0,0.0,0.0,0.0,0.0,0.0,0.0,0.0,0.0,0.0,0.0,0.0,0.0,0.0,0.0,0.0,0.0,0.0,0.0,0.0,0.0,0.0,0.0,0.0,0.0,0.0,0.0,0.0,0.0,0.0,0.0,0.0,0.0,0.0,0.0,0.0,0.0,0.0,0.0,0.0,0.0,0.0,0.0,0.0,0.0,0.0,0.0,0.0,0.0,0.0,0.0,0.0,0.0,0.0,0.0,0.0,0.0,0.0,0.0,0.0,0.0,0.0,0.0,0.0,0.0,0.0,0.0,0.0,0.0,0.0,0.0,0.0,0.0,0.0,0.0,0.0,0.0,0.0,0.0,0.0,0.0,0.0,0.0,0.0,0.0,0.0,0.0,0.0,0.0,0.0,0.0,0.0,0.0,0.0,0.0,0.0,0.0,0.0,0.0,0.0,0.0,0.0,0.0,0.0,0.0,0.0,0.0,0.0,0.0,0.0,0.0,0.0,0.0,0.0,0.0,0.0,0.0,0.0,0.0,0.0,0.0,0.0,0.0,0.0,2.6257,2.6312,0.0,0.0,0.0,0.0,0.0,0.0,0.0,0.0,0.0,0.0,0.0,0.0,0.0,0.0,0.0,0.0,0.0,0.0,0.0,0.0,0.0,0.0,0.0,0.0,0.0,0.0,0.0,0.0,0.0,0.0,0.0,0.0,0.0,0.0,0.0,0.0,0.0,0.0,1.6166,1.6905,1.7444,1.7471,1.7106,1.6399,0.0,0.0,0.0,0.0,0.0,0.0,0.0,0.0,0.0,0.0,0.0,0.0,0.0,0.0,0.0,0.0,0.0,0.0,0.0,0.0,0.0,0.0,0.0,0.0,0.0,0.0,0.0,0.0,0.0,0.0,0.0,0.0,0.0,0.0,0.0,0.0,0.0,0.0,0.0,0.0,0.0,0.0,0.0,0.0,0.0,0.0,0.0,0.0,0.0,0.0,0.0,0.0,0.0,0.0,0.0,0.0,0.0,0.0,0.0,0.0,0.0,0.0,0.0,0.0,0.0,0.0,0.0,0.0,0.0,0.0,2.8052,2.77,0.0,0.0,0.0,0.0,0.0,0.0,0.0,0.0,0.0,0.0,0.0,0.0,0.0,0.0,0.0,0.0,0.0,0.0,0.0,0.0,0.0,0.0,0.0,0.0,1.2798,1.2757,1.2012,1.1447,0.0,0.0,0.0,0.0,0.0,0.0,0.0,1.574,1.629,1.641,1.7361,1.8336,1.9307,1.935,1.8699,1.7452,1.7255,0.0,0.0,0.0,0.0,0.0,0.0,0.0,0.0,0.0,0.0,0.0,0.0,0.0,0.0,0.0,0.0,0.0,0.0,0.0,0.0,0.0,0.0,0.0,0.0,0.0,0.0,0.0,0.0,0.0,0.0,0.0,0.0,0.0,0.0,0.0,0.0,0.0,0.0,0.0,0.0,0.0,0.0,0.0,0.0,0.0,0.0,0.0,0.0,0.0,0.0,0.0,0.0,0.0,0.0,0.0,0.0,0.0,0.0,0.0,0.0,0.0,0.0,0.0,2.9166,2.9715,3.0405,3.0556,3.1104,3.1783,2.9904,2.9195,2.9392,2.9194,0.0,0.0,0.0,0.0,0.0,0.0,0.0,0.0,0.0,0.0,0.0,0.0,0.0,0.0,0.0,0.0,0.0,0.0,0.0,0.0,0.0,1.3687,1.3737,1.3719,1.3559,1.3083,1.2258,0.0,0.0,0.0,0.0,0.0,1.5203,1.6741,1.7581,1.7657,1.8662,1.9601,2.0478,2.0478,2.0778,2.1232,2.023,1.9811,1.9811,0.0,0.0,0.0,0.0,0.0,0.0,0.0,0.0,0.0,0.0,0.0,0.0,0.0,0.0,0.0,0.0,0.0,0.0,0.0,0.0,0.0,0.0,0.0,0.0,0.0,0.0,0.0,0.0,0.0,0.0,0.0,0.0,0.0,0.0,0.0,0.0,0.0,0.0,0.0,0.0,0.0,2.077,2.1362,0.0,0.0,0.0,0.0,0.0,0.0,0.0,0.0,0.0,0.0,0.0,0.0,0.0,2.9455,3.0299,3.0585,3.1213,3.2186,3.2222,3.2554,3.3158,3.32,3.3475,3.3927,3.3779,0.0,3.1757,3.2154,0.0,0.0,0.0,0.0,0.0,0.0,0.0,0.0,0.0,0.0,0.0,0.0,0.0,0.0,0.0,0.0,0.0,0.0,0.0,0.0,0.0,1.4958,1.5465,1.5995,1.5609,1.4926,1.3975,1.3407,0.0,0.0,0.0,1.5603,1.6355,1.8,1.9158,1.9754,2.0227,2.0916,2.1766,2.1726,2.2129,2.2858,2.2304,2.1699,2.1137,2.1104,0.0,0.0,0.0,0.0,0.0,0.0,0.0,0.0,0.0,0.0,0.0,0.0,0.0,0.0,0.0,0.0,0.0,0.0,0.0,0.0,0.0,0.0,0.0,0.0,0.0,0.0,0.0,0.0,0.0,0.0,0.0,0.0,0.0,0.0,0.0,0.0,0.0,0.0,0.0,2.1169,2.1812,2.2766,2.3247,2.3798,0.0,0.0,0.0,0.0,0.0,0.0,0.0,0.0,0.0,3.0738,3.1084,3.1552,3.2239,3.2969,3.3487,3.3895,3.4515,3.4945,3.5243,3.5333,3.5468,3.5692,3.6168,3.6042,3.5453,3.4728,3.442,3.445,0.0,0.0,0.0,0.0,3.5282,3.5713,0.0,0.0,0.0,0.0,0.0,0.0,0.0,0.0,0.0,0.0,0.0,0.0,1.4903,1.584,1.6708,1.7486,1.7052,1.6343,1.5463,1.4822,1.4419,1.433,1.5661,1.6795,1.7621,1.9082,2.0305,2.1301,2.1348,2.193,2.2974,2.2929,2.3303,2.3995,2.3898,2.3213,2.2183,2.211,2.1599,2.0866,0.0,0.0,0.0,0.0,0.0,0.0,0.0,0.0,0.0,0.0,0.0,0.0,0.0,0.0,0.0,0.0,0.0,0.0,0.0,0.0,0.0,0.0,0.0,0.0,0.0,0.0,0.0,0.0,0.0,0.0,0.0,0.0,0.0,0.0,0.0,0.0,0.0,2.2134,2.2958,2.4391,2.5037,2.5744,0.0,0.0,0.0,0.0,0.0,0.0,3.1213,3.1173,3.183,3.3414,3.3288,3.3604,3.4451,3.5198,3.5554,3.5567,3.6395,3.6832,3.6832,3.694,3.7083,3.7191,3.7698,3.8153,3.8372,3.7054,3.6754,3.712,3.711,3.7234,3.7514,3.7874,3.8314,3.8727,0.0,0.0,0.0,0.0,0.0,0.0,0.0,0.0,0.0,0.0,0.0,1.4098,1.5153,1.6126,1.6803,1.7092,1.7277,1.7047,1.6293,1.6264,1.6264,1.6253,1.7076,1.7926,1.8796,1.9705,2.064,2.1578,2.1574,2.2416,2.4029,2.4022,2.4418,2.5114,2.5052,2.4341,2.3215,2.3151,2.2621,2.1824,2.1824,0.0,0.0,0.0,0.0,0.0,0.0,0.0,0.0,0.0,0.0,0.0,0.0,0.0,0.0,0.0,0.0,0.0,0.0,0.0,0.0,0.0,0.0,0.0,0.0,0.0,0.0,0.0,0.0,0.0,0.0,0.0,0.0,0.0,0.0,0.0,0.0,0.0,0.0,2.643,2.666,0.0,0.0,0.0,0.0,3.0337,3.1295,3.2256,3.3279,3.3331,3.4079,3.58,3.5193,3.5682,3.727,3.7167,3.7324,3.7839,3.7902,3.7927,3.7927,3.7927,3.8075,3.8333,3.8333,3.8759,3.9424,3.9154,3.8896,3.8821,3.9341,3.954,3.9575,3.9797,4.0661,4.1783,0.0,0.0,0.0,0.0,0.0,0.0,0.0,0.0,1.0391,1.1112,1.2555,1.3926,1.4994,1.6025,1.6988,1.7866,1.8286,1.8218,1.7574,1.7172,1.7008,1.7033,1.739,1.826,1.9706,2.0582,2.1478,2.2374,2.2983,2.3865,2.5,2.4991,2.5432,2.6238,2.6162,2.6178,2.6173,2.4812,2.3739,2.2929,2.288,2.2368,0.0,0.0,0.0,0.0,0.0,0.0,0.0,0.0,0.0,0.0,0.0,0.0,0.0,0.0,0.0,0.0,0.0,0.0,0.0,0.0,0.0,0.0,0.0,0.0,0.0,0.0,0.0,0.0,0.0,0.0,0.0,0.0,0.0,0.0,0.0,0.0,0.0,2.7943,2.8577,0.0,3.068,3.1775,3.244,3.2445,3.3488,3.4407,3.5068,3.509,3.5686,3.6921,3.6752,3.6985,3.7786,3.814,3.8366,3.8567,3.8919,3.9094,3.9094,3.9094,3.9334,3.9776,3.9917,4.0376,4.0927,4.1437,4.109,4.0359,4.0794,4.1185,4.1553,4.2051,4.2674,4.3297,0.0,0.0,0.0,0.0,0.0,0.0,0.0,0.0,1.0127,1.0509,1.2065,1.3465,1.4331,1.5594,1.6771,1.777,1.8315,1.8362,1.7803,1.7515,1.7425,1.7555,1.8037,1.8988,2.041,2.1026,2.1898,2.3066,2.3699,2.4477,2.5379,2.5697,2.616,2.6777,2.7034,2.7443,2.7885,2.6491,2.5509,2.4853,2.4518,2.3863,2.3053,0.0,0.0,0.0,0.0,0.0,0.0,0.0,0.0,0.0,0.0,0.0,0.0,0.0,0.0,0.0,0.0,0.0,0.0,0.0,0.0,0.0,0.0,0.0,0.0,0.0,0.0,0.0,0.0,0.0,0.0,0.0,0.0,0.0,0.0,2.6937,2.8211,2.9777,3.0601,3.1499,3.2776,3.3882,3.4486,3.4473,3.5495,3.6339,3.6766,3.6806,3.7206,3.803,3.8032,3.815,3.8567,3.8956,3.9145,3.9145,3.9521,3.9697,3.9697,3.9885,4.0174,4.0526,4.086,4.1296,4.1732,4.2328,4.221,4.1761,4.2188,4.2716,4.3258,4.3773,4.4192,4.4647,0.0,0.0,0.0,0.0,0.0,0.0,0.0,0.8948,0.9524,0.9481,1.1256,1.2701,1.3163,1.4769,1.6055,1.666,1.7197,1.7332,1.6914,1.7219,1.7559,1.7853,1.9055,2.006,2.0842,2.0973,2.1861,2.3567,2.3606,2.4131,2.512,2.6058,2.6572,2.6794,2.7659,2.808,2.8162,2.8176,2.7984,2.7612,2.67,2.585,2.4993,0.0,0.0,0.0,0.0,0.0,0.0,0.0,0.0,0.0,0.0,0.0,0.0,0.0,0.0,0.0,0.0,0.0,0.0,0.0,0.0,0.0,0.0,0.0,0.0,0.0,0.0,0.0,0.0,0.0,0.0,0.0,0.0,0.0,2.7868,2.898,3.0463,3.1985,3.2724,3.3595,3.4922,3.5628,3.6127,3.6437,3.7318,3.7989,3.8325,3.8411,3.8676,3.9234,3.9083,3.9207,3.9735,3.9747,3.9747,3.9747,3.9747,3.9747,3.976,4.03,4.0551,4.0601,4.1075,4.1474,4.1729,4.1729,4.2261,4.3036,4.3473,4.3988,4.4519,4.4682,4.5244,4.5928,0.0,0.0,0.0,0.0,0.0,0.0,0.0,0.7926,0.8355,0.8914,0.9955,1.0874,1.1487,1.2855,1.4094,1.4979,1.5276,1.574,1.6495,1.5999,1.6172,1.7272,1.8855,1.9842,2.0169,2.1382,2.2269,2.2798,2.3638,2.45,2.5397,2.5853,2.6821,2.8153,2.8507,2.9072,2.9762,2.9869,2.9863,2.9634,2.8089,2.7286,2.694,0.0,0.0,0.0,0.0,0.0,0.0,0.0,0.0,0.0,0.0,0.0,0.0,0.0,0.0,0.0,0.0,0.0,0.0,0.0,0.0,0.0,0.0,0.0,0.0,0.0,0.0,0.0,0.0,0.0,0.0,0.0,3.091,3.1307,2.998,3.1236,3.26,3.3304,3.4485,3.5542,3.6345,3.7149,3.7664,3.7774,3.8239,3.8656,3.8962,3.9398,3.9803,4.014,4.045,4.0727,4.0837,4.0837,4.0837,4.0837,4.0837,4.0837,4.0902,4.0987,4.1329,4.1718,4.1869,4.2213,4.2687,4.2827,4.2981,4.2949,4.2668,4.3132,4.3906,4.3931,4.4879,4.6151,0.0,0.0,0.0,0.0,0.0,0.0,0.0,0.7484,0.7701,0.8192,0.8777,0.9349,0.9908,1.102,1.2083,1.2933,1.3289,1.3989,1.5229,1.5457,1.5972,1.6923,1.8347,1.9354,1.9851,2.1143,2.2049,2.2509,2.3224,2.4068,2.5016,2.5671,2.68,2.8264,2.8843,2.9478,3.0134,3.0673,3.0936,3.0923,2.9863,2.9063,2.8379,2.7508,2.6883,2.6307,2.508,2.4331,2.3741,2.2558,0.0,0.0,0.0,0.0,0.0,0.0,0.0,0.0,0.0,0.0,0.0,0.0,0.0,0.0,0.0,0.0,0.0,0.0,0.0,0.0,0.0,0.0,0.0,0.0,3.3202,3.3909,3.3201,3.3734,3.4473,3.5273,3.624,3.7136,3.7866,3.8368,3.8704,3.8839,3.916,3.9523,3.9867,4.0346,4.0696,4.0852,4.1125,4.1288,4.1288,4.1288,4.1288,4.1288,4.1288,4.1288,4.13,4.158,4.1856,4.2225,4.2451,4.2602,4.269,4.2843,4.2734,4.2498,0.0,0.0,0.0,0.0,4.4926,4.6135,0.0,0.0,0.0,0.0,0.0,0.0,0.0,0.7306,0.725,0.7319,0.7635,0.8023,0.8453,0.9282,1.01,1.0792,1.1307,1.2143,1.3487,1.5141,1.6285,1.6706,1.7695,1.8716,1.972,2.0522,2.14,2.2319,2.2479,2.3141,2.4292,2.541,2.6509,2.7633,2.8742,2.9352,2.9644,3.0734,3.1302,3.1505,3.1525,3.0798,2.9574,2.8596,2.8243,2.801,2.6378,2.5701,2.5371,2.3722,0.0,0.0,0.0,0.0,0.0,0.0,0.0,0.0,0.0,0.0,0.0,0.0,0.0,0.0,0.0,0.0,0.0,0.0,0.0,0.0,0.0,0.0,0.0,0.0,3.5282,3.6574,3.7012,3.6361,3.631,3.7391,3.7939,3.8486,3.9249,3.9294,3.9468,3.9724,4.0007,4.0399,4.0931,4.1235,0.0,0.0,0.0,4.1463,4.1463,4.1463,4.1463,4.1463,4.1463,4.1463,4.1489,4.2032,4.2263,4.2238,4.2728,4.2627,4.2125,4.2125,4.196,4.1841,4.2618,4.3065,4.3382,4.4358,4.5198,4.5925,0.0,0.0,0.0,0.0,0.0,0.0,0.0,0.6513,0.6263,0.6219,0.6364,0.6663,0.7122,0.7713,0.8422,0.9246,0.9512,1.0371,1.2083,1.38,1.522,1.6186,1.7304,1.8331,1.9311,2.0162,2.083,2.1289,2.1528,2.249,2.4071,2.462,2.5799,2.7455,2.8024,2.8433,2.8802,3.0045,3.0694,3.0891,3.1099,3.126,3.1168,2.9653,2.9071,2.8933,2.7883,2.7026,2.6218,2.5126,2.4293,2.3489,2.2282,2.1825,0.0,0.0,0.0,0.0,0.0,0.0,0.0,0.0,0.0,0.0,0.0,0.0,0.0,0.0,0.0,0.0,0.0,0.0,0.0,3.582,3.6707,3.7752,3.9634,3.9248,3.8691,3.8389,3.9461,4.014,3.9861,4.0102,4.0351,4.0643,4.0496,4.0654,4.1194,4.1747,4.2049,4.2049,4.2434,4.266,4.266,4.266,4.266,4.266,4.266,0.0,4.2672,4.2773,4.2627,4.2213,4.2326,4.2007,4.1492,4.1492,4.1433,4.1464,4.2266,4.2771,4.3085,4.4124,4.4954,4.57,0.0,0.0,0.0,0.0,0.0,0.0,0.0,0.6007,0.5601,0.5595,0.548,0.5542,0.5907,0.6243,0.6698,0.7332,0.8499,0.9725,1.0973,1.2705,1.4173,1.5249,1.645,1.7524,1.8431,1.9299,1.9908,2.0248,2.0454,2.1416,2.3114,2.3555,2.4712,2.6471,2.6935,2.737,2.7824,2.907,2.9788,3.0124,3.0356,3.0691,3.0944,3.0047,2.9698,2.9577,2.8678,2.7778,2.6843,2.5841,2.4878,2.3904,2.2808,2.2317,2.1963,0.0,0.0,0.0,0.0,0.0,0.0,0.0,0.0,0.0,0.0,0.0,0.0,0.0,0.0,2.7366,2.9983,0.0,3.4607,3.6566,3.806,3.9351,4.0348,4.0886,4.0877,4.0187,4.0489,4.0664,4.0293,4.0388,4.0466,4.0334,4.0666,4.1,4.1275,4.212,4.2627,4.2627,4.2836,4.2974,4.2974,4.2974,4.2974,4.2974,4.2974,4.2974,4.2974,4.2974,4.2728,4.2213,4.2213,4.1626,4.0689,4.0243,4.0245,4.0566,4.1221,4.2047,4.2984,4.3723,4.4569,4.5413,0.0,0.0,0.0,0.0,0.0,0.0,0.0,0.5662,0.5148,0.5067,0.4759,0.4616,0.4812,0.4937,0.5215,0.572,0.7661,0.9199,0.9972,1.1625,1.3074,1.42,1.5439,1.6523,1.7431,1.829,1.8883,1.9214,1.9365,2.0202,2.1706,2.2282,2.3394,2.4976,2.5609,2.6184,2.6704,2.7938,2.8759,2.9205,2.9439,2.9727,2.9952,2.9571,2.9629,2.9796,2.8879,2.7948,2.7021,2.5951,2.4926,2.3879,2.2887,2.2367,2.1896,2.0749,2.0262,0.0,0.0,0.0,0.0,0.0,0.0,0.0,0.0,2.2106,2.2513,2.475,2.6358,2.8048,3.0326,3.3037,3.5366,3.6742,3.895,4.0513,4.0576,4.1736,4.235,4.1841,4.1289,4.0851,4.0503,4.0453,4.0236,3.9899,4.0724,4.1326,4.1492,4.2434,4.2974,4.2974,4.2974,4.2974,4.2974,4.2974,4.2974,4.2974,4.2974,4.2974,4.2974,4.2974,4.2622,4.2037,4.1769,4.0951,3.9773,3.9078,3.9114,3.9697,4.0147,4.1298,4.2728,4.3375,4.4228,4.5124,0.0,0.0,0.0,0.0,0.0,0.0,0.0,0.0,0.4901,0.4314,0.4095,0.3952,0.3868,0.3925,0.4324,0.5201,0.6538,0.7831,0.899,1.0302,1.1737,1.3273,1.4456,1.5543,1.6525,1.7277,1.7828,1.8173,1.835,1.8942,1.991,2.0866,2.1884,2.2965,2.4053,2.4815,2.54,2.6738,2.7605,2.8112,2.8497,2.8742,2.8741,2.7539,2.7967,2.9098,2.8287,2.7312,2.6268,2.5239,2.4172,2.3163,2.2665,2.2211,2.1625,2.0471,2.0202,2.0189,1.9771,2.0084,2.0712,2.1626,2.1183,2.0974,0.0,2.2659,2.2957,2.4895,2.6474,2.8092,3.0159,3.2664,3.4995,3.6884,3.8583,4.0161,4.1446,4.183,4.2072,4.2385,4.195,4.1332,4.0542,4.0287,4.0235,4.0388,4.0937,4.1543,4.2087,4.2647,4.2974,4.2974,4.2974,4.2974,4.2974,4.2974,4.2974,4.2974,4.2974,4.2974,4.2974,4.2974,4.2409,4.1313,4.0124,3.9365,3.8927,3.8813,3.8998,3.9362,3.9685,4.0643,4.1993,4.317,4.4134,4.4968,0.0,0.0,0.0,0.0,0.0,0.0,0.0,0.0,0.0,0.4171,0.3786,0.3502,0.3372,0.3404,0.3771,0.4545,0.5679,0.6896,0.8173,0.9416,1.0843,1.2493,1.339,1.4442,1.5724,1.6242,1.6744,1.7256,1.7449,1.7989,1.8864,1.9475,2.03,2.1309,2.2366,2.3109,2.3665,2.4808,2.5606,2.6098,2.6114,2.6303,2.6446,2.5523,2.5662,2.6309,2.6417,2.5811,0.0,2.4158,2.3136,2.2075,2.1564,2.1065,2.0606,2.0129,1.9857,1.9769,1.9977,2.0348,2.0801,2.1452,2.1315,2.1315,2.2326,2.2433,2.2854,2.4737,2.6091,2.7612,2.9654,3.2148,3.4394,3.5891,3.7922,3.9682,4.0781,4.1383,4.1751,4.1792,4.1448,4.1047,4.0555,4.0236,4.0082,4.0023,4.0551,4.0965,4.1191,4.202,4.2552,4.2552,4.2811,4.2974,4.2974,4.2974,4.2974,4.2974,4.2974,4.2974,4.2974,4.2974,4.2261,4.0998,3.9466,3.8631,3.8303,3.8169,3.8262,3.8566,3.9037,3.9904,4.1147,4.2506,4.3757,4.489,0.0,0.0,0.0,0.0,0.0,0.0,0.0,0.0,0.0,0.0,0.3563,0.3121,0.2847,0.2931,0.3252,0.3872,0.4782,0.5918,0.7293,0.8395,0.9746,1.1416,1.223,1.3279,1.4582,1.5077,1.5533,1.6015,1.6211,1.672,1.7522,1.7978,1.8714,1.9679,2.0689,2.1391,2.1873,2.2736,2.3386,2.3846,2.3761,2.3858,2.393,2.3358,2.3059,2.3116,2.4245,2.4164,2.3414,2.2744,2.1815,2.0863,2.0291,1.9814,1.9453,1.9313,1.9168,1.9231,2.0113,2.0399,2.0584,2.118,2.1203,2.1267,2.1902,2.2039,2.2422,2.3965,2.5111,2.6411,2.8386,3.0873,3.3077,3.4575,3.6889,3.8785,3.9646,4.0577,4.1117,4.0974,4.0755,4.0491,4.03,4.0083,3.9929,3.9697,4.0212,4.0513,4.0513,4.1417,4.2049,4.22,4.2602,4.2879,4.2974,4.2974,4.2974,4.2974,4.2974,4.2974,4.2974,4.2767,4.1945,4.0727,3.9189,3.8277,3.7892,3.7584,3.7637,3.7933,3.8489,3.9389,4.0567,4.2004,4.3478,4.479,0.0,0.0,0.0,0.0,0.0,0.0,0.0,0.0,0.0,0.0,0.0,0.0,0.0,0.2363,0.2711,0.3192,0.3789,0.4784,0.6255,0.7057,0.8207,0.989,1.0975,1.1968,1.285,1.3642,1.4133,1.4269,1.4484,1.4893,1.5505,1.6304,1.7136,1.8017,1.9012,1.9726,2.0187,2.0634,2.1056,2.154,2.1918,2.1858,2.1446,2.0897,2.0255,1.9925,2.2015,2.2554,2.2086,2.0955,2.0135,1.9474,1.9001,1.8655,1.8336,1.7817,1.803,1.8725,2.0101,2.0179,2.0091,2.1129,2.1016,2.081,2.1555,2.1551,2.1605,2.2343,2.3241,2.4421,2.6099,2.8432,3.0799,3.302,3.5326,3.722,3.8295,3.9427,4.014,4.0166,3.9905,3.9749,3.9749,3.9749,3.9697,3.9697,4.0212,4.0513,4.0513,4.1053,4.1605,4.2187,4.2225,4.2489,4.2974,4.2974,4.2974,4.2974,4.2974,4.2974,4.2961,4.2145,4.131,4.0468,3.931,3.8359,3.7596,3.7251,3.7304,3.7649,3.821,3.9089,4.0287,4.1963,4.3404,4.4664,0.0,0.0,0.0,0.0,0.0,0.0,0.0,0.0,0.0,0.0,0.0,0.0,0.0,0.0,0.0,0.0,0.3355,0.425,0.5547,0.6413,0.7475,0.8839,0.9898,1.0843,1.1708,1.2483,1.3097,1.3593,1.3755,1.404,1.4481,1.4825,1.5253,1.5754,1.6669,1.7269,1.7618,1.8337,1.8904,1.9262,1.9123,1.9112,1.9084,1.845,1.8049,1.7901,0.0,1.8888,1.9162,1.8807,1.8234,1.7608,1.7397,1.7123,1.6863,1.676,1.7286,1.7967,1.844,1.9118,1.9644,1.9637,1.9852,2.011,2.0131,2.0103,2.0397,2.1244,2.1925,2.2905,2.4532,2.6722,2.8814,3.0549,3.3028,3.5203,3.6416,3.7516,3.8409,3.8957,3.8968,3.8873,3.8856,3.8998,3.9102,3.9102,3.9275,3.9491,3.97,4.0212,4.0827,4.1593,4.1969,4.2476,4.2974,4.2974,4.2974,4.2974,4.2974,4.2974,4.2961,4.1923,4.1299,4.0924,3.9592,3.8761,3.8308,3.7649,3.7411,3.7575,3.8161,3.8944,3.9975,4.184,4.3539,4.5043,0.0,0.0,0.0,0.0,0.0,0.0,0.0,0.0,0.0,0.0,0.0,0.0,0.0,0.0,0.0,0.0,0.0,0.3722,0.4761,0.566,0.6658,0.7839,0.88,0.9682,1.05,1.1107,1.1644,1.2085,1.2211,1.251,1.2988,1.3094,1.3467,1.4097,1.4732,1.5218,1.5638,1.6309,1.6798,1.7058,1.6674,1.6542,1.6504,1.5917,1.5536,0.0,1.5186,1.5344,1.5745,1.6802,1.6619,1.5991,1.608,1.5843,1.5563,1.5762,1.6173,1.668,1.6964,1.7699,1.8331,1.8261,1.8621,1.8973,1.8746,1.8723,1.8905,1.9553,2.0053,2.0788,2.2425,2.4421,2.6453,2.8433,3.0766,3.2995,3.475,3.5877,3.691,3.7927,3.8021,3.8084,3.8255,3.8198,3.8315,3.8631,3.8736,3.8893,3.9102,3.9727,4.0433,4.1155,4.1815,4.2476,4.2974,4.2974,4.2974,4.2974,4.2974,4.2974,4.2961,4.2022,4.1428,4.1039,3.9794,3.8916,3.8323,3.7673,3.749,3.7657,3.8256,3.9044,4.0133,4.2009,4.3717,4.5232,0.0,0.0,0.0,0.0,0.0,0.0,0.0,0.0,0.0,0.0,0.0,0.0,0.0,0.0,0.0,0.0,0.0,0.0,0.3929,0.4782,0.577,0.6898,0.7713,0.849,0.9224,0.9572,0.9797,0.9869,0.9939,1.036,1.1126,1.1126,1.1795,1.296,1.3162,1.3557,1.4143,1.4453,1.4714,1.4866,1.4543,1.4187,1.3807,1.3435,1.2808,1.2162,1.2427,1.2191,1.2155,1.4916,1.5299,1.4651,1.4969,1.4727,1.4415,1.4704,1.4735,1.4874,1.5733,1.5974,1.6198,1.7033,1.7281,1.7334,1.7502,1.7384,1.7289,1.7439,1.7624,1.8227,1.9861,2.1634,2.3761,2.6519,2.8629,3.0721,3.3197,3.4475,3.5685,3.6945,3.7112,3.7372,3.7873,3.74,3.7411,3.8287,3.8615,3.8785,3.8773,3.9606,4.0323,4.091,4.1773,4.2421,4.2974,4.2974,4.2974,4.2974,4.2974,4.2974,4.2974,4.2381,4.1634,4.0784,3.9917,3.8894,3.7862,3.7508,3.7554,3.7884,3.8402,3.9364,4.0616,4.235,4.3885,4.5288,0.0,0.0,0.0,0.0,0.0,0.0,0.0,0.0,0.0,0.0,0.0,0.0,0.0,0.0,0.0,0.0,0.0,0.0,0.3737,0.4414,0.5193,0.614,0.6949,0.7723,0.8467,0.8954,0.9342,0.9599,0.9615,0.9844,1.0234,1.0234,1.0509,1.1019,1.1075,1.125,1.1556,1.1685,1.1864,1.2037,1.2016,1.1964,1.1896,1.1804,1.1575,1.1339,1.1551,1.1279,1.1142,1.3224,1.3573,1.3153,1.324,1.2884,1.2516,1.3048,1.3245,1.3372,1.376,1.4396,1.4953,1.5199,1.5558,1.5872,1.5697,1.5939,1.6161,1.6133,1.6413,1.6994,1.8029,1.964,2.157,2.3766,2.639,2.8918,3.1133,3.2829,3.4374,3.5812,3.6161,3.6497,3.6984,3.6916,3.6971,3.7356,3.7816,3.8305,3.879,3.9352,4.0215,4.1482,4.1686,4.2188,4.2974,4.2974,4.2974,4.2974,4.2974,4.2974,4.2974,4.2381,4.1842,4.1343,4.0427,3.9616,3.8883,3.8168,3.7962,3.8067,3.8688,3.9519,4.0658,4.259,4.4054,4.5289,0.0,0.0,0.0,0.0,0.0,0.0,0.0,0.0,0.0,0.0,0.0,0.0,0.0,0.0,0.0,0.0,0.0,0.0,0.0,0.4119,0.4763,0.5429,0.6184,0.6813,0.7315,0.7671,0.7975,0.8191,0.8191,0.8313,0.8534,0.8721,0.9008,0.9391,0.9613,0.9926,1.0242,1.0318,1.0419,0.0,0.0,1.0348,1.0381,1.0143,1.0003,0.9927,1.0151,1.0186,1.0254,1.1183,1.173,1.1979,1.1673,1.1437,1.1296,1.1414,1.1591,1.1791,1.1952,1.2513,1.3087,1.3348,1.3732,1.4067,1.4044,1.4256,1.441,1.4413,1.4728,1.5274,1.6118,1.7774,1.9675,2.1654,2.4378,2.7101,2.943,3.1262,3.306,3.5027,3.5514,3.5951,3.6649,3.6691,3.6725,3.6789,3.7356,3.7946,3.8501,3.9411,4.0289,4.1095,4.1719,4.2382,4.2974,4.2974,4.2974,4.2974,4.2974,4.2974,4.2974,4.2381,4.1859,4.132,4.0571,3.9708,3.8882,3.8422,3.825,3.8308,3.8883,3.9788,4.0898,4.2613,4.4,4.5301,0.0,0.0,0.0,0.0,0.0,0.0,0.0,0.0,0.0,0.0,0.0,0.0,0.0,0.0,0.0,0.0,0.0,0.0,0.0,0.0,0.4453,0.4895,0.5497,0.5957,0.6212,0.6346,0.644,0.6511,0.6508,0.6595,0.6785,0.7115,0.7544,0.8018,0.8475,0.894,0.9377,0.943,0.9493,0.9513,0.9113,0.8995,0.8996,0.0,0.8395,0.8364,0.8699,0.9084,0.9427,0.9255,1.0025,1.0959,1.0357,1.0258,1.0325,0.9911,0.9934,1.0099,1.0264,1.0585,1.0986,1.1531,1.1912,1.2213,1.2501,1.2563,1.2613,1.2711,1.3025,1.3492,1.4348,1.6053,1.7981,1.9902,2.2549,2.5294,2.8055,2.9931,3.191,3.4375,3.4995,3.5585,3.6514,3.658,3.6567,3.6635,3.7128,3.7694,3.8145,3.9521,4.0329,4.0499,4.1771,4.2638,4.2918,4.2974,4.2974,4.2974,4.2974,4.2974,4.2974,4.2381,4.1745,4.1148,4.0455,3.9532,3.8429,3.844,3.838,3.844,3.9012,3.9989,4.1206,4.24,4.3725,4.5073,0.0,0.0,0.0,0.0,0.0,0.0,0.0,0.0,0.0,0.0,0.3827,0.3281,0.0,0.0,0.0,0.0,0.0,0.0,0.0,0.0,0.0,0.4961,0.5302,0.5743,0.627,0.6414,0.6523,0.6585,0.6523,0.6547,0.6633,0.6651,0.6768,0.696,0.6996,0.7067,0.7161,0.7164,0.7177,0.7179,0.716,0.7166,0.7198,0.7431,0.0,0.0,0.8103,0.8451,0.8615,0.8633,0.9177,0.9775,0.9544,0.9174,0.8788,0.8838,0.8589,0.8393,0.8648,0.8785,0.9082,0.99,1.0471,1.0913,1.1238,1.1747,1.2086,1.1942,1.2188,1.2629,1.326,1.4532,1.6201,1.8396,2.0907,2.3708,2.6964,2.9225,3.1356,3.361,3.4695,3.5445,3.5961,3.6154,3.6353,3.6711,3.7068,3.7511,3.8077,3.9011,3.9989,4.1052,4.2024,4.2525,4.2581,4.2862,4.2974,4.2974,4.2974,4.2974,4.2974,4.2381,4.1859,4.1492,4.0571,3.9638,3.8693,3.8488,3.838,3.844,3.8764,3.9685,4.0906,4.1891,4.2992,4.4193,0.0,0.0,0.0,0.0,0.0,0.0,0.0,0.4449,0.4307,0.3975,0.3505,0.3191,0.3165,0.3015,0.291,0.0,0.0,0.0,0.0,0.0,0.0,0.0,0.0,0.0,0.5827,0.5967,0.6054,0.6075,0.0,0.5979,0.5979,0.6155,0.6253,0.6296,0.6471,0.6535,0.6486,0.6486,0.6474,0.644,0.645,0.6464,0.6508,0.0,0.0,0.0,0.7518,0.7822,0.7933,0.8017,0.8288,0.8607,0.8611,0.8268,0.7854,0.7613,0.7395,0.7156,0.7153,0.74,0.7746,0.8338,0.8996,0.9534,0.9776,1.0355,1.0804,1.0554,1.0937,1.1502,1.2205,1.3366,1.4917,1.7018,1.943,2.2109,2.5122,2.7678,3.0147,3.2597,3.4105,3.5357,3.6235,3.6551,3.6837,3.7215,3.7129,3.7286,3.7951,3.8817,3.9826,4.093,4.1663,4.2174,4.2525,4.2961,4.3184,4.3184,4.3376,4.35,4.3444,4.2818,4.23,4.1822,4.0848,3.9931,3.9049,3.8704,3.8585,3.8645,3.893,3.9744,4.0791,4.1765,4.2712,4.3768,0.0,0.0,0.0,0.0,0.0,0.0,0.0,0.4166,0.3888,0.3606,0.3344,0.3225,0.3347,0.3188,0.3024,0.0,0.0,0.0,0.0,0.0,0.0,0.0,0.0,0.0,0.5503,0.0,0.0,0.5706,0.5642,0.0,0.0,0.0,0.0,0.0,0.6108,0.6199,0.6125,0.6113,0.6057,0.0,0.0,0.5928,0.0,0.0,0.0,0.0,0.0,0.7357,0.7459,0.7588,0.77,0.7785,0.7832,0.7569,0.715,0.6642,0.6383,0.6212,0.6051,0.6277,0.6655,0.7136,0.7812,0.8387,0.8651,0.9174,0.9596,0.9441,0.9882,1.0547,1.1263,1.2469,1.4002,1.589,1.8311,2.0919,2.3612,2.6429,2.9158,3.1821,3.3744,3.538,3.6666,3.7238,3.7553,3.7691,3.7123,3.7032,3.7626,3.8526,3.9414,4.0269,4.1021,4.172,4.2287,4.2961,4.3406,4.3517,4.3819,4.401,4.3955,4.3419,4.2849,4.2231,4.1308,4.0397,3.9591,3.9108,3.893,3.893,3.9119,3.9755,4.0675,4.148,4.2388,4.3338,0.0,0.0,0.0,0.0,0.0,0.0,0.0,0.448,0.4149,0.3825,0.3589,0.3404,0.3241,0.288,0.2724,0.0,0.0,0.0,0.0,0.0,0.0,0.0,0.0,0.0,0.0,0.0,0.0,0.6049,0.5988,0.0,0.0,0.0,0.0,0.0,0.0,0.5343,0.5214,0.5154,0.0,0.0,0.0,0.0,0.0,0.0,0.0,0.0,0.0,0.7271,0.7273,0.7577,0.7701,0.7668,0.7429,0.7058,0.66,0.6339,0.5859,0.5466,0.5668,0.5601,0.566,0.6551,0.7262,0.7853,0.8273,0.8734,0.913,0.9365,0.9609,0.9964,1.0596,1.1922,1.3509,1.5215,1.7783,2.0606,2.357,2.6376,2.9098,3.1847,3.3933,3.5696,3.7,3.7747,3.8113,3.8052,3.7063,3.6595,3.6939,3.7626,3.8347,3.8978,4.0153,4.1079,4.1663,4.2569,4.3321,4.3832,4.4148,4.4258,4.4258,4.389,4.3436,4.2862,4.1935,4.1136,4.0501,3.965,3.9238,3.9238,3.893,3.9391,4.0281,4.0675,4.1537,4.2681,0.0,0.0,0.0,0.0,0.0,0.0,0.4621,0.4674,0.4358,0.4025,0.3807,0.3609,0.3403,0.3169,0.2954,0.2794,0.0,0.0,0.0,0.0,0.0,0.0,0.0,0.0,0.0,0.0,0.6459,0.6459,0.6394,0.0,0.0,0.0,0.0,0.0,0.0,0.5445,0.5272,0.5214,0.0,0.0,0.0,0.0,0.0,0.0,0.0,0.0,0.0,0.0,0.7172,0.7386,0.7447,0.7481,0.7514,0.7208,0.6721,0.6128,0.563,0.5242,0.5387,0.5364,0.5514,0.6318,0.6888,0.7377,0.779,0.8354,0.8772,0.8836,0.9279,0.9827,1.0489,1.1546,1.2907,1.4604,1.6791,1.9312,2.2189,2.5307,2.8347,3.1308,3.4066,3.621,3.7512,3.8461,3.8616,3.7751,3.6671,3.5983,3.5716,3.6513,3.7352,3.8075,3.9105,3.9931,4.0646,4.2075,4.3076,4.3659,4.4483,4.491,4.5059,4.4789,4.4341,4.3751,4.3004,4.2275,4.148,4.0675,4.0281,4.0106,3.9744,3.9989,4.0537,4.0884,4.139,4.2061,0.0,0.0,0.0,0.0,0.0,0.0801,0.3167,0.4166,0.455,0.4226,0.401,0.3825,0.3642,0.3477,0.3247,0.2908,0.3066,0.0,0.0,0.0,0.0,0.0,0.0,0.0,0.0,0.0,0.6889,0.6909,0.6835,0.6748,0.0,0.0,0.6269,0.6072,0.0,0.0,0.0,0.0,0.0,0.0,0.0,0.0,0.0,0.0,0.0,0.0,0.0,0.0,0.0,0.0,0.0,0.751,0.7563,0.7353,0.6984,0.6269,0.576,0.5443,0.5468,0.5476,0.5598,0.6267,0.677,0.7181,0.7509,0.8082,0.8584,0.8565,0.9042,0.9668,1.0314,1.1377,1.2623,1.4118,1.6303,1.8695,2.1319,2.4545,2.7817,3.1034,3.4061,3.6522,3.8138,3.9079,3.9077,3.7779,3.6574,3.5541,3.4797,3.5211,3.5958,3.7019,3.7924,3.8824,3.9726,4.1313,4.2633,4.3619,4.4665,4.5435,4.5808,4.5768,4.5395,4.4789,4.4152,4.3492,4.2812,4.198,4.1468,4.1182,4.0791,4.0699,4.0896,4.1127,4.139,4.172,0.0,0.0,0.0,0.0,0.0,0.0,0.0038,0.2761,0.4692,0.4426,0.4216,0.4044,0.3903,0.3716,0.3517,0.3306,0.3361,0.0,0.0,0.0,0.0,0.0,0.0,0.0,0.0,0.0,0.7318,0.7392,0.7329,0.7227,0.7091,0.6891,0.6685,0.6484,0.0,0.0,0.0,0.0,0.0,0.0,0.0,0.0,0.0,0.0,0.0,0.0,0.0,0.0,0.0,0.0,0.0,0.0,0.0,0.7337,0.7293,0.6836,0.6352,0.601,0.6168,0.5945,0.5829,0.6371,0.6886,0.7324,0.7474,0.8032,0.8527,0.8664,0.8964,0.9375,0.9903,1.1368,1.2835,1.3828,1.6537,1.923,2.1388,2.442,2.7729,3.125,3.4008,3.6562,3.893,3.9569,3.9382,3.8387,3.6785,3.5448,3.4485,3.3711,3.4075,3.565,3.6642,3.7744,3.9129,4.0287,4.1916,4.3926,4.4768,4.5599,4.6428,4.6717,4.656,4.5954,4.5315,4.494,4.4574,4.3368,4.27,4.2419,4.1822,4.1447,4.1184,4.1184,4.139,4.1606,0.0,0.0,0.0,0.0,0.0,0.0,0.0,0.1797,0.3494,0.441,0.4361,0.4192,0.4048,0.3891,0.373,0.3525,0.3318,0.0,0.0,0.0,0.0,0.0,0.0,0.0,0.0,0.0,0.765,0.7804,0.779,0.7717,0.7569,0.737,0.7173,0.6969,0.671,0.6493,0.0,0.0,0.0,0.0,0.0,0.0,0.494,0.0,0.0,0.0,0.0,0.0,0.0,0.0,0.0,0.0,0.0,0.0,0.0,0.7573,0.6978,0.631,0.6498,0.6369,0.6275,0.674,0.7046,0.7293,0.751,0.7874,0.8242,0.8495,0.9043,0.9632,1.0114,1.1599,1.3067,1.3999,1.6324,1.8807,2.097,2.4214,2.7566,3.0876,3.5216,3.8622,4.0402,4.0314,3.9801,3.8994,3.727,3.5705,3.4485,3.3267,3.32,3.4518,3.5125,3.6092,3.7462,3.9152,4.0867,4.2489,4.4316,4.5551,4.6182,4.7057,4.725,4.6873,4.6703,4.6296,4.5794,4.4819,4.4235,4.3907,4.3159,4.2613,4.2344,4.1972,4.1732,4.1606,0.0,0.0,0.0,0.0,0.0,0.0,0.0,0.0847,0.2255,0.437,0.4501,0.4357,0.4198,0.4053,0.3913,0.3727,0.3448,0.0,0.0,0.0,0.0,0.0,0.0,0.0,0.0,0.7555,0.7903,0.8106,0.8149,0.8092,0.798,0.7803,0.7621,0.7418,0.7176,0.6939,0.0,0.0,0.0,0.0,0.0,0.0,0.5108,0.0,0.0,0.0,0.0,0.0,0.0,0.0,0.0,0.0,0.0,0.0,0.0,0.0,0.7465,0.6961,0.6963,0.6783,0.6706,0.7075,0.7312,0.7502,0.7654,0.7931,0.8227,0.8412,0.9065,0.9751,1.0213,1.1783,1.3323,1.4346,1.6456,1.878,2.1049,2.4101,2.7767,3.2153,3.6708,4.004,4.1428,4.1018,4.0347,3.9604,3.767,3.5806,3.4109,3.2783,3.2283,3.2665,3.3551,3.4723,3.6145,3.7833,3.9593,4.1454,4.3318,4.4735,4.5705,4.6597,4.7016,4.7016,4.7202,4.7068,0.0,4.6188,4.5755,4.5422,4.4587,4.389,4.3381,4.2806,4.2243,4.1789,0.0,0.0,0.0,0.0,0.0,0.0,0.0,0.0094,0.1229,0.4153,0.4581,0.4534,0.4344,0.4194,0.4054,0.3914,0.0,0.0,0.0,0.0,0.0,0.0,0.0,0.0,0.0,0.752,0.8066,0.8312,0.8393,0.8393,0.8325,0.8198,0.8027,0.7832,0.7628,0.7387,0.0,0.0,0.0,0.0,0.0,0.0,0.0,0.0,0.0,0.0,0.0,0.0,0.0,0.0,0.0,0.0,0.0,0.0,0.0,0.0,0.0,0.0,0.0,0.7238,0.7092,0.7319,0.7629,0.7851,0.7809,0.814,0.0,0.844,0.9048,0.9768,1.0229,1.1869,1.3552,1.48,1.6888,1.916,2.1536,2.4381,2.8499,3.4617,3.8225,4.072,4.1886,4.1537,4.0893,4.0138,3.8037,3.5758,3.3464,3.2273,3.1319,3.0547,3.1929,3.3503,3.5124,3.6371,3.8219,4.0689,4.1916,4.3362,4.4934,4.5599,4.6119,4.6571,4.6989,4.732,4.7504,4.7406,4.7167,4.6791,4.606,4.5207,4.437,4.3713,4.2961,4.2142,0.0,0.0,0.0,0.0,0.0,0.0,0.0,0.0,0.0,0.0,0.3953,0.4612,0.4474,0.4331,0.4179,0.0,0.0,0.0,0.0,0.0,0.0,0.0,0.0,0.0,0.0,0.7228,0.7811,0.8526,0.8642,0.8706,0.8678,0.8543,0.8402,0.8242,0.8043,0.7702,0.7235,0.0,0.0,0.0,0.0,0.0,0.0,0.0,0.0,0.0,0.5786,0.6057,0.0,0.0,0.0,0.0,0.0,0.0,0.0,0.0,0.7809,0.7871,0.7674,0.0,0.743,0.7281,0.7464,0.7679,0.0,0.7895,0.8166,0.8625,0.9221,0.9871,1.0491,1.211,1.3698,1.4901,1.7108,1.9544,2.1992,2.7017,3.1738,3.5184,3.8149,4.0221,4.0943,4.1387,4.1034,3.9726,3.7897,3.5938,3.3957,3.2166,3.0942,3.0537,3.0581,3.1568,3.3618,3.5189,3.6881,3.8624,4.0655,4.2147,4.3232,4.4856,4.5783,4.6105,4.6767,4.735,4.7883,4.7582,4.7606,4.7759,4.7119,4.6389,4.5515,4.4683,4.3823,4.2954,0.0,0.0,0.0,0.0,0.0,0.0,0.0,0.0,0.0,0.0,0.0,0.0,0.0,0.0,0.0,0.0,0.0,0.0,0.0,0.0,0.0,0.0,0.0,0.0,0.5913,0.6836,0.758,0.8148,0.8622,0.8852,0.8886,0.8824,0.8709,0.8571,0.8276,0.7919,0.7515,0.7237,0.6944,0.0,0.6307,0.0,0.0,0.0,0.0,0.0,0.5796,0.603,0.0,0.6931,0.722,0.7275,0.0,0.0,0.0,0.0,0.7796,0.7936,0.7893,0.7817,0.7699,0.7592,0.7672,0.7775,0.7759,0.8017,0.836,0.8648,0.936,1.0112,1.0769,1.2192,1.3756,1.5234,1.7185,1.9866,2.3743,2.8746,3.2832,3.509,3.8179,4.0261,4.0685,4.1317,4.115,3.9795,3.7995,3.6022,3.3838,3.2127,3.0792,2.9845,2.9739,3.0606,3.2493,3.3821,3.5288,3.6918,3.8802,4.0322,4.1487,4.3038,4.4092,4.4706,4.5675,4.648,4.7138,4.7578,4.7906,4.817,4.7929,4.7414,4.6649,4.5499,4.4438,4.3416,0.0,0.0,0.0,0.0,0.0,0.0,0.0,0.0,0.0,0.0,0.0,0.0,0.0,0.0,0.0,0.0,0.0,0.0,0.0,0.0,0.0,0.0,0.0,0.46,0.4903,0.6385,0.7297,0.7604,0.8498,0.8957,0.9027,0.9028,0.8947,0.88,0.8425,0.8121,0.7847,0.7576,0.7253,0.6919,0.6582,0.0,0.0,0.0,0.0,0.0,0.0,0.0,0.0,0.6886,0.7257,0.7405,0.742,0.0,0.0,0.0,0.0,0.0,0.804,0.8,0.7939,0.7978,0.7985,0.7953,0.7852,0.827,0.8676,0.8738,0.9541,1.0417,1.1032,1.2271,1.3789,1.5594,1.759,2.0679,2.5736,2.9642,3.2742,3.4731,3.7965,4.0142,4.0496,4.1008,4.0844,3.9757,3.8043,3.5999,3.3544,3.2183,3.0738,2.9172,2.9272,3.002,3.1459,3.2426,3.3709,3.5343,3.6811,3.8206,3.9623,4.0794,4.1855,4.2895,4.4118,4.5164,4.5997,4.7224,4.7869,4.8143,4.8296,4.7998,4.7373,4.6021,4.4893,4.3822,0.0,0.0,0.0,0.0,0.0,0.0,0.0,0.0,0.0,0.0,0.0,0.0,0.0,0.0,0.0,0.0,0.0,0.0,0.0,0.0,0.0,0.0,0.3751,0.4175,0.4882,0.5968,0.6888,0.7602,0.8589,0.9104,0.9168,0.9174,0.9075,0.8869,0.865,0.8396,0.813,0.7854,0.7509,0.7122,0.6794,0.0,0.0,0.0,0.0,0.0,0.0,0.0,0.0,0.6682,0.7097,0.742,0.746,0.0,0.0,0.0,0.0,0.0,0.7912,0.7998,0.8039,0.7938,0.7914,0.7931,0.7953,0.8224,0.8641,0.9319,0.9981,1.0648,1.1241,1.2637,1.4168,1.5568,1.9414,2.3223,2.6215,2.9451,3.232,3.4501,3.6882,3.8635,3.9362,3.9554,3.9334,3.8656,3.7223,3.5546,3.3689,3.2136,3.084,2.9813,2.9044,2.9044,2.9853,3.1285,3.2483,3.3505,3.4991,3.636,3.7595,3.8963,4.0147,4.1243,4.2533,4.3918,4.5228,4.6031,4.67,4.7234,4.7473,4.7227,4.6714,4.6013,4.5312,4.455,0.0,0.0,0.0,0.0,0.0,0.0,0.0,0.0,0.0,0.0,0.0,0.0,0.0,0.0,0.0,0.0,0.0,0.0,0.0,0.0,0.0,0.3598,0.3626,0.3852,0.4303,0.525,0.6158,0.7006,0.797,0.8717,0.9209,0.9234,0.9162,0.9006,0.8835,0.8636,0.8399,0.8099,0.7775,0.7439,0.0,0.0,0.0,0.0,0.0,0.0,0.0,0.0,0.0,0.0,0.6974,0.7225,0.7487,0.0,0.0,0.0,0.0,0.0,0.8016,0.8023,0.7963,0.8137,0.8181,0.8177,0.8217,0.8602,0.9091,0.9605,1.02,1.0863,1.173,1.2703,1.4127,1.6501,1.9664,2.2797,2.555,2.8387,3.1028,3.324,3.5647,3.7333,3.7866,3.8188,3.8126,3.7545,3.6259,3.48,3.3098,3.2085,3.0848,2.9348,2.8983,2.8746,2.8668,2.9726,3.0888,3.217,3.3448,3.4725,3.5947,3.7382,3.865,3.979,4.1143,4.2454,4.3705,4.4965,4.5893,4.6571,4.7322,4.7437,4.7081,4.6056,4.5142,4.429,0.0,0.0,0.0,0.0,0.0,0.0,0.0,0.0,0.0,0.0,0.0,0.0,0.0,0.0,0.0,0.0,0.0,0.0,0.0,0.0,0.3686,0.361,0.3598,0.3652,0.3773,0.4682,0.5495,0.621,0.7338,0.8344,0.9224,0.9295,0.9248,0.9114,0.9001,0.8829,0.8602,0.8286,0.7996,0.7709,0.0,0.0,0.0,0.0,0.0,0.0,0.0,0.0,0.0,0.0,0.0,0.0,0.0,0.0,0.0,0.7603,0.751,0.7543,0.8142,0.8053,0.7903,0.8319,0.8423,0.843,0.8416,0.8928,0.9491,0.9765,1.0372,1.1113,1.1974,1.2846,1.4397,1.7283,1.9411,2.1668,2.4476,2.6955,2.9376,3.1678,3.4006,3.5624,3.6199,3.659,3.6652,3.6201,3.5089,3.3801,3.2346,3.1625,3.0505,2.881,2.8584,2.8332,2.7997,2.8363,2.9288,3.085,3.2102,3.3289,3.4413,3.5838,3.7126,3.8348,3.9674,4.0893,4.2137,4.3759,4.4928,4.5787,4.6803,4.7224,4.7137,4.6107,4.517,4.4387,0.0,0.0,0.0,0.0,0.0,0.0,0.0,0.0,0.0,0.0,0.0,0.0,0.0,0.0,0.0,0.0,0.0,0.0,0.0,0.0,0.373,0.3605,0.36,0.3632,0.3709,0.4571,0.5131,0.5386,0.701,0.8319,0.9298,0.9365,0.9314,0.9184,0.9118,0.8947,0.8667,0.8403,0.8128,0.7849,0.7379,0.0,0.0,0.0,0.0,0.0,0.0,0.0,0.0,0.0,0.0,0.0,0.0,0.0,0.7681,0.7618,0.7554,0.7609,0.8159,0.8053,0.7921,0.8382,0.8492,0.8505,0.8491,0.8951,0.9497,0.982,1.0631,1.1317,1.1507,1.3309,1.5399,1.7382,1.8985,2.0808,2.3194,2.5244,2.7458,3.0044,3.1596,3.2963,3.4412,3.4388,3.4376,3.4571,3.3498,3.2448,3.1545,3.0364,2.9424,2.871,2.7609,2.7347,2.7881,2.7429,2.7952,2.954,3.085,3.195,3.2903,3.4134,3.5443,3.6834,3.8019,3.9481,4.0993,4.2101,4.3355,4.4565,4.51,4.5588,4.6056,4.6118,4.597,4.5642,0.0,0.0,0.0,0.0,0.0,0.0,0.0,0.0,0.0,0.0,0.0,0.0,0.0,0.0,0.0,0.0,0.0,0.0,0.0,0.0,0.3735,0.3608,0.3555,0.3555,0.3581,0.4014,0.4578,0.524,0.7001,0.8107,0.8572,0.9098,0.9282,0.9189,0.9131,0.8967,0.8749,0.852,0.8243,0.7919,0.75,0.7125,0.0,0.0,0.0,0.0,0.0,0.0,0.0,0.0,0.6217,0.6684,0.6989,0.7379,0.7695,0.7681,0.7593,0.7625,0.8208,0.8079,0.7935,0.8535,0.8681,0.8729,0.8849,0.9134,0.9577,1.0262,1.0623,1.1122,1.219,1.3433,1.4889,1.67,1.7906,1.9511,2.2124,2.3881,2.5773,2.8084,2.9671,3.0996,3.1912,3.2132,3.2262,3.2325,3.1625,3.0776,2.9973,2.9581,2.8941,2.8024,2.7457,2.7199,2.7254,2.6839,2.7026,2.7875,2.9423,3.0723,3.1835,3.2913,3.4067,3.5388,3.6684,3.806,3.9429,4.0843,4.2195,4.3573,4.5018,4.5911,4.6328,4.6417,4.6358,4.6314,0.0,0.0,0.0,0.0,0.0,0.0,0.0,0.0,0.0,0.0,0.0,0.0,0.0,0.0,0.0,0.0,0.0,0.0,0.4107,0.3909,0.375,0.3634,0.3552,0.3502,0.3502,0.3658,0.4087,0.4788,0.663,0.7704,0.808,0.89,0.9243,0.9196,0.9126,0.8983,0.8779,0.8587,0.8315,0.8004,0.762,0.7266,0.0,0.0,0.0,0.0,0.0,0.0,0.0,0.0,0.6024,0.6487,0.6787,0.7252,0.7695,0.7681,0.7593,0.7625,0.8217,0.8096,0.795,0.864,0.8769,0.8809,0.9134,0.9384,0.9764,1.037,1.0686,1.1306,1.2757,1.3533,1.4472,1.6063,1.7054,1.8473,2.0914,2.2428,2.4035,2.6073,2.7633,2.8765,2.9365,2.9719,2.989,2.9838,2.9316,2.8755,2.8226,2.8203,2.7864,2.7161,2.6841,2.6587,2.6558,2.6263,2.6324,2.6743,2.8024,2.9406,3.0828,3.1681,3.2813,3.4134,3.5388,3.6684,3.7967,3.952,4.1243,4.3095,4.4819,4.5866,4.6373,4.6462,4.655,4.6594,0.0,0.0,0.0,0.0,0.0,0.0,0.0,0.0,0.0,0.0,0.0,0.0,0.0,0.0,0.0,0.0,0.0,0.0,0.4112,0.3908,0.3773,0.3701,0.3566,0.3505,0.3505,0.3562,0.3699,0.3906,0.5785,0.7149,0.8007,0.8811,0.9206,0.9201,0.9135,0.8979,0.8779,0.8589,0.8338,0.8066,0.7731,0.7399,0.7066,0.0,0.0,0.0,0.0,0.0,0.0,0.0,0.5831,0.6486,0.6428,0.6998,0.7681,0.7618,0.7554,0.7609,0.8159,0.8053,0.7968,0.8627,0.8709,0.874,0.9275,0.9715,1.001,1.0002,1.0921,1.2037,1.3116,1.3715,1.4446,1.5522,1.6555,1.7842,1.9613,2.082,2.2197,2.4128,2.5327,2.6294,2.7006,2.7055,2.7055,2.7055,2.6627,2.6399,2.6399,2.6208,2.6054,2.6063,2.5496,2.5412,2.5813,2.553,2.572,2.6371,2.6725,2.7918,2.9814,3.0423,3.1552,3.3109,3.4078,3.5278,3.6661,3.819,4.0553,4.3266,4.428,4.5187,4.5925,4.6135,4.6358,4.6639,0.0,0.0,0.0,0.0,0.0,0.0,0.0,0.0,0.0,0.0,0.0,0.0,0.0,0.0,0.0,0.0,0.0,0.0,0.4185,0.3983,0.3818,0.3701,0.3576,0.3483,0.3434,0.3537,0.3718,0.397,0.5671,0.6673,0.7046,0.8365,0.9039,0.913,0.9012,0.8891,0.8784,0.8592,0.8335,0.8066,0.7775,0.7498,0.7198,0.0,0.0,0.0,0.0,0.0,0.0,0.0,0.0,0.0,0.6864,0.7303,0.7695,0.7681,0.7593,0.7625,0.8217,0.8096,0.8017,0.8937,0.9001,0.9005,0.9451,0.9633,0.9932,1.061,1.1205,1.1834,1.2701,1.3291,1.3969,1.5041,1.6066,1.7167,1.8573,1.9846,2.1085,2.2276,2.372,2.4776,2.5141,2.5461,2.5524,2.5335,2.5017,2.4879,2.4844,2.4801,2.4942,2.5379,2.5063,2.502,2.5395,2.5087,2.5194,2.5569,2.5913,2.6886,2.8406,2.9192,3.0208,3.1334,3.2556,3.3802,3.5188,3.7968,4.0236,4.2159,4.3239,4.4247,4.5095,4.5338,4.5716,4.6061,0.0,0.0,0.0,0.0,0.0,0.0,0.0,0.0,0.0,0.0,0.0,0.0,0.0,0.0,0.0,0.0,0.0,0.0,0.0,0.4051,0.388,0.3745,0.3581,0.3474,0.3395,0.3533,0.3821,0.428,0.565,0.6408,0.6595,0.8141,0.8925,0.9019,0.893,0.8852,0.8743,0.8567,0.8344,0.8073,0.7812,0.7543,0.726,0.0,0.0,0.0,0.0,0.0,0.0,0.0,0.0,0.0,0.7074,0.7443,0.7739,0.7671,0.7698,0.7832,0.8254,0.8202,0.8236,0.9096,0.9152,0.917,0.9794,0.9895,1.0159,1.1184,1.157,1.1887,1.2586,1.3291,1.3968,1.4628,1.567,1.6771,1.7838,1.8847,1.9878,2.0818,2.2079,2.2991,2.3252,2.3646,2.3772,2.3634,2.3513,2.3495,2.3617,2.3755,2.4104,2.4703,2.4552,2.4682,2.5167,2.502,2.5099,2.5395,2.5734,2.6315,2.7176,2.8238,2.9237,3.0238,3.1719,3.3203,3.4812,3.7259,3.9332,4.1069,4.2088,4.3095,4.4139,4.4401,4.4833,4.5293,0.0,0.0,0.0,0.0,0.0,0.0,0.0,0.0,0.0,0.0,0.0,0.0,0.0,0.0,0.0,0.0,0.0,0.0,0.0,0.0,0.4148,0.3997,0.3791,0.3645,0.3581,0.3693,0.4092,0.478,0.5716,0.6321,0.6604,0.8083,0.881,0.8886,0.8886,0.8806,0.8673,0.8548,0.8338,0.808,0.7819,0.7551,0.7276,0.7006,0.0,0.0,0.0,0.0,0.0,0.0,0.0,0.0,0.7199,0.7528,0.7778,0.7661,0.7841,0.8142,0.8276,0.836,0.8571,0.9188,0.9219,0.933,1.0219,1.0393,1.0635,1.1703,1.188,1.2083,1.2608,1.3586,1.4321,1.4321,1.5358,1.6504,1.7296,1.789,1.8649,1.9635,2.0565,2.1172,2.1419,2.1728,2.1929,2.1929,2.2024,2.2239,2.255,2.2938,2.3474,2.4035,2.4088,2.4386,2.5058,2.5058,2.5235,2.5572,2.5891,2.6073,2.6136,2.7426,2.8615,2.9679,3.1322,3.3149,3.4978,3.6133,3.784,3.9854,4.0729,4.19,4.3074,4.3362,4.3804,4.4364,0.0,0.0,0.0,0.0,0.0,0.0,0.0,0.0,0.0,0.0,0.0,0.0,0.0,0.0,0.0,0.0,0.0,0.0,0.0,0.0,0.5703,0.5456,0.5155,0.4988,0.4971,0.4943,0.5062,0.533,0.5803,0.6384,0.7081,0.8088,0.8626,0.8741,0.8741,0.8694,0.8606,0.8476,0.8321,0.815,0.7884,0.762,0.7351,0.7075,0.6799,0.0,0.0,0.0,0.0,0.0,0.0,0.0,0.7856,0.7905,0.7792,0.7763,0.7917,0.8149,0.8394,0.8504,0.8733,0.9442,0.9697,0.9915,1.0354,1.0624,1.0985,1.1742,1.188,1.2124,1.2868,1.3718,1.4366,1.4501,1.5451,1.6333,1.672,1.7471,1.8134,1.853,1.9515,2.0216,2.0265,2.05,2.0704,2.0704,2.0774,2.1026,2.152,2.2063,2.2758,2.3583,2.385,2.4138,2.4632,2.4641,2.4677,2.4765,2.5353,2.5774,2.6052,2.7105,2.8218,2.9491,3.0576,3.1848,3.3287,3.4479,3.6067,3.7883,3.8981,4.0369,4.1756,4.2262,4.2908,4.3546,0.0,0.0,0.0,0.0,0.0,0.0,0.0,0.0,0.0,0.0,0.0,0.0,0.0,0.0,0.0,0.0,0.0,0.0,0.0,0.0,0.0,0.5911,0.5668,0.552,0.5455,0.5415,0.559,0.5981,0.6186,0.6562,0.7118,0.7989,0.8473,0.8608,0.8632,0.8614,0.8542,0.8444,0.8321,0.8181,0.7942,0.7687,0.7415,0.7147,0.707,0.708,0.7054,0.0,0.0,0.0,0.0,0.0,0.0,0.0,0.7976,0.7879,0.817,0.8529,0.8552,0.873,0.903,0.9459,0.9922,1.0311,1.0477,1.0837,1.1269,1.172,1.2027,1.241,1.2952,1.3702,1.43,1.4389,1.5198,1.5952,1.6318,1.6867,1.7446,1.7921,1.8636,1.918,1.9421,1.9732,1.9981,2.0119,2.0239,2.0491,2.0933,2.1677,2.2364,2.3123,2.361,2.4107,2.4657,2.4657,2.4808,2.5154,2.5477,2.5986,2.6605,2.7286,2.8139,2.9108,2.9847,3.084,3.1998,3.3174,3.4618,3.6188,3.7575,3.8918,4.0232,4.118,4.1931,4.2582,0.0,0.0,0.0,0.0,0.0,0.0,0.0,0.0,0.0,0.0,0.0,0.0,0.0,0.0,0.0,0.0,0.0,0.0,0.0,0.0,0.0,0.6294,0.6132,0.5981,0.5865,0.5824,0.6089,0.6652,0.6722,0.6876,0.7117,0.7889,0.8322,0.847,0.8537,0.8543,0.8483,0.8409,0.8307,0.8176,0.7986,0.7746,0.7498,0.7351,0.7429,0.7618,0.7548,0.7673,0.7911,0.8142,0.0,0.0,0.0,0.0,0.8187,0.8009,0.8402,0.8873,0.8719,0.9031,0.9404,0.9455,0.9982,1.0501,1.0506,1.0946,1.1395,1.1588,1.2075,1.2637,1.3003,1.3616,1.4152,1.4248,1.488,1.5501,1.5951,1.6309,1.6786,1.7492,1.7869,1.8301,1.8783,1.9143,1.9452,1.9685,1.9942,2.0272,2.0666,2.1493,2.2186,2.273,2.3448,2.4067,2.4615,2.4739,2.5094,2.5633,2.575,2.6305,2.7112,2.7531,2.8091,2.8674,2.9195,2.9969,3.0937,3.1989,3.3265,3.4659,3.6196,3.7616,3.8932,4.0107,4.1006,4.1696,0.0,0.0,0.0,0.0,0.0,0.0,0.0,0.0,0.0,0.0,0.0,0.0,0.0,0.0,0.0,0.0,0.0,0.0,0.891,0.0,0.0,0.7819,0.7566,0.7395,0.7322,0.7152,0.7134,0.7279,0.7355,0.7437,0.7533,0.7881,0.8135,0.8327,0.8396,0.8412,0.8409,0.8347,0.827,0.8176,0.7986,0.7768,0.7624,0.7927,0.7937,0.7873,0.8589,0.8726,0.8621,0.8938,0.8833,0.0,0.0,0.0,0.8262,0.8176,0.8354,0.8622,0.888,0.9374,0.9795,0.9686,0.9836,1.0108,1.0515,1.0821,1.1077,1.1228,1.1761,1.2401,1.3134,1.3532,1.3917,1.4389,1.4803,1.5197,1.5683,1.5987,1.6366,1.6923,1.744,1.7875,1.8202,1.8489,1.8699,1.8924,1.9437,1.9984,2.0503,2.1333,2.2065,2.2512,2.3419,2.3948,2.4003,2.4602,2.4947,2.5013,2.5681,2.6225,2.6679,2.7004,2.7588,2.8344,2.8674,2.9172,2.9846,3.0725,3.1979,3.3508,3.4766,3.6425,3.8285,3.8944,4.0081,4.1361,0.0,0.0,0.0,0.0,0.0,0.0,0.0,0.0,0.0,0.0,0.0,0.0,0.0,0.0,0.0,0.9331,0.947,0.9433,0.9157,0.8778,0.8476,0.8281,0.8047,0.7863,0.7717,0.7545,0.7461,0.7453,0.7484,0.7507,0.7545,0.7739,0.7955,0.8191,0.8294,0.834,0.8347,0.8311,0.8218,0.8083,0.7992,0.7841,0.7707,0.8144,0.8346,0.8488,0.9104,0.935,0.9366,0.9364,0.9193,0.8949,0.8773,0.0,0.0,0.0,0.8527,0.8815,0.9222,0.9694,0.9979,0.9677,0.9923,1.0208,1.0114,1.0711,1.1244,1.1092,1.1553,1.2191,1.2786,1.3267,1.3756,1.4309,1.4653,1.5037,1.5566,1.5857,1.6183,1.6587,1.7008,1.7392,1.7797,1.8118,1.8458,1.9012,1.9396,1.9857,2.0356,2.1218,2.1895,2.2361,2.3147,2.3654,2.3796,2.4286,2.4753,2.5137,2.5633,2.6042,2.6509,2.661,2.7002,2.7588,2.8137,2.8613,2.9051,3.012,3.1275,3.2421,3.3827,3.5568,3.7295,3.8339,3.95,4.0694,0.0,0.0,0.0,0.0,0.0,0.0,0.0,0.0,0.0,0.0,0.0,0.0,0.0,0.0,0.0,0.0,0.9727,0.9489,0.9138,0.8891,0.866,0.8467,0.8252,0.8061,0.7855,0.7724,0.7612,0.7522,0.7507,0.7577,0.7733,0.7844,0.8108,0.847,0.83,0.8249,0.8276,0.8236,0.8133,0.8004,0.7985,0.7863,0.7767,0.8391,0.8753,0.8999,0.9559,0.9849,0.9931,0.9659,0.9448,0.922,0.8978,0.8811,0.0,0.0,0.0,0.9004,0.9415,0.9791,0.9995,0.9742,0.9954,1.0187,0.9949,1.0563,1.1136,1.097,1.1439,1.1972,1.234,1.2912,1.3517,1.4057,1.4356,1.4698,1.5276,1.5591,1.5907,1.6243,1.658,1.6959,1.7445,1.7842,1.8371,1.9012,1.9521,1.9945,2.0382,2.1162,2.1816,2.2226,2.2954,2.341,2.3596,2.4202,2.4766,2.5266,2.5586,2.5859,2.6221,2.6221,2.6396,2.6719,2.7503,2.7998,2.8399,2.956,3.0563,3.1589,3.3096,3.4719,3.6367,3.7725,3.888,3.9893,0.0,0.0,0.0,0.0,0.0,0.0,0.0,0.0,0.0,0.0,0.0,0.0,1.0102,1.0047,0.9966,0.9913,0.9774,0.9544,0.9209,0.8995,0.8801,0.8604,0.839,0.0,0.7997,0.7863,0.7724,0.7605,0.753,0.7796,0.835,0.8425,0.8842,0.9475,0.8469,0.8085,0.8197,0.8075,0.8018,0.7997,0.7927,0.7827,0.7811,0.8856,0.9144,0.9121,1.0105,1.0323,1.0135,0.9867,0.9646,0.9449,0.9245,0.9081,0.8941,0.0,0.0,0.0,0.9247,0.9461,0.9724,1.007,0.986,0.9703,1.0308,1.0347,1.036,1.0735,1.1278,1.1729,1.1836,1.2447,1.3145,1.3747,1.3852,1.4057,1.4577,1.4939,1.5331,1.5856,1.6206,1.661,1.7094,1.7668,1.8192,1.871,1.9689,2.0382,2.0654,2.1302,2.1813,2.208,2.2967,2.3403,2.3403,2.4509,2.5078,2.5107,2.5537,2.5703,2.5723,2.5723,2.5732,2.5801,2.668,2.7347,2.7884,2.8676,2.977,3.1074,3.2353,3.3881,3.5499,3.6871,3.8016,3.9083,0.0,0.0,0.0,0.0,0.0,0.0,0.0,0.0,0.0,0.0,0.0,0.0,0.0,0.9996,0.9935,0.9894,0.9692,0.9486,0.9285,0.9113,0.8913,0.8678,0.8513,0.8338,0.814,0.7963,0.7775,0.7605,0.7535,0.7762,0.8268,0.8303,0.8677,0.9341,0.9169,0.9142,0.9217,0.9168,0.8912,0.8514,0.8483,0.8175,0.7818,0.8944,0.9269,0.9263,1.0319,1.0548,1.0287,1.0059,0.9854,0.9659,0.9458,0.9298,0.9162,0.8958,0.9086,0.9314,0.9245,0.9579,0.9908,0.9839,0.9886,0.9943,0.9882,1.0189,1.0534,1.055,1.1056,1.1657,1.2158,1.2534,1.3039,1.38,1.3948,1.417,1.4781,1.5185,1.5438,1.5468,1.6085,1.6594,1.6766,1.7414,1.8057,1.8731,1.9489,2.0226,2.0933,2.1407,2.1963,2.2539,2.2859,2.3239,2.3644,2.4173,2.4753,2.5362,2.5615,2.5938,2.6217,2.6062,2.5965,2.5975,2.6104,2.6546,2.7222,2.8107,2.9213,3.0568,3.1734,3.3358,3.5141,3.6133,3.7368,3.8742,0.0,0.0,0.0,0.0,0.0,0.0,0.0,0.0,0.0,0.0,0.0,0.0,0.0,0.0,1.0395,1.0621,1.0196,0.9852,0.971,0.9298,0.8957,0.8749,0.8587,0.8409,0.8202,0.7997,0.7916,0.7937,0.7848,0.8149,0.8798,0.8779,0.9111,0.9751,0.9962,0.9933,0.9699,0.9699,0.9449,0.9013,0.8806,0.8545,0.8352,0.9116,0.943,0.9581,1.048,1.0632,1.0412,1.0236,1.0034,0.9841,0.9658,0.9473,0.9299,0.9092,0.9184,0.9336,0.9256,0.9472,0.9736,0.9715,0.9801,0.986,0.9712,1.0026,1.0392,1.0482,1.095,1.1522,1.2149,1.2435,1.2839,1.3696,1.3935,1.424,1.4803,1.5134,1.5317,1.5219,1.5822,1.6338,1.6456,1.7206,1.7956,1.8684,1.9359,2.014,2.1055,2.1505,2.208,2.2882,2.2882,2.3149,2.3708,2.3979,2.448,2.5169,2.5598,2.5936,2.6275,2.6234,2.6245,2.6197,2.5965,2.6123,2.6616,2.7501,2.8688,3.0081,3.118,3.2796,3.4569,3.5557,3.6835,3.8202,0.0,0.0,0.0,0.0,0.0,0.0,0.0,0.0,0.0,1.0236,0.0,0.0,0.0,0.0,0.0,1.205,1.125,1.0668,1.0539,0.9589,0.8975,0.884,0.8614,0.8412,0.8229,0.8034,0.8154,0.8617,0.8487,0.8963,0.9988,0.9922,1.0203,1.0789,1.0789,1.0314,0.9518,0.9528,0.9528,0.9455,0.8868,0.8933,0.9389,0.9408,0.9652,1.0071,1.0608,1.0668,1.0486,1.0337,1.0161,0.9983,0.9841,0.9619,0.9368,0.9162,0.9108,0.914,0.0,0.0,0.0,0.9742,0.9612,0.945,0.9884,0.985,0.9904,1.0563,1.096,1.1311,1.1729,1.2059,1.2559,1.3355,1.3839,1.4188,1.4554,1.4736,1.4931,1.5273,1.5473,1.576,1.615,1.7015,1.7837,1.8512,1.9335,2.0157,2.1053,2.154,2.2188,2.3081,2.3091,2.3232,2.3503,2.3865,2.4217,2.4515,2.538,2.5802,2.5842,2.6275,2.6534,2.6496,2.6245,2.6091,2.6179,2.6871,2.8084,2.9571,3.0778,3.221,3.3729,3.5127,3.6354,3.738,0.0,0.0,0.0,0.0,0.0,0.0,1.0149,1.061,1.101,0.0,0.0,0.0,1.2043,1.192,1.1883,1.2024,1.1693,1.1418,1.1241,1.0366,0.977,0.9536,0.8825,0.8555,0.885,0.8597,0.8704,0.9175,0.8996,0.9229,0.9845,0.9685,0.9937,1.0511,1.0511,1.0373,1.0172,1.0411,1.0236,0.9765,0.9612,0.9359,0.9149,0.9595,0.9807,0.9927,1.0452,1.056,1.0412,1.0275,1.0161,1.0034,0.9802,0.9645,0.9499,0.9299,0.9245,0.9201,0.906,0.0,0.0,0.0,0.0,0.0,1.0014,1.0029,1.0103,1.0228,1.0722,1.1254,1.1606,1.1965,1.2409,1.2903,1.3319,1.3774,1.4304,1.4887,1.517,1.4955,1.5619,1.6073,1.5979,1.6671,1.7335,1.7964,1.8901,1.9815,2.0683,2.1748,2.2533,2.3081,2.3091,2.3232,2.3503,2.3743,2.427,2.5026,2.5461,2.6073,2.6867,2.6599,2.6695,2.7071,2.6592,2.64,2.641,2.6637,2.7378,2.8565,3.0003,3.1517,3.2949,3.4261,3.5536,3.6764,0.0,0.0,0.0,0.0,0.0,1.0164,1.047,1.0882,1.1296,0.0,0.0,0.0,1.2734,1.2955,1.3036,1.2968,1.2525,1.2168,1.1973,1.1067,1.0424,1.0189,0.9518,0.925,0.9429,0.9182,0.9254,0.9689,0.9484,0.9608,0.9992,0.9837,0.9899,1.0186,1.0161,1.0161,1.0161,1.0336,1.0297,1.0137,0.9882,0.9722,0.9632,0.974,0.9895,1.0092,1.0402,1.0424,1.0299,1.0237,1.0148,1.0021,0.9776,0.9671,0.9592,0.9366,0.9286,0.9205,0.8974,0.9285,0.9654,0.9557,0.0,0.0,1.0128,1.012,1.0162,1.0287,1.0615,1.1049,1.1589,1.1888,1.2233,1.2823,1.3111,1.3485,1.4082,1.4763,1.506,1.4759,1.5447,1.5885,1.5766,1.6422,1.7127,1.7658,1.8524,1.9548,2.0659,2.1709,2.2441,2.2818,2.2838,2.3099,2.3624,2.3754,2.4222,2.5086,2.5415,2.598,2.6708,2.6806,2.6992,2.7275,2.7037,2.6976,2.6976,2.6976,2.7424,2.8268,2.971,3.112,3.2497,3.3803,3.5123,3.6345,0.0,0.0,1.0048,0.9963,0.9962,1.0224,1.094,1.1135,1.1471,0.0,1.2381,1.2696,1.3338,1.3989,1.4344,0.0,1.3499,1.2913,1.2714,1.1695,1.1013,1.0807,1.0396,1.0108,0.9959,0.969,0.9747,1.014,0.994,0.998,1.0249,0.0,0.0,0.0,0.0,0.975,0.9737,0.9671,0.9918,1.0309,0.981,0.9927,1.0346,0.9808,0.9904,1.0324,1.0324,1.0249,1.0161,1.0161,1.0072,0.9944,0.9749,0.9684,0.9644,0.9439,0.9327,0.9241,0.908,0.9201,0.9403,0.9594,0.9772,0.0,1.0234,1.0157,1.0104,1.0465,1.0579,1.0823,1.1525,1.1705,1.2011,1.2821,1.2982,1.3224,1.3835,1.4457,1.478,1.4571,1.5027,1.5397,1.5449,1.6265,1.6971,1.7388,1.8279,1.9395,2.0774,2.1481,2.2012,2.2432,2.249,2.2909,2.3717,2.3777,2.4176,2.4956,2.5367,2.5686,2.6032,2.683,2.72,2.7274,2.7399,2.7516,2.7558,2.7558,2.782,2.8406,2.9721,3.0994,3.2173,3.3536,3.4842,3.6013,0.0,0.9832,0.9822,0.9694,1.0116,1.0529,1.0662,1.1747,1.2608,1.2815,1.3497,1.3996,1.4108,1.4192,1.4206,0.0,1.3867,1.3591,1.3346,1.2368,1.1663,1.1351,1.0444,1.0073,1.0292,1.0038,1.0068,1.0422,0.0,0.0,0.0,0.0,0.0,0.0,0.9502,0.9448,0.9393,0.9326,0.9353,0.9461,0.9613,0.9754,0.9841,0.9729,0.9741,0.984,0.984,0.9853,0.9867,0.9867,0.9827,0.9749,0.9645,0.9578,0.9582,0.9805,0.9768,0.9717,0.9899,1.0135,1.0272,0.999,1.0185,0.0,1.0322,1.0186,1.0107,1.0184,1.042,1.0643,1.0804,1.1104,1.1469,1.1959,1.2318,1.2719,1.3277,1.4008,1.4393,1.4149,1.4731,1.5162,1.5171,1.5794,1.6409,1.6979,1.8517,1.9812,2.0625,2.1073,2.1562,2.1992,2.2334,2.2761,2.3317,2.3627,2.4262,2.5158,2.5243,2.5669,2.6455,2.641,2.6668,2.7054,2.686,2.7024,2.7363,2.7363,2.7628,2.8168,2.9471,3.0625,3.1698,3.2976,3.4281,3.5454,0.9794,0.9954,0.9986,0.9838,1.0303,1.0835,1.1245,1.1986,1.2682,1.3182,1.41,1.4831,1.5206,1.4852,1.4573,1.4501,0.0,0.0,0.0,1.2704,1.2207,1.1854,1.1116,1.0703,1.0752,1.0418,1.0264,1.0311,0.0,0.0,0.0,0.0,0.0,0.9143,0.9046,0.8976,0.8949,0.8839,0.8798,0.8825,0.9207,0.9354,0.9354,0.9433,0.9446,0.9446,0.9486,0.9683,0.9989,1.0256,1.0395,1.041,1.0293,1.025,1.0254,1.0247,1.0148,1.0066,1.0095,1.0263,1.0393,1.0154,1.0353,0.0,0.0,1.0273,1.0205,1.0205,1.0331,1.0502,1.0714,1.0905,1.1193,1.1637,1.1864,1.2149,1.2538,1.3385,1.3835,1.3539,1.4007,1.4413,1.4537,1.5069,1.5896,1.7129,1.81,1.902,1.9893,2.0342,2.0781,2.1251,2.165,2.2288,2.3197,2.3408,2.4004,2.5031,2.5158,2.5508,2.6107,2.6292,2.6617,2.6944,2.7096,2.7465,2.7991,2.7991,2.8274,2.8825,2.9612,3.0586,3.1752,3.2884,3.4126,3.5308,0.9863,1.0015,1.0157,1.0096,1.0492,1.1065,1.172,1.2,1.2496,1.3495,1.4475,1.5322,1.6011,1.5496,1.5072,1.4995,1.4272,0.0,1.3234,1.2954,1.2593,1.2118,1.1681,1.129,1.0991,1.0583,1.0249,0.997,0.0,0.0,0.0,0.0,0.8891,0.869,0.8575,0.8516,0.8491,0.8354,0.8312,0.8365,0.8662,0.8828,0.8921,0.9028,0.9069,0.9108,0.9294,0.9685,1.0202,1.07,1.0978,1.1087,1.0935,1.0892,1.0873,1.0693,1.0512,1.0366,1.0293,1.034,1.0386,1.0306,1.0425,1.0525,0.0,0.0,0.0,1.0303,1.0303,1.04,1.0723,1.0791,1.0928,1.1389,1.1479,1.157,1.1836,1.2553,1.3033,1.2996,1.3302,1.3624,1.385,1.4478,1.5468,1.7025,1.7513,1.8128,1.9004,1.9521,1.999,2.0458,2.0879,2.1677,2.2884,2.3106,2.3706,2.4735,2.5031,2.5338,2.5623,2.6183,2.656,2.6773,2.7236,2.781,2.8444,2.8522,2.8948,2.9544,2.9807,3.0697,3.1907,3.2815,3.403,3.5284,1.0359,1.0025,0.9892,1.0292,1.0701,1.1014,1.1101,1.1775,1.2713,1.3955,1.4785,1.5377,1.5641,1.5528,1.5409,1.5345,1.5091,1.454,1.368,1.3325,1.2737,1.1798,1.1358,1.0956,1.0584,1.0173,0.9803,0.9475,0.9272,0.0,0.0,0.0,0.8516,0.8272,0.8258,0.8205,0.8152,0.8013,0.8033,0.8125,0.8052,0.8241,0.8558,0.8569,0.8614,0.8753,0.9343,0.9829,1.0228,1.0593,1.0739,1.0759,1.0806,1.07,1.0638,1.1085,1.095,1.0727,1.1129,1.1047,1.0786,1.0597,1.0485,1.0409,1.0332,0.0,1.0303,1.0303,0.0,1.0322,1.0361,0.0,0.0,1.0918,1.0977,1.1079,1.1426,1.1455,1.1832,1.2789,1.3157,1.3351,1.3369,1.4352,1.5224,1.5756,1.7156,1.8013,1.8144,1.8916,1.9551,1.9971,2.041,2.1027,2.175,2.2712,2.3459,2.4002,2.483,2.5338,2.5612,2.5877,2.6109,2.6276,2.6331,2.6757,2.7502,2.7917,2.8664,2.9541,2.9772,3.0695,3.1861,3.2417,3.372,3.5235,1.0855,1.0717,1.0598,1.0525,1.0817,1.1154,1.1428,1.2272,1.3336,1.4606,1.519,1.5717,1.6341,1.6033,1.5753,1.5637,1.5063,1.4458,1.3914,1.3599,1.2978,1.1985,1.1558,1.0957,1.0161,0.979,0.9436,0.9048,0.88,0.0,0.0,0.0,0.0,0.7846,0.7817,0.7773,0.7749,0.769,0.7729,0.7802,0.7749,0.8029,0.8505,0.858,0.8857,0.925,0.9809,1.0243,1.063,1.1102,1.1382,1.1514,1.156,1.1497,1.144,1.1509,1.1325,1.1114,1.1199,1.1052,1.0793,1.064,1.0495,1.038,1.0322,1.0303,1.0303,1.0303,0.0,0.0,0.0,0.0,0.0,0.0,1.0547,1.0673,1.1049,1.0991,1.1211,1.205,1.2206,1.245,1.2909,1.3745,1.4535,1.5209,1.6017,1.6836,1.7607,1.8213,1.874,1.9124,1.9834,2.0506,2.1183,2.202,2.2848,2.368,2.4294,2.4872,2.538,2.5601,2.5979,2.6437,2.6437,2.6925,2.777,2.8388,2.9065,2.9748,3.0325,3.1145,3.2042,3.271,3.3811,3.5048,1.166,1.1401,1.1134,1.0843,1.0983,1.1328,1.1816,1.2702,1.3701,1.4764,1.5281,1.5853,1.659,1.626,1.5917,1.5814,1.5149,1.4543,1.4109,1.38,1.3166,1.2135,1.1697,1.1,0.9985,0.9583,0.9157,0.8662,0.8396,0.0,0.0,0.0,0.0,0.0,0.7407,0.7407,0.7421,0.7421,0.748,0.7583,0.7713,0.8182,0.8816,0.8826,0.9221,0.9787,1.0137,1.0559,1.0981,1.1487,1.18,1.1998,1.2016,1.2016,1.1943,1.1708,1.1496,1.1309,1.1149,1.0957,1.0784,1.0678,1.0553,1.0448,1.039,1.0351,1.0332,1.0332,1.0332,0.0,0.0,0.0,1.038,1.0332,0.0,1.043,1.0693,1.0611,1.0761,1.1402,1.1398,1.1614,1.2303,1.2985,1.3664,1.4431,1.5052,1.583,1.6797,1.748,1.8037,1.8422,1.9297,2.0026,2.0602,2.142,2.2292,2.3266,2.3846,2.4514,2.52,2.5475,2.5979,2.6603,2.6603,2.7096,2.7942,2.8769,2.9386,2.9901,3.0847,3.1556,3.2187,3.2996,3.3959,3.5036,1.2899,1.1905,1.1062,1.1256,1.129,1.1467,1.2005,1.2828,1.3565,1.407,1.492,1.5593,1.5807,1.5878,1.5877,1.5821,1.5649,1.521,1.4354,1.3927,1.3213,1.2157,1.1653,1.0986,1.0111,0.9645,0.9043,0.8319,0.8042,0.7782,0.0,0.0,0.0,0.0,0.711,0.7145,0.7211,0.7211,0.7324,0.7548,0.799,0.8735,0.9533,0.9278,0.9564,1.0083,1.0172,1.0636,1.122,1.1418,1.1608,1.1719,1.1782,1.1775,1.1682,1.1552,1.1354,1.1185,1.112,1.0957,1.0803,1.0803,1.0697,1.0602,1.0582,1.0486,1.0399,1.0399,1.0399,1.0399,1.0399,1.0495,0.0,0.0,0.0,0.0,0.0,1.0196,1.0394,1.1126,1.1031,1.1072,1.1504,1.2127,1.2723,1.314,1.454,1.543,1.5478,1.6699,1.7598,1.8018,1.8857,1.9512,1.9932,2.1055,2.197,2.2655,2.3515,2.4367,2.52,2.5475,2.5979,2.6603,2.6603,2.6974,2.7586,2.8661,2.9402,2.9945,3.1177,3.1817,3.2095,3.3001,3.4098,3.5282,1.373,1.3325,1.2746,1.1801,1.167,1.1803,1.2061,1.2753,1.3556,1.4381,1.4973,1.5529,1.6123,1.6344,1.6236,1.5769,1.5646,1.5247,1.4424,1.4026,1.3364,1.234,1.1856,1.112,1.0114,0.9728,0.9172,0.8435,0.8119,0.773,0.0,0.0,0.0,0.0,0.6893,0.6908,0.6954,0.7071,0.7345,0.7775,0.8696,0.9286,0.9601,0.9491,0.9815,1.0315,1.0428,1.0689,1.105,1.1335,1.1496,1.1652,1.2112,1.2213,1.2194,1.2314,1.2239,1.2097,1.1943,1.1778,1.1603,1.1276,1.1125,1.0984,1.0672,1.0563,1.0534,1.0534,1.0534,1.0534,1.0534,1.0563,0.0,0.0,0.0,0.0,0.0,1.0215,1.0184,1.0431,1.0751,1.1019,1.1167,1.1733,1.2316,1.2809,1.3646,1.4521,1.5361,1.584,1.6543,1.7568,1.8144,1.8779,1.9492,2.0466,2.1327,2.215,2.3154,2.3999,2.4784,2.545,2.6104,2.6603,2.6869,2.7196,2.7603,2.8998,2.973,3.0121,3.1395,3.2113,3.2586,3.365,3.4304,3.4831,1.4417,1.4375,1.3968,1.2484,1.2091,1.203,1.2212,1.2822,1.3538,1.4249,1.4786,1.5336,1.5964,1.6185,1.6109,1.5737,1.5627,1.5311,1.4724,1.4209,1.3561,1.2714,1.2075,1.1251,1.0242,0.9855,0.9318,0.86,0.829,0.7865,0.0,0.0,0.0,0.0,0.6727,0.6757,0.682,0.714,0.747,0.7874,0.9006,0.9589,0.9789,0.9826,1.0086,1.0418,1.0553,1.0725,1.0935,1.1241,1.1384,1.1572,1.2194,1.2329,1.2329,1.2634,1.2616,1.2489,1.235,1.2233,1.2097,1.1799,1.1696,1.1583,1.1267,1.1175,1.1135,1.1135,1.1004,1.0873,1.0873,1.079,0.0,0.0,0.0,0.0,0.0,1.0273,1.0157,1.0108,1.0433,1.0702,1.0842,1.1259,1.1761,1.2407,1.2963,1.3769,1.4864,1.5215,1.5947,1.7119,1.7705,1.8418,1.9277,2.0061,2.0994,2.2038,2.2956,2.3889,2.4766,2.5541,2.6218,2.6839,2.7103,2.7534,2.8146,2.9404,3.0121,3.0616,3.1815,3.2419,3.2847,3.3978,3.4715,3.5232,1.5006,1.4949,1.4571,1.3257,1.2535,1.2219,1.2478,1.3015,1.3462,1.3704,1.4404,1.5031,1.5408,1.5495,1.5582,1.5694,1.5575,1.5398,1.5178,1.443,1.3754,1.3234,1.2301,1.1388,1.0463,1.0033,0.9499,0.8828,0.8542,0.8152,0.0,0.0,0.0,0.0,0.6646,0.6708,0.6873,0.7386,0.7675,0.787,0.8972,0.9706,1.0118,1.0244,1.0332,1.0399,1.0544,1.0717,1.0926,1.1118,1.13,1.1502,1.2062,1.2155,1.2143,1.2552,1.2573,1.2445,1.2391,1.2348,1.237,1.2339,1.2339,1.2328,1.2307,1.219,1.2104,1.2104,1.1757,1.145,1.1399,1.1151,1.0912,0.0,0.0,0.0,1.0448,1.0351,1.0283,1.0137,1.0069,1.0172,1.0541,1.0711,1.113,1.1922,1.2526,1.3213,1.4036,1.4864,1.5722,1.6609,1.7467,1.8359,1.9255,1.9881,2.0837,2.2164,2.2915,2.3909,2.5193,2.5708,2.6426,2.7185,2.7267,2.7924,2.9082,2.9827,3.0556,3.1333,3.2327,3.2748,3.2922,3.4035,3.5244,3.6405,1.5264,1.4934,1.4443,1.3671,1.3014,1.2673,1.2845,1.2926,1.3275,1.4176,1.4606,1.5117,1.5902,1.6061,1.5989,1.5718,1.568,1.5371,1.4722,1.425,1.3816,1.338,1.2406,1.1619,1.1083,1.037,0.9715,0.9103,0.883,0.8478,0.8033,0.0,0.0,0.0,0.7236,0.727,0.7415,0.7706,0.8176,0.8802,0.9554,0.9944,1.0118,1.0244,1.0322,1.0341,1.0428,1.0553,1.0717,1.0907,1.1271,1.1737,1.2306,1.2722,1.3031,1.3396,1.3464,1.3407,1.3292,1.3269,1.3186,1.2834,1.2762,1.2668,1.238,1.2276,1.2243,1.2243,1.214,1.1954,1.1613,1.1478,1.1302,0.0,0.0,0.0,1.0582,1.0525,1.0505,1.0486,1.0467,1.0381,1.0232,1.0579,1.1047,1.1667,1.2125,1.2749,1.3623,1.4143,1.4825,1.5723,1.657,1.7537,1.8562,1.9493,2.0447,2.1411,2.3126,2.419,2.4741,2.6188,2.6981,2.7226,2.7886,2.8557,2.9299,3.0214,3.1031,3.1783,3.2457,3.3308,3.4202,3.4535,3.537,3.6405,1.5496,1.4862,1.4198,1.3589,1.3256,1.3022,1.2935,1.3002,1.3365,1.4171,1.4664,1.5183,1.5854,1.601,1.604,1.5927,1.5923,1.5682,1.5104,1.4595,1.4092,1.3654,1.2665,1.1944,1.158,1.0751,1.0162,0.9818,0.9283,0.8833,0.8451,0.0,0.0,0.0,0.746,0.7442,0.7539,0.7975,0.8599,0.9305,0.973,0.998,0.0,1.0244,1.0303,1.0303,1.0332,1.0428,1.0583,1.1058,1.1413,1.1797,1.2648,1.3051,1.328,1.3604,1.3668,1.3597,1.3467,1.3467,1.3453,1.3173,1.3158,1.3142,1.2917,1.2877,1.2877,1.2877,1.2722,1.2472,1.2213,1.2027,1.1747,1.1281,1.0975,1.0784,1.0697,1.0659,1.063,1.063,1.063,1.0572,1.038,1.0528,1.0919,1.1589,1.1819,1.2393,1.3447,1.388,1.4504,1.5381,1.6331,1.729,1.8293,1.9555,2.055,2.1382,2.3358,2.455,2.5083,2.6513,2.7389,2.7805,2.8299,2.9064,3.0007,3.0642,3.143,3.2288,3.2728,3.3614,3.468,3.468,3.5416,3.6405,1.5521,1.474,1.391,1.3334,1.335,1.3343,1.3018,1.3259,1.3618,1.4037,1.4665,1.5176,1.5501,1.5669,1.5859,1.6113,1.6144,1.6035,1.5792,1.5166,1.454,1.4027,1.3065,1.2359,1.2012,1.1157,1.0664,1.0596,0.9792,0.9233,0.0,0.0,0.0,0.7742,0.7597,0.7533,0.7585,0.8269,0.8919,0.9475,0.9693,0.9862,1.0019,1.0205,1.0322,1.0381,1.0381,1.044,1.0606,1.1297,1.1613,1.1892,1.2898,1.317,1.3172,1.3449,1.3467,1.3348,1.3242,1.329,1.3386,1.3396,1.3491,1.3586,1.3597,1.3597,1.3597,1.3597,1.3276,1.2967,1.2915,1.2565,1.2152,1.1684,1.122,1.0913,1.0852,1.0793,1.0764,1.0764,1.0764,0.0,1.0764,1.0553,1.0795,1.1666,1.166,1.2155,1.3385,1.3851,1.4445,1.5225,1.6394,1.737,1.8158,1.9725,2.0889,2.1652,2.3634,2.4971,2.5743,2.6846,2.7765,2.851,2.859,2.9476,3.086,3.1055,3.1771,3.2766,3.3025,3.3759,3.468,3.468,3.5416,3.6405,1.4948,1.445,1.3955,1.3515,1.3655,1.3828,1.387,1.3877,1.4037,1.4427,1.4686,1.4926,1.5153,1.5401,1.5614,1.5782,1.5848,1.5826,1.5715,1.5376,1.5016,1.4574,1.3694,1.2992,1.2499,1.1682,1.1023,1.0522,1.0134,0.9703,0.0,0.0,0.8668,0.8505,0.8302,0.8262,0.8342,0.8748,0.9044,0.9286,0.9594,0.9832,1.0,1.0108,1.0419,1.0801,1.0801,1.0882,1.0994,1.1135,1.1749,1.2471,1.2645,1.2929,1.3189,1.3236,1.3266,1.3242,1.3218,1.3218,1.3266,1.3362,1.342,1.3467,1.3563,1.3597,1.3597,1.3597,1.3524,1.3359,1.2967,1.2565,1.2152,1.1684,1.1559,1.1422,1.1096,1.109,1.1099,1.1099,1.1099,1.1099,1.1099,1.0784,1.0925,1.1797,1.1747,1.2115,1.312,1.3772,1.4172,1.4328,1.6078,1.7135,1.7475,1.9476,2.0793,2.1409,2.3829,2.5233,2.5781,2.7494,2.8351,2.851,2.904,2.9945,3.1055,3.1276,3.201,3.3025,3.3068,3.3759,3.468,3.468,3.5416,3.6405,1.455,1.4261,1.3925,1.3568,1.3834,1.4096,1.4045,1.4305,1.4485,1.4593,1.4754,1.4937,1.5187,1.5379,1.5603,1.5824,1.5891,1.5859,1.5748,1.557,1.5266,1.4823,1.4235,1.3704,1.322,1.236,1.173,1.1338,1.0782,1.0191,0.9597,0.9336,0.9027,0.8704,0.8488,0.8414,0.8484,0.896,0.9295,0.9553,1.0038,1.033,1.0529,1.0624,1.0832,1.1068,1.1142,1.132,1.1592,1.1735,1.2111,1.2533,1.2832,1.3033,1.3194,1.3166,1.3152,1.3128,1.3055,1.3104,1.3152,1.3224,1.3276,1.3338,1.3467,1.3491,1.3515,1.3597,1.3597,1.3524,1.3297,1.2917,1.2556,1.2402,1.2226,1.2077,1.1998,1.1831,1.1737,1.1806,1.16,1.1459,1.1459,1.1193,1.1291,1.2001,1.191,1.2178,1.306,1.3811,1.4221,1.4257,1.6148,1.7284,1.7564,1.9792,2.1199,2.1814,2.4247,2.5735,2.6382,2.7809,2.8657,2.8961,2.9263,3.0132,3.1326,3.1985,3.2634,3.3124,3.3124,3.3759,3.468,3.468,3.5416,3.6405,1.4345,1.4143,1.3938,1.3661,1.405,1.4358,1.4193,1.462,1.4892,1.4673,1.4811,1.5028,1.5233,1.5435,1.5647,1.5935,1.5979,1.5979,1.5881,1.5736,1.5457,1.504,1.4674,1.428,1.3881,1.3049,1.247,1.2161,1.1459,1.0739,1.0046,0.9766,0.9346,0.8802,0.8651,0.8574,0.8611,0.9107,0.9505,0.987,1.0397,1.0754,1.0964,1.1107,1.123,1.135,1.1462,1.1752,1.2152,1.2344,1.245,1.2589,1.2998,1.3132,1.3132,1.3075,1.3061,1.3027,1.2929,1.2978,1.3061,1.3085,1.3128,1.3204,1.3338,1.3386,1.342,1.3539,1.3586,1.3597,1.3597,1.332,1.3086,1.3106,1.2912,1.2776,1.2817,1.2635,1.2523,1.2613,1.2329,1.2061,1.1923,1.185,1.1957,1.232,1.2115,1.2315,1.3122,1.3939,1.439,1.4453,1.6355,1.7523,1.7812,2.0153,2.1653,2.2228,2.4631,2.6168,2.6923,2.8083,2.8934,2.9419,2.947,3.0211,3.1474,3.2616,3.3124,3.3124,3.3124,3.3759,3.468,3.468,3.5416,3.6405,1.4324,1.4184,1.4055,1.3979,1.4451,1.4824,1.4732,1.504,1.5154,1.4822,1.496,1.5085,1.5108,1.5458,1.5726,1.5814,1.5935,1.6044,1.6156,1.5925,1.5681,1.5446,1.4949,1.4512,1.4176,1.3606,1.3014,1.2381,1.1993,1.1398,1.0624,1.0221,0.9721,0.9143,0.9143,0.912,0.915,0.9312,0.958,0.9928,1.0211,1.053,1.083,1.0973,1.1309,1.1742,1.1766,1.2063,1.2463,1.2496,1.2643,1.2871,1.291,1.292,1.292,1.2929,1.2929,1.2929,1.2905,1.2905,1.2954,1.3061,1.3099,1.3138,1.3194,1.3314,1.3396,1.342,1.3515,1.3597,1.3597,1.365,1.3588,1.3169,1.3365,1.3456,1.303,1.32,1.3392,1.3392,1.3472,1.3266,1.268,1.2932,1.304,1.2837,1.2425,1.2527,1.3321,1.4124,1.4556,1.4582,1.6639,1.7781,1.7812,2.0319,2.1779,2.2228,2.4839,2.6344,2.6961,2.8395,2.9157,2.9419,2.965,3.0394,3.1474,3.2616,3.3124,3.3124,3.3124,3.3759,3.468,3.468,3.5416,3.6405,1.4508,1.4508,1.4463,1.4271,1.4449,1.4697,1.4937,1.5187,1.5323,1.5233,1.5289,1.5379,1.5458,1.5637,1.5848,1.6013,1.6154,1.6262,1.6318,1.6231,1.6022,1.5691,1.5356,1.4971,1.4512,1.3999,1.348,1.2886,1.2536,1.1921,1.1048,1.0658,0.9971,0.9082,0.9167,0.9144,0.9121,0.9518,0.9906,1.03,1.072,1.1136,1.148,1.1528,1.1715,1.1974,1.208,1.2207,1.2397,1.248,1.2578,1.2676,1.2749,1.2783,1.2808,1.2881,1.2905,1.2905,1.2905,1.2905,1.2905,1.2964,1.2978,1.3002,1.3113,1.3214,1.329,1.3386,1.3563,1.3716,1.3716,1.3821,1.3875,1.379,1.3952,1.4125,1.4138,1.4087,1.4075,1.4199,1.4006,1.3769,1.35,1.3478,1.3512,1.3561,1.3129,1.305,1.3508,1.4277,1.4724,1.4724,1.6727,1.7925,1.8221,2.0698,2.2183,2.2696,2.5343,2.6824,2.7322,2.8653,2.9392,2.9688,3.0417,3.0997,3.1474,3.2616,3.3124,3.3124,3.3124,3.3759,3.468,3.468,3.5416,3.6405,1.4569,1.4627,1.4627,1.4419,1.4477,1.4639,1.496,1.5278,1.5468,1.5513,1.5558,1.5614,1.5693,1.5792,1.5947,1.6178,1.6318,1.6414,1.6436,1.6414,1.6275,1.5925,1.5669,1.5334,1.4891,1.4407,1.3928,1.3443,1.3045,1.244,1.1639,1.1083,1.0334,0.9429,0.9429,0.9381,0.9324,0.9757,1.0155,1.054,1.1031,1.1452,1.1794,1.1877,1.1977,1.2101,1.22,1.2249,1.2249,1.2348,1.2382,1.2397,1.2578,1.2686,1.2725,1.2808,1.2856,1.2905,1.2905,1.2905,1.2905,1.2905,1.2929,1.2978,1.3085,1.3176,1.3314,1.3491,1.3668,1.3821,1.3844,1.401,1.415,1.4233,1.4408,1.464,1.4915,1.4832,1.4799,1.4971,1.4728,1.4456,1.4281,1.4243,1.4196,1.4123,1.3861,1.3704,1.3647,1.4465,1.4908,1.4924,1.6932,1.8265,1.8792,2.1162,2.2743,2.3605,2.5815,2.7234,2.7903,2.9009,2.9699,3.008,3.0997,3.1486,3.17,3.2679,3.3124,3.3124,3.3124,3.3759,3.468,3.468,3.5416,3.6405,1.4396,1.4396,1.4396,1.4396,1.4627,1.4811,1.4811,1.5255,1.5591,1.5591,1.5714,1.577,1.5715,1.5869,1.6044,1.62,1.6318,1.6436,1.65,1.6436,1.634,1.62,1.5802,1.5491,1.5312,1.4834,1.4395,1.3997,1.3467,1.2963,1.2471,1.1519,1.0888,1.048,1.0146,0.9984,0.9984,0.9991,1.0205,1.0539,1.0947,1.1251,1.1519,1.1803,1.1977,1.2101,1.2101,1.2101,1.2101,1.2101,1.2101,1.215,1.2431,1.2603,1.27,1.27,1.2808,1.2905,1.2905,1.2905,1.2905,1.2905,1.3002,1.3109,1.3109,1.3248,1.3467,1.3739,1.3797,1.3844,1.3962,1.4221,1.4396,1.4396,1.4686,1.4937,1.5085,1.5322,1.5536,1.5659,1.5736,1.5542,1.4955,1.5372,1.5313,1.4474,1.4564,1.4419,1.3844,1.4688,1.5206,1.52,1.7356,1.8814,1.948,2.1607,2.3421,2.4885,2.6234,2.7516,2.8724,2.9451,3.0093,3.0633,3.116,3.17,3.2252,3.283,3.3124,3.3124,3.3124,3.3759,3.468,3.468,3.5416,3.6405,1.4396,1.4396,1.4396,1.4396,1.4731,1.5006,1.5006,1.5424,1.5736,1.5736,1.577,1.5792,1.577,1.5991,1.6144,1.62,1.6362,1.6479,1.65,1.6479,1.6436,1.634,1.6044,1.5746,1.5513,1.5028,1.4628,1.4267,1.3729,1.3035,1.22,1.1653,1.1099,1.0624,1.0437,1.029,1.0213,1.0213,1.036,1.0667,1.0871,1.1124,1.1393,1.1653,1.1852,1.1977,1.2076,1.2101,1.2101,1.2101,1.2101,1.2101,1.22,1.2323,1.2455,1.2652,1.2725,1.2783,1.2881,1.2964,1.3036,1.3036,1.3113,1.3156,1.3156,1.3348,1.361,1.3868,1.408,1.421,1.4267,1.4488,1.4673,1.4673,1.4789,1.4983,1.521,1.539,1.5558,1.576,1.5792,1.572,1.5542,1.5642,1.5652,1.551,1.5509,1.5271,1.4731,1.5099,1.5638,1.6284,1.7816,1.9192,2.0325,2.2055,2.3675,2.5254,2.6651,2.805,2.9451,2.9704,3.0093,3.0645,3.1173,3.17,3.2252,3.283,3.3124,3.3124,3.3124,3.3759,3.468,3.468,3.5416,3.6405,1.4396,1.4396,1.4466,1.4628,1.4903,1.5153,1.5334,1.5603,1.5792,1.5792,1.5792,1.5792,1.5792,1.6035,1.62,1.62,1.6371,1.65,1.65,1.65,1.6479,1.6436,1.6262,1.601,1.5768,1.5345,1.4915,1.4512,1.38,1.3035,1.2249,1.1852,1.1393,1.0922,1.0667,1.0496,1.0368,1.0316,1.0393,1.0565,1.0794,1.1023,1.1251,1.1578,1.1778,1.1927,1.2051,1.2101,1.2101,1.2101,1.2101,1.2101,1.2101,1.215,1.2274,1.2554,1.2652,1.2735,1.2856,1.3002,1.3109,1.3109,1.3224,1.3386,1.3491,1.3658,1.3905,1.4104,1.4314,1.45,1.457,1.4777,1.4926,1.4983,1.5074,1.5187,1.5413,1.5525,1.5637,1.5792,1.6027,1.617,1.617,1.6305,1.6442,1.6527,1.6418,1.6325,1.6224,1.6186,1.6472,1.7078,1.8624,2.0003,2.1196,2.2645,2.4306,2.6142,2.7631,2.8861,2.9792,2.9792,3.0193,3.0922,3.1248,3.1825,3.2566,3.293,3.3124,3.3106,3.3307,3.3935,3.4705,3.4906,3.5592,3.6452,1.4396,1.4419,1.4581,1.5017,1.5131,1.5289,1.5726,1.5792,1.5792,1.5792,1.5792,1.5792,1.5792,1.6035,1.62,1.62,1.6371,1.65,1.65,1.65,1.65,1.65,1.6436,1.6284,1.6022,1.5691,1.5244,1.4708,1.3718,1.3011,1.2544,1.2126,1.1728,1.1326,1.0922,1.0675,1.0522,1.0393,1.0342,1.0368,1.0769,1.0998,1.115,1.1544,1.1778,1.1927,1.2051,1.2101,1.2101,1.2101,1.2101,1.2101,1.2101,1.2101,1.215,1.2397,1.2578,1.2725,1.2856,1.2978,1.3099,1.3123,1.3368,1.3716,1.3962,1.415,1.4269,1.4396,1.4546,1.4708,1.4892,1.5028,1.5176,1.5289,1.5413,1.5547,1.5741,1.5741,1.5797,1.59,1.6457,1.6875,1.6875,1.7325,1.7581,1.752,1.7347,1.7531,1.8223,1.7918,1.7734,1.7768,1.9691,2.1173,2.206,2.3418,2.5218,2.742,2.9048,2.9792,2.9792,2.9829,3.0419,3.1386,3.1465,3.2106,3.3124,3.3154,3.3154,3.3217,3.3727,3.428,3.4788,3.5341,3.594,3.6499,1.4396,1.4697,1.4971,1.5085,1.5401,1.5681,1.5792,1.5792,1.5792,1.5792,1.5792,1.5792,1.5792,1.6035,1.62,1.62,1.6371,1.65,1.65,1.65,1.65,1.65,1.6436,1.6318,1.6166,1.5881,1.5379,1.4708,1.4093,1.3549,1.3025,1.2559,1.215,1.1753,1.1352,1.1074,1.0947,1.082,1.0769,1.0769,1.0972,1.1124,1.1301,1.1603,1.1778,1.1927,1.2175,1.2175,1.2126,1.2224,1.2175,1.2101,1.2101,1.2101,1.2126,1.2298,1.2431,1.2578,1.27,1.2958,1.3204,1.33,1.3705,1.4106,1.4267,1.4454,1.4628,1.4754,1.4971,1.5154,1.5187,1.5311,1.5424,1.5446,1.5468,1.5677,1.6159,1.623,1.6443,1.6967,1.7254,1.7423,1.7423,1.7629,1.7995,1.858,1.8574,1.8881,1.9666,1.9948,1.9861,1.9381,2.0481,2.1615,2.2737,2.4316,2.6166,2.8387,2.935,2.9792,2.9804,3.0231,3.0771,3.1411,3.2057,3.271,3.3356,3.3471,3.3556,3.362,3.4193,3.4767,3.5328,3.5889,3.6437,3.6968,1.4396,1.4789,1.5108,1.5108,1.5491,1.5792,1.5792,1.5792,1.5792,1.5792,1.5792,1.5792,1.5792,1.6035,1.62,1.62,1.6371,1.65,1.65,1.65,1.65,1.65,1.6436,1.634,1.62,1.5925,1.5424,1.4708,1.4231,1.3763,1.329,1.2861,1.248,1.2076,1.1728,1.1477,1.1267,1.1074,1.1023,1.1099,1.115,1.1267,1.1427,1.1703,1.1877,1.2026,1.2224,1.2298,1.2274,1.2298,1.2249,1.2175,1.2126,1.2101,1.2101,1.2175,1.2357,1.2529,1.2652,1.2949,1.329,1.3671,1.4035,1.4339,1.457,1.4766,1.4926,1.5062,1.53,1.5492,1.5525,1.5592,1.5647,1.5714,1.5872,1.6134,1.6454,1.6705,1.6979,1.7351,1.78,1.8166,1.8448,1.8807,1.9325,1.9988,1.9995,2.0177,2.073,2.1223,2.1271,2.0733,2.1617,2.2591,2.3567,2.5431,2.7164,2.8724,2.9439,2.9792,2.9817,3.0369,3.0937,3.1627,3.232,3.2962,3.3556,3.3768,3.3894,3.3985,3.4938,3.5425,3.5679,3.6547,3.6944,3.7155,1.4396,1.4789,1.5108,1.5108,1.5491,1.5792,1.5792,1.5792,1.5792,1.5792,1.5792,1.5814,1.5836,1.6047,1.62,1.6244,1.6392,1.65,1.65,1.65,1.6479,1.6479,1.6414,1.6318,1.6166,1.5903,1.5435,1.4766,1.4314,1.3858,1.3443,1.3104,1.2749,1.2382,1.2076,1.1828,1.1569,1.1326,1.1267,1.1352,1.1377,1.1469,1.1628,1.1877,1.2051,1.2175,1.2298,1.2431,1.248,1.2397,1.2323,1.2274,1.2175,1.2126,1.2101,1.2101,1.2274,1.2505,1.2627,1.2949,1.3409,1.4035,1.435,1.4558,1.4869,1.5074,1.5255,1.5345,1.5582,1.5804,1.5836,1.5931,1.6023,1.6144,1.6481,1.6774,1.6846,1.7255,1.7592,1.7773,1.8397,1.9089,1.9695,2.0298,2.0864,2.1396,2.1333,2.1374,2.1699,2.2157,2.2347,2.2226,2.2961,2.382,2.4775,2.67,2.8077,2.8849,2.9489,2.9792,2.9817,3.0484,3.1145,3.1856,3.2574,3.3248,3.3839,3.4118,3.4243,3.4402,3.5708,3.6079,3.6072,3.7228,3.7492,3.7294,1.4396,1.4789,1.5108,1.5108,1.5491,1.5792,1.5792,1.5792,1.5792,1.5792,1.5792,1.5859,1.6025,1.6091,1.6178,1.6362,1.6457,1.65,1.65,1.6457,1.6414,1.6414,1.6297,1.6166,1.6044,1.5714,1.5379,1.504,1.4685,1.4244,1.3716,1.3348,1.3021,1.2774,1.2406,1.215,1.2002,1.1852,1.1728,1.1653,1.1753,1.1902,1.2026,1.2175,1.2323,1.2455,1.2578,1.2578,1.2505,1.2603,1.248,1.2298,1.2274,1.22,1.2101,1.2101,1.22,1.2357,1.2505,1.3021,1.3634,1.4082,1.4513,1.4869,1.504,1.5379,1.5703,1.5726,1.5925,1.6134,1.6134,1.6502,1.6831,1.6853,1.7178,1.7593,1.8055,1.81,1.8461,1.9475,1.9805,2.0222,2.0955,2.1206,2.1509,2.1927,2.1965,2.2293,2.3119,2.3254,2.3688,2.456,2.4292,2.5048,2.6968,2.8027,2.8912,2.9628,2.9754,2.9792,2.9829,3.1073,3.1688,3.1868,3.3439,3.4194,3.4314,3.4784,3.4949,3.5068,3.6236,3.6688,3.679,3.7984,3.8272,3.8031,1.4326,1.4558,1.4811,1.5062,1.5491,1.5792,1.5792,1.5792,1.5792,1.5792,1.5792,1.5848,1.5937,1.6113,1.6253,1.634,1.6436,1.6479,1.6457,1.6414,1.6383,1.6297,1.6154,1.6001,1.5836,1.5547,1.53,1.5108,1.4754,1.4407,1.4022,1.361,1.3262,1.2944,1.2725,1.2505,1.2308,1.2175,1.2126,1.2126,1.2126,1.22,1.2323,1.2382,1.2505,1.2627,1.2676,1.271,1.27,1.27,1.2578,1.2406,1.2323,1.215,1.2002,1.2002,1.2175,1.2455,1.2691,1.319,1.3716,1.4186,1.4617,1.4971,1.5244,1.5558,1.5886,1.6265,1.6551,1.6829,1.7113,1.7373,1.7546,1.7546,1.7884,1.8215,1.846,1.8946,1.9468,2.0049,2.0505,2.1023,2.1666,2.1847,2.2255,2.3072,2.3105,2.3405,2.4055,2.4332,2.4649,2.5087,2.5422,2.6273,2.7656,2.835,2.9074,2.9792,2.9792,2.9792,2.9817,3.0846,3.1565,3.2058,3.3383,3.4219,3.466,3.5195,3.544,3.5561,3.6997,3.7458,3.7466,3.8593,3.88,3.8549,1.4226,1.4303,1.4558,1.5017,1.5491,1.5792,1.5792,1.5792,1.5836,1.5947,1.5957,1.5957,1.5957,1.6188,1.6362,1.6362,1.6436,1.6457,1.6362,1.6362,1.6275,1.61,1.5957,1.5802,1.5671,1.5425,1.5233,1.5108,1.48,1.45,1.4246,1.3823,1.3478,1.3128,1.3007,1.2837,1.2618,1.2505,1.2505,1.2578,1.2495,1.252,1.2627,1.2642,1.274,1.2813,1.2798,1.2856,1.2929,1.2774,1.2627,1.248,1.2382,1.215,1.1902,1.1902,1.215,1.2505,1.2861,1.3262,1.3681,1.4257,1.4674,1.5074,1.5621,1.5905,1.6274,1.6933,1.7263,1.7561,1.7962,1.8136,1.8223,1.8223,1.8672,1.9041,1.9041,1.9826,2.0465,2.0616,2.1151,2.1707,2.2284,2.2535,2.3062,2.3929,2.4117,2.4367,2.4821,2.5166,2.5434,2.5605,2.6508,2.7298,2.7977,2.8624,2.925,2.9792,2.9792,2.9792,2.9843,3.0619,3.1363,3.2153,3.3285,3.4187,3.4962,3.5562,3.5885,3.6198,3.7648,3.8144,3.8209,3.9131,3.9234,3.8966,1.4,1.4069,1.4558,1.5017,1.5491,1.5792,1.5792,1.5792,1.5969,1.6392,1.6457,1.6457,1.6457,1.6479,1.65,1.65,1.65,1.6414,1.6244,1.6222,1.61,1.5836,1.5647,1.5536,1.5513,1.5368,1.5233,1.5108,1.488,1.4661,1.4373,1.3975,1.3692,1.3549,1.329,1.3108,1.2958,1.2958,1.292,1.2881,1.2944,1.2958,1.2983,1.3098,1.3146,1.3156,1.3089,1.3085,1.3061,1.2929,1.27,1.2505,1.248,1.2224,1.1902,1.1902,1.2002,1.2249,1.2774,1.3152,1.3563,1.4233,1.4743,1.5326,1.6231,1.6685,1.7097,1.7768,1.8034,1.813,1.8168,1.8594,1.8945,1.8945,1.9732,2.0376,2.0376,2.0748,2.1247,2.1886,2.2014,2.2309,2.2965,2.3521,2.3904,2.3991,2.4469,2.4963,2.5511,2.554,2.6042,2.7095,2.7503,2.8002,2.8612,2.9376,2.9754,2.9792,2.9792,2.9792,2.9843,3.0763,3.1509,3.2193,3.3541,3.462,3.5399,3.5858,3.6522,3.7248,3.7952,3.8546,3.9069,3.9717,3.9645,3.9247,1.5473,1.4832,1.4558,1.5017,1.5244,1.5446,1.577,1.5792,1.5969,1.6436,1.65,1.65,1.65,1.65,1.65,1.65,1.65,1.6414,1.6222,1.62,1.6069,1.576,1.5503,1.5368,1.5368,1.5255,1.5153,1.5108,1.4949,1.4766,1.4593,1.4314,1.4057,1.3844,1.3644,1.3501,1.3382,1.3382,1.3368,1.3344,1.3358,1.3382,1.3382,1.3348,1.3314,1.3314,1.3204,1.3138,1.3085,1.3036,1.2856,1.2603,1.2529,1.2274,1.2002,1.1927,1.2099,1.2468,1.3086,1.3561,1.3986,1.4545,1.5378,1.6192,1.6788,1.723,1.7698,1.835,1.8609,1.8782,1.9133,1.9371,1.9623,1.9987,2.0374,2.0736,2.1074,2.1556,2.1939,2.221,2.2535,2.296,2.3584,2.3866,2.428,2.4933,2.5184,2.5548,2.6135,2.6487,2.6992,2.777,2.8249,2.86,2.8812,2.9465,2.9792,2.9792,2.9792,2.9792,2.983,3.0445,3.1215,3.2167,3.3252,3.4286,3.529,3.5992,3.667,3.7399,3.8295,3.8992,3.9606,4.0062,4.0023,3.9703,1.6345,1.5802,1.5216,1.4924,1.4994,1.5266,1.5726,1.5792,1.5969,1.6436,1.65,1.65,1.65,1.65,1.6638,1.6989,1.7027,1.6863,1.648,1.6176,1.5915,1.5637,1.5368,1.5233,1.5233,1.5165,1.5108,1.5165,1.4983,1.4869,1.4811,1.4569,1.4361,1.4185,1.4057,1.3928,1.3847,1.3847,1.3847,1.3847,1.3847,1.3847,1.3834,1.3705,1.3647,1.3624,1.3409,1.3286,1.3244,1.3123,1.2954,1.2725,1.2554,1.2283,1.2054,1.2072,1.2324,1.2716,1.3429,1.4075,1.4635,1.5071,1.5889,1.6758,1.7332,1.7751,1.824,1.8921,1.9158,1.9409,1.9974,2.0075,2.0289,2.0867,2.1094,2.1345,2.1694,2.2221,2.2543,2.2543,2.3032,2.3565,2.3966,2.4305,2.4808,2.5536,2.5774,2.6147,2.6725,2.7115,2.7607,2.8348,2.87,2.8976,2.9202,2.9591,2.9792,2.9792,2.9792,2.9792,2.9792,3.0228,3.1022,3.2154,3.2922,3.3993,3.5249,3.5898,3.674,3.7661,3.8433,3.927,4.0013,4.0347,4.027,3.9966,1.6259,1.6885,1.6693,1.4757,1.48,1.5266,1.5726,1.5792,1.5969,1.6436,1.65,1.65,1.65,1.6513,1.6977,1.8116,1.8216,1.7884,1.7071,1.6194,1.5649,1.5513,1.5244,1.5108,1.5108,1.5108,1.5165,1.5312,1.5028,1.4983,1.5108,1.4754,1.4604,1.4604,1.4477,1.4407,1.4407,1.4407,1.4407,1.4407,1.4407,1.4396,1.4396,1.4246,1.4199,1.4152,1.3752,1.3597,1.3549,1.322,1.3002,1.2856,1.2578,1.2224,1.1984,1.2389,1.2594,1.2894,1.3695,1.4698,1.5539,1.5758,1.621,1.6862,1.7782,1.8332,1.8794,1.9453,1.9708,1.9987,2.0591,2.0691,2.088,2.1405,2.1958,2.2309,2.2322,2.2757,2.3108,2.3108,2.3653,2.4004,2.4004,2.4971,2.5598,2.5598,2.6172,2.6738,2.7291,2.7329,2.7795,2.8863,2.89,2.9176,2.9779,2.9792,2.9792,2.9792,2.9792,2.9792,2.9792,3.0228,3.1022,3.2114,3.2751,3.39,3.5399,3.5602,3.6675,3.8186,3.8408,3.927,4.0428,4.0616,4.0386,3.9996,1.6259,1.6885,1.712,1.654,1.5697,1.5266,1.5726,1.5792,1.5859,1.5991,1.6306,1.65,1.65,1.7903,1.8957,1.9296,1.9321,1.8833,1.7626,1.6817,1.6309,1.6136,1.5555,1.521,1.5108,1.5187,1.5267,1.5312,1.5311,1.5345,1.5379,1.5187,1.5085,1.5085,1.4949,1.488,1.488,1.488,1.488,1.488,1.488,1.4823,1.4731,1.4605,1.4466,1.4303,1.4106,1.3847,1.3586,1.3478,1.3258,1.2978,1.2725,1.262,1.2644,1.2868,1.328,1.3848,1.4541,1.5323,1.5976,1.616,1.6941,1.7805,1.8407,1.8863,1.925,1.9527,1.9941,2.0279,2.0453,2.072,2.1138,2.1811,2.2077,2.2301,2.2807,2.2995,2.3258,2.369,2.3891,2.4293,2.5046,2.541,2.5774,2.621,2.6751,2.714,2.7268,2.8009,2.8549,2.8888,2.9327,2.9616,2.9792,2.9792,2.9792,2.9792,2.9792,2.9792,2.9792,3.0075,3.0906,3.2114,3.2606,3.3634,3.5003,3.5358,3.6144,3.7194,3.7854,3.8684,3.9558,4.0017,4.0009,3.9774,1.6316,1.6885,1.7306,1.7306,1.674,1.6182,1.5857,1.5792,1.6092,1.6943,1.7312,1.7501,1.7501,1.8884,1.9798,1.9798,1.9559,1.9033,1.8167,1.7447,1.6942,1.6729,1.6291,1.5776,1.5187,1.5267,1.5335,1.5368,1.5446,1.5536,1.5592,1.5435,1.5368,1.5368,1.5289,1.5266,1.5266,1.5266,1.5266,1.5266,1.5266,1.5221,1.5119,1.4994,1.4823,1.4651,1.4419,1.4163,1.3871,1.3668,1.3344,1.3008,1.3027,1.2989,1.3075,1.3493,1.3975,1.4543,1.5234,1.5899,1.6521,1.7098,1.7677,1.822,1.8625,1.9194,1.966,1.974,2.0239,2.0711,2.0921,2.1157,2.1535,2.2219,2.2395,2.2628,2.3237,2.3416,2.369,2.4255,2.4506,2.4883,2.5536,2.5799,2.621,2.6776,2.7128,2.7469,2.7908,2.8561,2.9001,2.9264,2.9616,2.9792,2.9792,2.9792,2.9792,2.9792,2.9792,2.9792,2.9792,3.0011,3.0801,3.2007,3.2407,3.3352,3.466,3.5031,3.568,3.652,3.741,3.8165,3.8896,3.9731,3.9892,3.97,1.6413,1.6885,1.7306,1.7306,1.7739,1.7624,1.623,1.6012,1.674,1.8746,1.8987,1.8987,1.8987,1.9448,1.9759,1.9798,1.9246,1.8821,1.8708,1.8069,1.7581,1.7313,1.7241,1.6657,1.5509,1.5416,1.5461,1.5584,1.5525,1.5592,1.5715,1.558,1.5536,1.5536,1.5536,1.5524,1.5558,1.5558,1.5558,1.5558,1.5558,1.5558,1.5513,1.539,1.5255,1.5085,1.4754,1.4546,1.4326,1.3776,1.334,1.3081,1.3414,1.3401,1.3404,1.422,1.4628,1.5016,1.5785,1.6433,1.713,1.8269,1.8425,1.8359,1.8674,1.9434,2.007,2.007,2.0568,2.1166,2.1655,2.179,2.1986,2.2573,2.2806,2.3096,2.3623,2.3904,2.4249,2.482,2.531,2.5611,2.5674,2.6235,2.6801,2.7318,2.7442,2.7871,2.8838,2.8938,2.9252,2.9779,2.9792,2.9792,2.9792,2.9792,2.9792,2.9792,2.9792,2.9792,2.9792,2.9972,3.0684,3.1818,3.2193,3.3109,3.4356,3.459,3.5143,3.5967,3.6922,3.7729,3.8412,3.9475,3.9763,3.9656,1.6413,1.6885,1.7306,1.7306,1.7739,1.7989,1.7658,1.7589,1.7935,1.8874,1.8987,1.8987,1.8987,1.9093,1.9344,1.9747,1.9672,1.9533,1.9391,1.8757,1.83,1.8163,1.7542,1.7061,1.68,1.6374,1.6184,1.6195,1.5894,1.5748,1.577,1.5748,1.5714,1.5748,1.5846,1.5879,1.5901,1.6013,1.6035,1.6035,1.6035,1.5925,1.5726,1.5703,1.5503,1.5233,1.5051,1.48,1.4454,1.381,1.3786,1.3956,1.374,1.4018,1.4486,1.4792,1.5048,1.5516,1.6541,1.7116,1.7701,1.8788,1.9285,1.9593,1.9925,2.0334,2.0629,2.0629,2.0955,2.1253,2.1373,2.1686,2.198,2.2266,2.2773,2.3278,2.3641,2.4101,2.4658,2.5327,2.5523,2.5774,2.626,2.6813,2.7331,2.7883,2.8335,2.8637,2.8875,2.9365,2.9666,2.9792,2.9792,2.9792,2.9792,2.9792,2.9792,2.9792,2.9792,2.9792,2.9792,2.9869,3.0579,3.1818,3.1898,3.2647,3.3852,3.3924,3.4266,3.4813,3.5505,3.6484,3.7542,3.8266,3.8854,3.9394,1.6413,1.6885,1.7306,1.7306,1.7739,1.8084,1.8084,1.8084,1.822,1.8545,1.856,1.856,1.856,1.8827,1.9225,1.9747,1.9734,1.9656,1.9617,1.9279,1.9016,1.8888,1.8416,1.8144,1.8144,1.7566,1.7098,1.6788,1.637,1.6164,1.6187,1.5912,1.5792,1.5792,1.5869,1.5935,1.5988,1.6066,1.6144,1.62,1.62,1.6134,1.5991,1.5991,1.5792,1.5525,1.5379,1.5165,1.4854,1.4377,1.4401,1.4599,1.4459,1.4651,1.4936,1.5237,1.5633,1.6157,1.6964,1.7639,1.8395,1.949,2.0088,2.037,2.0386,2.0674,2.0942,2.0942,2.1242,2.149,2.149,2.1654,2.1843,2.203,2.2662,2.3308,2.3897,2.4488,2.5166,2.5937,2.6047,2.626,2.6839,2.7392,2.7908,2.8461,2.8725,2.9013,2.9327,2.9628,2.9792,2.9792,2.9792,2.9792,2.9792,2.9792,2.9792,2.9792,2.9792,2.9792,2.9792,2.9792,3.0461,3.1602,3.1724,3.2482,3.3556,3.367,3.3839,3.4157,3.4982,3.5871,3.6837,3.7628,3.8424,3.91,1.6374,1.68,1.7194,1.7278,1.7684,1.7947,1.7947,1.7947,1.7947,1.7947,1.7947,1.8014,1.8084,1.864,1.9198,1.9682,1.9656,1.9617,1.963,1.9617,1.9539,1.9447,1.9302,1.9223,1.9208,1.8656,1.8048,1.7373,1.6943,1.6691,1.6595,1.6128,1.5876,1.5792,1.5814,1.5891,1.5988,1.6054,1.6132,1.6231,1.6253,1.6231,1.6244,1.6342,1.6191,1.5981,1.5918,1.5742,1.5497,1.5189,1.5137,1.5236,1.5266,1.5207,1.5244,1.5739,1.6236,1.6728,1.7402,1.8171,1.91,2.0255,2.0791,2.0971,2.0724,2.0962,2.1222,2.1222,2.1424,2.1604,2.1572,2.1604,2.169,2.1855,2.2571,2.3401,2.4251,2.4957,2.5667,2.6402,2.6575,2.6889,2.7507,2.7971,2.8473,2.9001,2.9038,2.9289,2.9767,2.9792,2.9792,2.9792,2.9792,2.9792,2.9792,2.9792,2.9792,2.9792,2.9792,2.9792,2.9792,2.9792,3.0382,3.1427,3.1643,3.2371,3.3356,3.3513,3.3641,3.3722,3.4623,3.5491,3.6315,3.7458,3.8283,3.8877,1.6288,1.647,1.6687,1.7222,1.7362,1.7418,1.7418,1.7418,1.7418,1.7418,1.7418,1.7573,1.8057,1.864,1.9119,1.942,1.9539,1.9656,1.9773,1.9656,1.9591,1.9565,1.9447,1.9328,1.9208,1.9109,1.8742,1.8072,1.7543,1.7051,1.6607,1.6535,1.6236,1.5814,1.5913,1.5979,1.6022,1.6262,1.6362,1.6371,1.6436,1.6414,1.6433,1.6883,1.6899,1.6696,1.7027,1.6892,1.6418,1.593,1.5914,1.6058,1.5752,1.5708,1.5885,1.6484,1.6627,1.689,1.8301,1.8994,1.9585,2.0791,2.135,2.16,2.1673,2.1739,2.1756,2.1651,2.1428,2.1221,2.1031,2.1169,2.1403,2.182,2.2747,2.3733,2.4599,2.5352,2.5998,2.6452,2.6914,2.757,2.8574,2.8737,2.9051,2.9628,2.9679,2.9704,2.9792,2.9792,2.9792,2.9792,2.9792,2.9792,2.9792,2.9792,2.9792,2.9792,2.9792,2.9792,2.9792,2.9792,3.0382,3.1386,3.1427,3.2122,3.3154,3.3154,3.3283,3.3441,3.3602,3.471,3.6411,3.7904,3.8535,3.8647,1.6259,1.6413,1.6488,1.6744,1.68,1.68,1.68,1.68,1.68,1.68,1.6153,1.5777,1.6003,1.7296,1.8281,1.8589,1.9149,1.9539,1.9682,1.9708,1.9708,1.9708,1.9591,1.9486,1.942,1.9275,1.9061,1.8766,1.8146,1.7699,1.7385,1.7075,1.6812,1.6586,1.6633,1.675,1.6912,1.7028,1.7166,1.7314,1.7324,1.736,1.742,1.767,1.7582,1.7325,1.7231,1.7195,1.7122,1.6532,1.6509,1.6626,1.6214,1.6241,1.6464,1.6706,1.7124,1.7697,1.8628,1.9329,2.0026,2.0974,2.1466,2.173,2.1874,2.2056,2.2047,2.1533,2.1221,2.0967,2.0818,2.1185,2.1577,2.186,2.2953,2.4028,2.4711,2.5416,2.6161,2.6844,2.7406,2.8059,2.8813,2.9176,2.9515,2.9779,2.9792,2.9792,2.9792,2.9792,2.9792,2.9792,2.9792,2.9792,2.9792,2.9792,2.9792,2.9792,2.9792,2.9792,2.9804,3.0118,3.067,3.1411,3.1725,3.2315,3.3124,3.3124,3.3154,3.324,3.3356,3.4473,3.6108,3.7301,3.7994,3.8362]}]]